<?xml version="1.0" encoding="UTF-8" standalone="no" ?>
<gpx xmlns="http://www.topografix.com/GPX/1/1" xmlns:xsi="http://www.w3.org/2001/XMLSchema-instance" xsi:schemaLocation="http://www.topografix.com/GPX/1/1 http://www.topografix.com/GPX/1/1/gpx.xsd" version="1.1" creator="VisuGPX - https://www.visugpx.com">
  <metadata>
    <name>Col de la petite Cayolle - Les lacs</name>
    <desc><![CDATA[Une randonnée dans un secteur minéral de toute beauté. Les points de vue sur les lacs sont superbes. Ne pas oublier l'aller retour pour le panorama sur le lac d'Allos à partir du pas de Lausson.
Au niveau du lac des Garrets nous sommes passés sur la crête, attention vertige et jour de vent.]]></desc>
  </metadata>
  <trk>
    <name><![CDATA[Col de la petite Cayolle - Les lacs]]></name>
    <extensions>
      <line xmlns="http://www.topografix.com/GPX/gpx_style/0/2">
        <color>ff0000</color>
        <opacity>1</opacity>
        <width>5</width>
      </line>
    </extensions>
    <trkseg>
      <trkpt lat="44.2594" lon="6.74402">
        <ele>2325.3</ele>
        <time>2023-07-27T08:06:45.000Z</time>
      </trkpt>
      <trkpt lat="44.25934" lon="6.744">
        <ele>2325.8</ele>
        <time>2023-07-27T08:06:59.483Z</time>
      </trkpt>
      <trkpt lat="44.25929" lon="6.74398">
        <ele>2326.1</ele>
        <time>2023-07-27T08:07:10.773Z</time>
      </trkpt>
      <trkpt lat="44.25923" lon="6.74396">
        <ele>2326.6</ele>
        <time>2023-07-27T08:07:25.257Z</time>
      </trkpt>
      <trkpt lat="44.25918" lon="6.74394">
        <ele>2327</ele>
        <time>2023-07-27T08:07:37.298Z</time>
      </trkpt>
      <trkpt lat="44.25923" lon="6.74392">
        <ele>2326.5</ele>
        <time>2023-07-27T08:07:45.515Z</time>
      </trkpt>
      <trkpt lat="44.25927" lon="6.74391">
        <ele>2326</ele>
        <time>2023-07-27T08:07:51.936Z</time>
      </trkpt>
      <trkpt lat="44.25932" lon="6.7439">
        <ele>2325.4</ele>
        <time>2023-07-27T08:07:59.916Z</time>
      </trkpt>
      <trkpt lat="44.25936" lon="6.74388">
        <ele>2325.1</ele>
        <time>2023-07-27T08:08:06.629Z</time>
      </trkpt>
      <trkpt lat="44.25941" lon="6.74388">
        <ele>2324.5</ele>
        <time>2023-07-27T08:08:14.529Z</time>
      </trkpt>
      <trkpt lat="44.25946" lon="6.74387">
        <ele>2324.2</ele>
        <time>2023-07-27T08:08:22.510Z</time>
      </trkpt>
      <trkpt lat="44.25952" lon="6.74385">
        <ele>2324</ele>
        <time>2023-07-27T08:08:32.610Z</time>
      </trkpt>
      <trkpt lat="44.25957" lon="6.74382">
        <ele>2324</ele>
        <time>2023-07-27T08:08:42.437Z</time>
      </trkpt>
      <trkpt lat="44.25962" lon="6.74381">
        <ele>2323.7</ele>
        <time>2023-07-27T08:08:50.417Z</time>
      </trkpt>
      <trkpt lat="44.25966" lon="6.74379">
        <ele>2323.4</ele>
        <time>2023-07-27T08:08:57.130Z</time>
      </trkpt>
      <trkpt lat="44.25974" lon="6.74375">
        <ele>2322.8</ele>
        <time>2023-07-27T08:09:10.556Z</time>
      </trkpt>
      <trkpt lat="44.25979" lon="6.74374">
        <ele>2322.3</ele>
        <time>2023-07-27T08:09:18.537Z</time>
      </trkpt>
      <trkpt lat="44.25985" lon="6.74372">
        <ele>2321.8</ele>
        <time>2023-07-27T08:09:28.283Z</time>
      </trkpt>
      <trkpt lat="44.25987" lon="6.74366">
        <ele>2322.1</ele>
        <time>2023-07-27T08:09:38.765Z</time>
      </trkpt>
      <trkpt lat="44.25989" lon="6.74359">
        <ele>2322.5</ele>
        <time>2023-07-27T08:09:51.143Z</time>
      </trkpt>
      <trkpt lat="44.2599" lon="6.74353">
        <ele>2323.2</ele>
        <time>2023-07-27T08:10:04.813Z</time>
      </trkpt>
      <trkpt lat="44.25992" lon="6.74347">
        <ele>2323.7</ele>
        <time>2023-07-27T08:10:16.923Z</time>
      </trkpt>
      <trkpt lat="44.25993" lon="6.7434">
        <ele>2324.4</ele>
        <time>2023-07-27T08:10:31.540Z</time>
      </trkpt>
      <trkpt lat="44.25994" lon="6.74333">
        <ele>2325.1</ele>
        <time>2023-07-27T08:10:46.158Z</time>
      </trkpt>
      <trkpt lat="44.25995" lon="6.74326">
        <ele>2326.1</ele>
        <time>2023-07-27T08:11:04.400Z</time>
      </trkpt>
      <trkpt lat="44.25996" lon="6.7432">
        <ele>2326.8</ele>
        <time>2023-07-27T08:11:18.070Z</time>
      </trkpt>
      <trkpt lat="44.25998" lon="6.74312">
        <ele>2327.5</ele>
        <time>2023-07-27T08:11:34.125Z</time>
      </trkpt>
      <trkpt lat="44.25999" lon="6.74305">
        <ele>2328.4</ele>
        <time>2023-07-27T08:11:51.041Z</time>
      </trkpt>
      <trkpt lat="44.26" lon="6.74298">
        <ele>2329.4</ele>
        <time>2023-07-27T08:12:09.283Z</time>
      </trkpt>
      <trkpt lat="44.26" lon="6.74291">
        <ele>2330.6</ele>
        <time>2023-07-27T08:12:30.576Z</time>
      </trkpt>
      <trkpt lat="44.25999" lon="6.74284">
        <ele>2332.2</ele>
        <time>2023-07-27T08:13:00.023Z</time>
      </trkpt>
      <trkpt lat="44.26001" lon="6.74273">
        <ele>2333.3</ele>
        <time>2023-07-27T08:13:23.129Z</time>
      </trkpt>
      <trkpt lat="44.25999" lon="6.74267">
        <ele>2334.9</ele>
        <time>2023-07-27T08:13:53.370Z</time>
      </trkpt>
      <trkpt lat="44.25998" lon="6.7426">
        <ele>2336.2</ele>
        <time>2023-07-27T08:14:16.447Z</time>
      </trkpt>
      <trkpt lat="44.25997" lon="6.74253">
        <ele>2337.6</ele>
        <time>2023-07-27T08:14:41.462Z</time>
      </trkpt>
      <trkpt lat="44.25996" lon="6.74246">
        <ele>2339.5</ele>
        <time>2023-07-27T08:15:18.924Z</time>
      </trkpt>
      <trkpt lat="44.25997" lon="6.7424">
        <ele>2340.8</ele>
        <time>2023-07-27T08:15:42.465Z</time>
      </trkpt>
      <trkpt lat="44.25998" lon="6.74233">
        <ele>2342.2</ele>
        <time>2023-07-27T08:16:07.481Z</time>
      </trkpt>
      <trkpt lat="44.26" lon="6.74228">
        <ele>2342.5</ele>
        <time>2023-07-27T08:16:16.856Z</time>
      </trkpt>
      <trkpt lat="44.26002" lon="6.74222">
        <ele>2343.2</ele>
        <time>2023-07-27T08:16:30.955Z</time>
      </trkpt>
      <trkpt lat="44.26005" lon="6.74216">
        <ele>2344.7</ele>
        <time>2023-07-27T08:16:57.952Z</time>
      </trkpt>
      <trkpt lat="44.26007" lon="6.74209">
        <ele>2346.8</ele>
        <time>2023-07-27T08:17:40.278Z</time>
      </trkpt>
      <trkpt lat="44.2601" lon="6.74204">
        <ele>2347.2</ele>
        <time>2023-07-27T08:17:51.419Z</time>
      </trkpt>
      <trkpt lat="44.26012" lon="6.74198">
        <ele>2348.4</ele>
        <time>2023-07-27T08:18:12.716Z</time>
      </trkpt>
      <trkpt lat="44.26016" lon="6.74192">
        <ele>2348</ele>
        <time>2023-07-27T08:18:21.992Z</time>
      </trkpt>
      <trkpt lat="44.26019" lon="6.74187">
        <ele>2347.8</ele>
        <time>2023-07-27T08:18:29.411Z</time>
      </trkpt>
      <trkpt lat="44.26023" lon="6.74183">
        <ele>2346.3</ele>
        <time>2023-07-27T08:18:37.185Z</time>
      </trkpt>
      <trkpt lat="44.26024" lon="6.74179">
        <ele>2346.9</ele>
        <time>2023-07-27T08:18:48.102Z</time>
      </trkpt>
      <trkpt lat="44.26025" lon="6.74173">
        <ele>2348.2</ele>
        <time>2023-07-27T08:19:11.644Z</time>
      </trkpt>
      <trkpt lat="44.2603" lon="6.74165">
        <ele>2348</ele>
        <time>2023-07-27T08:19:24.323Z</time>
      </trkpt>
      <trkpt lat="44.26034" lon="6.74156">
        <ele>2350.5</ele>
        <time>2023-07-27T08:20:11.144Z</time>
      </trkpt>
      <trkpt lat="44.26038" lon="6.74151">
        <ele>2351</ele>
        <time>2023-07-27T08:20:24.283Z</time>
      </trkpt>
      <trkpt lat="44.26043" lon="6.74146">
        <ele>2351</ele>
        <time>2023-07-27T08:20:35.388Z</time>
      </trkpt>
      <trkpt lat="44.26047" lon="6.74141">
        <ele>2351.2</ele>
        <time>2023-07-27T08:20:46.289Z</time>
      </trkpt>
      <trkpt lat="44.26051" lon="6.74136">
        <ele>2351.4</ele>
        <time>2023-07-27T08:20:57.191Z</time>
      </trkpt>
      <trkpt lat="44.26054" lon="6.74131">
        <ele>2352.2</ele>
        <time>2023-07-27T08:21:12.369Z</time>
      </trkpt>
      <trkpt lat="44.26057" lon="6.74126">
        <ele>2353.3</ele>
        <time>2023-07-27T08:21:31.900Z</time>
      </trkpt>
      <trkpt lat="44.26061" lon="6.74121">
        <ele>2354.9</ele>
        <time>2023-07-27T08:22:00.952Z</time>
      </trkpt>
      <trkpt lat="44.26065" lon="6.74117">
        <ele>2356</ele>
        <time>2023-07-27T08:22:20.560Z</time>
      </trkpt>
      <trkpt lat="44.2607" lon="6.74116">
        <ele>2355.7</ele>
        <time>2023-07-27T08:22:28.540Z</time>
      </trkpt>
      <trkpt lat="44.26075" lon="6.74115">
        <ele>2355.4</ele>
        <time>2023-07-27T08:22:36.521Z</time>
      </trkpt>
      <trkpt lat="44.26083" lon="6.74112">
        <ele>2355.6</ele>
        <time>2023-07-27T08:22:52.650Z</time>
      </trkpt>
      <trkpt lat="44.26089" lon="6.7411">
        <ele>2355.6</ele>
        <time>2023-07-27T08:23:03.789Z</time>
      </trkpt>
      <trkpt lat="44.26095" lon="6.74108">
        <ele>2355.5</ele>
        <time>2023-07-27T08:23:14.391Z</time>
      </trkpt>
      <trkpt lat="44.261" lon="6.74105">
        <ele>2355.8</ele>
        <time>2023-07-27T08:23:26.104Z</time>
      </trkpt>
      <trkpt lat="44.26105" lon="6.74102">
        <ele>2356</ele>
        <time>2023-07-27T08:23:37.137Z</time>
      </trkpt>
      <trkpt lat="44.26108" lon="6.74098">
        <ele>2356.9</ele>
        <time>2023-07-27T08:23:53.238Z</time>
      </trkpt>
      <trkpt lat="44.26112" lon="6.74093">
        <ele>2357.5</ele>
        <time>2023-07-27T08:24:07.262Z</time>
      </trkpt>
      <trkpt lat="44.26113" lon="6.74087">
        <ele>2359.1</ele>
        <time>2023-07-27T08:24:38.449Z</time>
      </trkpt>
      <trkpt lat="44.26113" lon="6.7408">
        <ele>2360.6</ele>
        <time>2023-07-27T08:25:05.712Z</time>
      </trkpt>
      <trkpt lat="44.26111" lon="6.74073">
        <ele>2362.1</ele>
        <time>2023-07-27T08:25:32.571Z</time>
      </trkpt>
      <trkpt lat="44.2611" lon="6.74067">
        <ele>2363.1</ele>
        <time>2023-07-27T08:25:50.373Z</time>
      </trkpt>
      <trkpt lat="44.26109" lon="6.74055">
        <ele>2364.9</ele>
        <time>2023-07-27T08:26:22.790Z</time>
      </trkpt>
      <trkpt lat="44.26107" lon="6.74049">
        <ele>2365.9</ele>
        <time>2023-07-27T08:26:40.755Z</time>
      </trkpt>
      <trkpt lat="44.26105" lon="6.74042">
        <ele>2366.9</ele>
        <time>2023-07-27T08:26:59.259Z</time>
      </trkpt>
      <trkpt lat="44.26103" lon="6.74036">
        <ele>2367.9</ele>
        <time>2023-07-27T08:27:17.225Z</time>
      </trkpt>
      <trkpt lat="44.26101" lon="6.7403">
        <ele>2368.9</ele>
        <time>2023-07-27T08:27:35.190Z</time>
      </trkpt>
      <trkpt lat="44.26098" lon="6.74025">
        <ele>2369.9</ele>
        <time>2023-07-27T08:27:53.115Z</time>
      </trkpt>
      <trkpt lat="44.26094" lon="6.7402">
        <ele>2371</ele>
        <time>2023-07-27T08:28:12.982Z</time>
      </trkpt>
      <trkpt lat="44.26091" lon="6.74014">
        <ele>2371.6</ele>
        <time>2023-07-27T08:28:26.804Z</time>
      </trkpt>
      <trkpt lat="44.26088" lon="6.74008">
        <ele>2372.1</ele>
        <time>2023-07-27T08:28:39.731Z</time>
      </trkpt>
      <trkpt lat="44.26084" lon="6.74004">
        <ele>2373.2</ele>
        <time>2023-07-27T08:28:59.339Z</time>
      </trkpt>
      <trkpt lat="44.2608" lon="6.74">
        <ele>2374.4</ele>
        <time>2023-07-27T08:29:20.624Z</time>
      </trkpt>
      <trkpt lat="44.26076" lon="6.73996">
        <ele>2375.3</ele>
        <time>2023-07-27T08:29:37.339Z</time>
      </trkpt>
      <trkpt lat="44.26073" lon="6.73991">
        <ele>2375.5</ele>
        <time>2023-07-27T08:29:46.997Z</time>
      </trkpt>
      <trkpt lat="44.2607" lon="6.73986">
        <ele>2375.7</ele>
        <time>2023-07-27T08:29:56.655Z</time>
      </trkpt>
      <trkpt lat="44.26067" lon="6.73981">
        <ele>2376</ele>
        <time>2023-07-27T08:30:07.018Z</time>
      </trkpt>
      <trkpt lat="44.26064" lon="6.73976">
        <ele>2376.2</ele>
        <time>2023-07-27T08:30:16.676Z</time>
      </trkpt>
      <trkpt lat="44.2606" lon="6.73971">
        <ele>2376.7</ele>
        <time>2023-07-27T08:30:29.815Z</time>
      </trkpt>
      <trkpt lat="44.26056" lon="6.73966">
        <ele>2377</ele>
        <time>2023-07-27T08:30:41.400Z</time>
      </trkpt>
      <trkpt lat="44.26053" lon="6.73962">
        <ele>2376.8</ele>
        <time>2023-07-27T08:30:47.953Z</time>
      </trkpt>
      <trkpt lat="44.26048" lon="6.7396">
        <ele>2377.7</ele>
        <time>2023-07-27T08:31:04.968Z</time>
      </trkpt>
      <trkpt lat="44.26043" lon="6.73957">
        <ele>2378.2</ele>
        <time>2023-07-27T08:31:18.228Z</time>
      </trkpt>
      <trkpt lat="44.26039" lon="6.73955">
        <ele>2378.7</ele>
        <time>2023-07-27T08:31:29.562Z</time>
      </trkpt>
      <trkpt lat="44.26034" lon="6.73953">
        <ele>2379.4</ele>
        <time>2023-07-27T08:31:44.308Z</time>
      </trkpt>
      <trkpt lat="44.26029" lon="6.73952">
        <ele>2380.4</ele>
        <time>2023-07-27T08:32:02.499Z</time>
      </trkpt>
      <trkpt lat="44.26024" lon="6.7395">
        <ele>2380.4</ele>
        <time>2023-07-27T08:32:11.891Z</time>
      </trkpt>
      <trkpt lat="44.26019" lon="6.73948">
        <ele>2380.3</ele>
        <time>2023-07-27T08:32:20.749Z</time>
      </trkpt>
      <trkpt lat="44.26014" lon="6.73946">
        <ele>2380.1</ele>
        <time>2023-07-27T08:32:29.115Z</time>
      </trkpt>
      <trkpt lat="44.26009" lon="6.73945">
        <ele>2380.2</ele>
        <time>2023-07-27T08:32:38.816Z</time>
      </trkpt>
      <trkpt lat="44.26001" lon="6.73947">
        <ele>2381.9</ele>
        <time>2023-07-27T08:33:09.403Z</time>
      </trkpt>
      <trkpt lat="44.25998" lon="6.73948">
        <ele>2382.6</ele>
        <time>2023-07-27T08:33:21.863Z</time>
      </trkpt>
      <trkpt lat="44.25994" lon="6.73949">
        <ele>2383.4</ele>
        <time>2023-07-27T08:33:36.434Z</time>
      </trkpt>
      <trkpt lat="44.25988" lon="6.73949">
        <ele>2384</ele>
        <time>2023-07-27T08:33:51.473Z</time>
      </trkpt>
      <trkpt lat="44.25983" lon="6.7395">
        <ele>2384.8</ele>
        <time>2023-07-27T08:34:07.107Z</time>
      </trkpt>
      <trkpt lat="44.25979" lon="6.73948">
        <ele>2384.5</ele>
        <time>2023-07-27T08:34:13.820Z</time>
      </trkpt>
      <trkpt lat="44.25974" lon="6.73946">
        <ele>2384.3</ele>
        <time>2023-07-27T08:34:22.186Z</time>
      </trkpt>
      <trkpt lat="44.2597" lon="6.73943">
        <ele>2384.1</ele>
        <time>2023-07-27T08:34:29.371Z</time>
      </trkpt>
      <trkpt lat="44.25965" lon="6.73941">
        <ele>2384.6</ele>
        <time>2023-07-27T08:34:42.233Z</time>
      </trkpt>
      <trkpt lat="44.25961" lon="6.73939">
        <ele>2384.9</ele>
        <time>2023-07-27T08:34:51.862Z</time>
      </trkpt>
      <trkpt lat="44.25956" lon="6.73937">
        <ele>2385.4</ele>
        <time>2023-07-27T08:35:04.724Z</time>
      </trkpt>
      <trkpt lat="44.25952" lon="6.73933">
        <ele>2385.1</ele>
        <time>2023-07-27T08:35:12.497Z</time>
      </trkpt>
      <trkpt lat="44.25947" lon="6.7393">
        <ele>2385.3</ele>
        <time>2023-07-27T08:35:23.530Z</time>
      </trkpt>
      <trkpt lat="44.25943" lon="6.73928">
        <ele>2385.5</ele>
        <time>2023-07-27T08:35:32.437Z</time>
      </trkpt>
      <trkpt lat="44.25939" lon="6.73926">
        <ele>2385.7</ele>
        <time>2023-07-27T08:35:41.344Z</time>
      </trkpt>
      <trkpt lat="44.25934" lon="6.73924">
        <ele>2386.1</ele>
        <time>2023-07-27T08:35:53.384Z</time>
      </trkpt>
      <trkpt lat="44.2593" lon="6.73921">
        <ele>2385.9</ele>
        <time>2023-07-27T08:36:00.570Z</time>
      </trkpt>
      <trkpt lat="44.25925" lon="6.7392">
        <ele>2386.5</ele>
        <time>2023-07-27T08:36:14.097Z</time>
      </trkpt>
      <trkpt lat="44.25919" lon="6.7392">
        <ele>2387.6</ele>
        <time>2023-07-27T08:36:34.513Z</time>
      </trkpt>
      <trkpt lat="44.25915" lon="6.73917">
        <ele>2387.5</ele>
        <time>2023-07-27T08:36:42.181Z</time>
      </trkpt>
      <trkpt lat="44.2591" lon="6.73915">
        <ele>2388</ele>
        <time>2023-07-27T08:36:55.043Z</time>
      </trkpt>
      <trkpt lat="44.25905" lon="6.73913">
        <ele>2388.6</ele>
        <time>2023-07-27T08:37:08.804Z</time>
      </trkpt>
      <trkpt lat="44.25901" lon="6.73911">
        <ele>2389</ele>
        <time>2023-07-27T08:37:19.238Z</time>
      </trkpt>
      <trkpt lat="44.25896" lon="6.73909">
        <ele>2389.5</ele>
        <time>2023-07-27T08:37:32.100Z</time>
      </trkpt>
      <trkpt lat="44.25891" lon="6.73908">
        <ele>2390.4</ele>
        <time>2023-07-27T08:37:48.950Z</time>
      </trkpt>
      <trkpt lat="44.25886" lon="6.73906">
        <ele>2390.7</ele>
        <time>2023-07-27T08:38:00.240Z</time>
      </trkpt>
      <trkpt lat="44.25881" lon="6.73904">
        <ele>2390.8</ele>
        <time>2023-07-27T08:38:10.212Z</time>
      </trkpt>
      <trkpt lat="44.25876" lon="6.73904">
        <ele>2391.4</ele>
        <time>2023-07-27T08:38:23.661Z</time>
      </trkpt>
      <trkpt lat="44.25871" lon="6.73904">
        <ele>2392</ele>
        <time>2023-07-27T08:38:37.109Z</time>
      </trkpt>
      <trkpt lat="44.25866" lon="6.73905">
        <ele>2392.9</ele>
        <time>2023-07-27T08:38:53.960Z</time>
      </trkpt>
      <trkpt lat="44.25861" lon="6.73906">
        <ele>2393.7</ele>
        <time>2023-07-27T08:39:09.594Z</time>
      </trkpt>
      <trkpt lat="44.25853" lon="6.73908">
        <ele>2394.1</ele>
        <time>2023-07-27T08:39:26.752Z</time>
      </trkpt>
      <trkpt lat="44.25847" lon="6.73909">
        <ele>2394.3</ele>
        <time>2023-07-27T08:39:38.859Z</time>
      </trkpt>
      <trkpt lat="44.25842" lon="6.73911">
        <ele>2394.8</ele>
        <time>2023-07-27T08:39:51.720Z</time>
      </trkpt>
      <trkpt lat="44.25837" lon="6.73913">
        <ele>2395.2</ele>
        <time>2023-07-27T08:40:03.761Z</time>
      </trkpt>
      <trkpt lat="44.25833" lon="6.73914">
        <ele>2395.4</ele>
        <time>2023-07-27T08:40:12.340Z</time>
      </trkpt>
      <trkpt lat="44.25828" lon="6.73916">
        <ele>2396.1</ele>
        <time>2023-07-27T08:40:27.085Z</time>
      </trkpt>
      <trkpt lat="44.25823" lon="6.73917">
        <ele>2396.5</ele>
        <time>2023-07-27T08:40:38.870Z</time>
      </trkpt>
      <trkpt lat="44.25819" lon="6.73918">
        <ele>2396.9</ele>
        <time>2023-07-27T08:40:48.999Z</time>
      </trkpt>
      <trkpt lat="44.25814" lon="6.73919">
        <ele>2397.4</ele>
        <time>2023-07-27T08:41:01.615Z</time>
      </trkpt>
      <trkpt lat="44.25809" lon="6.73919">
        <ele>2397.5</ele>
        <time>2023-07-27T08:41:11.224Z</time>
      </trkpt>
      <trkpt lat="44.25805" lon="6.73919">
        <ele>2397.7</ele>
        <time>2023-07-27T08:41:19.690Z</time>
      </trkpt>
      <trkpt lat="44.258" lon="6.73918">
        <ele>2398</ele>
        <time>2023-07-27T08:41:30.716Z</time>
      </trkpt>
      <trkpt lat="44.25795" lon="6.73918">
        <ele>2398.5</ele>
        <time>2023-07-27T08:41:43.248Z</time>
      </trkpt>
      <trkpt lat="44.25789" lon="6.73918">
        <ele>2399.1</ele>
        <time>2023-07-27T08:41:58.286Z</time>
      </trkpt>
      <trkpt lat="44.25783" lon="6.73918">
        <ele>2399.8</ele>
        <time>2023-07-27T08:42:14.234Z</time>
      </trkpt>
      <trkpt lat="44.25776" lon="6.7392">
        <ele>2401.1</ele>
        <time>2023-07-27T08:42:38.417Z</time>
      </trkpt>
      <trkpt lat="44.25773" lon="6.7392">
        <ele>2401.6</ele>
        <time>2023-07-27T08:42:47.997Z</time>
      </trkpt>
      <trkpt lat="44.25768" lon="6.73917">
        <ele>2401.8</ele>
        <time>2023-07-27T08:42:59.029Z</time>
      </trkpt>
      <trkpt lat="44.25763" lon="6.73913">
        <ele>2402.3</ele>
        <time>2023-07-27T08:43:12.826Z</time>
      </trkpt>
      <trkpt lat="44.25758" lon="6.73908">
        <ele>2402.8</ele>
        <time>2023-07-27T08:43:27.278Z</time>
      </trkpt>
      <trkpt lat="44.25754" lon="6.73904">
        <ele>2403.3</ele>
        <time>2023-07-27T08:43:39.680Z</time>
      </trkpt>
      <trkpt lat="44.2575" lon="6.739">
        <ele>2403.8</ele>
        <time>2023-07-27T08:43:52.082Z</time>
      </trkpt>
      <trkpt lat="44.25747" lon="6.73893">
        <ele>2404.1</ele>
        <time>2023-07-27T08:44:04.502Z</time>
      </trkpt>
      <trkpt lat="44.25743" lon="6.73887">
        <ele>2405</ele>
        <time>2023-07-27T08:44:22.332Z</time>
      </trkpt>
      <trkpt lat="44.25742" lon="6.73881">
        <ele>2405.3</ele>
        <time>2023-07-27T08:44:32.244Z</time>
      </trkpt>
      <trkpt lat="44.2574" lon="6.73875">
        <ele>2405.7</ele>
        <time>2023-07-27T08:44:43.501Z</time>
      </trkpt>
      <trkpt lat="44.25737" lon="6.73864">
        <ele>2406.7</ele>
        <time>2023-07-27T08:45:06.065Z</time>
      </trkpt>
      <trkpt lat="44.25734" lon="6.73858">
        <ele>2407.8</ele>
        <time>2023-07-27T08:45:25.844Z</time>
      </trkpt>
      <trkpt lat="44.25732" lon="6.73852">
        <ele>2408.6</ele>
        <time>2023-07-27T08:45:41.101Z</time>
      </trkpt>
      <trkpt lat="44.25729" lon="6.73847">
        <ele>2409.7</ele>
        <time>2023-07-27T08:46:00.632Z</time>
      </trkpt>
      <trkpt lat="44.25727" lon="6.73841">
        <ele>2410.4</ele>
        <time>2023-07-27T08:46:14.731Z</time>
      </trkpt>
      <trkpt lat="44.25725" lon="6.73835">
        <ele>2411.1</ele>
        <time>2023-07-27T08:46:28.830Z</time>
      </trkpt>
      <trkpt lat="44.25723" lon="6.73829">
        <ele>2411.9</ele>
        <time>2023-07-27T08:46:44.086Z</time>
      </trkpt>
      <trkpt lat="44.25722" lon="6.73823">
        <ele>2412.4</ele>
        <time>2023-07-27T08:46:55.675Z</time>
      </trkpt>
      <trkpt lat="44.25721" lon="6.73816">
        <ele>2413</ele>
        <time>2023-07-27T08:47:09.297Z</time>
      </trkpt>
      <trkpt lat="44.2572" lon="6.7381">
        <ele>2413.5</ele>
        <time>2023-07-27T08:47:20.886Z</time>
      </trkpt>
      <trkpt lat="44.25719" lon="6.73803">
        <ele>2414.1</ele>
        <time>2023-07-27T08:47:34.508Z</time>
      </trkpt>
      <trkpt lat="44.25715" lon="6.73793">
        <ele>2416</ele>
        <time>2023-07-27T08:48:08.275Z</time>
      </trkpt>
      <trkpt lat="44.25712" lon="6.73782">
        <ele>2417.6</ele>
        <time>2023-07-27T08:48:37.684Z</time>
      </trkpt>
      <trkpt lat="44.25712" lon="6.73775">
        <ele>2418.2</ele>
        <time>2023-07-27T08:48:51.154Z</time>
      </trkpt>
      <trkpt lat="44.25712" lon="6.73768">
        <ele>2418.9</ele>
        <time>2023-07-27T08:49:05.631Z</time>
      </trkpt>
      <trkpt lat="44.25712" lon="6.73761">
        <ele>2419.5</ele>
        <time>2023-07-27T08:49:19.101Z</time>
      </trkpt>
      <trkpt lat="44.25712" lon="6.73753">
        <ele>2420.3</ele>
        <time>2023-07-27T08:49:35.647Z</time>
      </trkpt>
      <trkpt lat="44.25711" lon="6.73745">
        <ele>2421.2</ele>
        <time>2023-07-27T08:49:53.406Z</time>
      </trkpt>
      <trkpt lat="44.2571" lon="6.73738">
        <ele>2422</ele>
        <time>2023-07-27T08:50:09.118Z</time>
      </trkpt>
      <trkpt lat="44.25709" lon="6.73731">
        <ele>2422.7</ele>
        <time>2023-07-27T08:50:23.736Z</time>
      </trkpt>
      <trkpt lat="44.25709" lon="6.73722">
        <ele>2423.4</ele>
        <time>2023-07-27T08:50:40.386Z</time>
      </trkpt>
      <trkpt lat="44.25706" lon="6.73711">
        <ele>2424.7</ele>
        <time>2023-07-27T08:51:06.077Z</time>
      </trkpt>
      <trkpt lat="44.25704" lon="6.73705">
        <ele>2425.3</ele>
        <time>2023-07-27T08:51:19.131Z</time>
      </trkpt>
      <trkpt lat="44.25701" lon="6.73699">
        <ele>2426.1</ele>
        <time>2023-07-27T08:51:35.009Z</time>
      </trkpt>
      <trkpt lat="44.25698" lon="6.73693">
        <ele>2426.6</ele>
        <time>2023-07-27T08:51:47.937Z</time>
      </trkpt>
      <trkpt lat="44.25695" lon="6.73688">
        <ele>2426.9</ele>
        <time>2023-07-27T08:51:58.300Z</time>
      </trkpt>
      <trkpt lat="44.25692" lon="6.73682">
        <ele>2427.1</ele>
        <time>2023-07-27T08:52:08.973Z</time>
      </trkpt>
      <trkpt lat="44.25689" lon="6.73677">
        <ele>2427.2</ele>
        <time>2023-07-27T08:52:17.991Z</time>
      </trkpt>
      <trkpt lat="44.25683" lon="6.73672">
        <ele>2427.4</ele>
        <time>2023-07-27T08:52:31.793Z</time>
      </trkpt>
      <trkpt lat="44.2568" lon="6.73666">
        <ele>2427.5</ele>
        <time>2023-07-27T08:52:41.836Z</time>
      </trkpt>
      <trkpt lat="44.25678" lon="6.7366">
        <ele>2427.7</ele>
        <time>2023-07-27T08:52:51.615Z</time>
      </trkpt>
      <trkpt lat="44.25675" lon="6.73653">
        <ele>2428</ele>
        <time>2023-07-27T08:53:04.036Z</time>
      </trkpt>
      <trkpt lat="44.25673" lon="6.73647">
        <ele>2428.3</ele>
        <time>2023-07-27T08:53:14.518Z</time>
      </trkpt>
      <trkpt lat="44.25669" lon="6.73643">
        <ele>2428.7</ele>
        <time>2023-07-27T08:53:26.080Z</time>
      </trkpt>
      <trkpt lat="44.25666" lon="6.73639">
        <ele>2429.1</ele>
        <time>2023-07-27T08:53:36.348Z</time>
      </trkpt>
      <trkpt lat="44.25663" lon="6.73633">
        <ele>2430</ele>
        <time>2023-07-27T08:53:53.407Z</time>
      </trkpt>
      <trkpt lat="44.2566" lon="6.73627">
        <ele>2431</ele>
        <time>2023-07-27T08:54:11.763Z</time>
      </trkpt>
      <trkpt lat="44.25657" lon="6.73621">
        <ele>2432</ele>
        <time>2023-07-27T08:54:30.118Z</time>
      </trkpt>
      <trkpt lat="44.25655" lon="6.73615">
        <ele>2432.8</ele>
        <time>2023-07-27T08:54:45.375Z</time>
      </trkpt>
      <trkpt lat="44.25653" lon="6.73609">
        <ele>2433.7</ele>
        <time>2023-07-27T08:55:01.916Z</time>
      </trkpt>
      <trkpt lat="44.25652" lon="6.73602">
        <ele>2434.7</ele>
        <time>2023-07-27T08:55:20.159Z</time>
      </trkpt>
      <trkpt lat="44.25652" lon="6.73596">
        <ele>2435.5</ele>
        <time>2023-07-27T08:55:34.941Z</time>
      </trkpt>
      <trkpt lat="44.25652" lon="6.73589">
        <ele>2436.3</ele>
        <time>2023-07-27T08:55:50.529Z</time>
      </trkpt>
      <trkpt lat="44.25655" lon="6.73579">
        <ele>2437.4</ele>
        <time>2023-07-27T08:56:13.120Z</time>
      </trkpt>
      <trkpt lat="44.25657" lon="6.73573">
        <ele>2438</ele>
        <time>2023-07-27T08:56:26.174Z</time>
      </trkpt>
      <trkpt lat="44.25658" lon="6.73567">
        <ele>2438.5</ele>
        <time>2023-07-27T08:56:37.763Z</time>
      </trkpt>
      <trkpt lat="44.25659" lon="6.7356">
        <ele>2439.2</ele>
        <time>2023-07-27T08:56:52.381Z</time>
      </trkpt>
      <trkpt lat="44.2566" lon="6.73552">
        <ele>2439.8</ele>
        <time>2023-07-27T08:57:07.120Z</time>
      </trkpt>
      <trkpt lat="44.2566" lon="6.73546">
        <ele>2440.5</ele>
        <time>2023-07-27T08:57:20.649Z</time>
      </trkpt>
      <trkpt lat="44.25661" lon="6.73539">
        <ele>2440.9</ele>
        <time>2023-07-27T08:57:32.538Z</time>
      </trkpt>
      <trkpt lat="44.25661" lon="6.73533">
        <ele>2441.5</ele>
        <time>2023-07-27T08:57:44.947Z</time>
      </trkpt>
      <trkpt lat="44.25661" lon="6.73527">
        <ele>2442.1</ele>
        <time>2023-07-27T08:57:57.356Z</time>
      </trkpt>
      <trkpt lat="44.25658" lon="6.73521">
        <ele>2443.9</ele>
        <time>2023-07-27T08:58:31.616Z</time>
      </trkpt>
      <trkpt lat="44.25656" lon="6.73515">
        <ele>2445.4</ele>
        <time>2023-07-27T08:58:59.318Z</time>
      </trkpt>
      <trkpt lat="44.25656" lon="6.73508">
        <ele>2446.2</ele>
        <time>2023-07-27T08:59:14.905Z</time>
      </trkpt>
      <trkpt lat="44.25657" lon="6.73501">
        <ele>2446.7</ele>
        <time>2023-07-27T08:59:27.621Z</time>
      </trkpt>
      <trkpt lat="44.25659" lon="6.73495">
        <ele>2447.2</ele>
        <time>2023-07-27T08:59:39.731Z</time>
      </trkpt>
      <trkpt lat="44.25661" lon="6.7349">
        <ele>2447.7</ele>
        <time>2023-07-27T08:59:50.839Z</time>
      </trkpt>
      <trkpt lat="44.25665" lon="6.73485">
        <ele>2447.4</ele>
        <time>2023-07-27T08:59:59.322Z</time>
      </trkpt>
      <trkpt lat="44.25668" lon="6.73481">
        <ele>2447.5</ele>
        <time>2023-07-27T09:00:07.399Z</time>
      </trkpt>
      <trkpt lat="44.25674" lon="6.73472">
        <ele>2448.5</ele>
        <time>2023-07-27T09:00:30.548Z</time>
      </trkpt>
      <trkpt lat="44.25677" lon="6.73467">
        <ele>2449</ele>
        <time>2023-07-27T09:00:42.549Z</time>
      </trkpt>
      <trkpt lat="44.25681" lon="6.73462">
        <ele>2449.3</ele>
        <time>2023-07-27T09:00:54.134Z</time>
      </trkpt>
      <trkpt lat="44.25682" lon="6.73455">
        <ele>2450.8</ele>
        <time>2023-07-27T09:01:21.270Z</time>
      </trkpt>
      <trkpt lat="44.25683" lon="6.73448">
        <ele>2452.2</ele>
        <time>2023-07-27T09:01:46.286Z</time>
      </trkpt>
      <trkpt lat="44.25687" lon="6.73442">
        <ele>2452.9</ele>
        <time>2023-07-27T09:02:02.034Z</time>
      </trkpt>
      <trkpt lat="44.25688" lon="6.73437">
        <ele>2453.9</ele>
        <time>2023-07-27T09:02:19.862Z</time>
      </trkpt>
      <trkpt lat="44.2569" lon="6.73432">
        <ele>2454.6</ele>
        <time>2023-07-27T09:02:33.160Z</time>
      </trkpt>
      <trkpt lat="44.25696" lon="6.73423">
        <ele>2455.3</ele>
        <time>2023-07-27T09:02:53.726Z</time>
      </trkpt>
      <trkpt lat="44.25698" lon="6.73418">
        <ele>2456</ele>
        <time>2023-07-27T09:03:07.023Z</time>
      </trkpt>
      <trkpt lat="44.257" lon="6.73412">
        <ele>2457.1</ele>
        <time>2023-07-27T09:03:26.569Z</time>
      </trkpt>
      <trkpt lat="44.25703" lon="6.73401">
        <ele>2459.3</ele>
        <time>2023-07-27T09:04:05.681Z</time>
      </trkpt>
      <trkpt lat="44.25706" lon="6.73396">
        <ele>2459.8</ele>
        <time>2023-07-27T09:04:17.682Z</time>
      </trkpt>
      <trkpt lat="44.25709" lon="6.73391">
        <ele>2460.3</ele>
        <time>2023-07-27T09:04:29.683Z</time>
      </trkpt>
      <trkpt lat="44.25712" lon="6.73385">
        <ele>2461.4</ele>
        <time>2023-07-27T09:04:49.462Z</time>
      </trkpt>
      <trkpt lat="44.25715" lon="6.7338">
        <ele>2462.2</ele>
        <time>2023-07-27T09:05:04.641Z</time>
      </trkpt>
      <trkpt lat="44.25721" lon="6.73373">
        <ele>2462.6</ele>
        <time>2023-07-27T09:05:21.252Z</time>
      </trkpt>
      <trkpt lat="44.25726" lon="6.73364">
        <ele>2464</ele>
        <time>2023-07-27T09:05:47.795Z</time>
      </trkpt>
      <trkpt lat="44.25729" lon="6.73358">
        <ele>2465.4</ele>
        <time>2023-07-27T09:06:12.736Z</time>
      </trkpt>
      <trkpt lat="44.25732" lon="6.73353">
        <ele>2466.6</ele>
        <time>2023-07-27T09:06:34.048Z</time>
      </trkpt>
      <trkpt lat="44.25733" lon="6.7335">
        <ele>2467.5</ele>
        <time>2023-07-27T09:06:51.976Z</time>
      </trkpt>
      <trkpt lat="44.25737" lon="6.73346">
        <ele>2468</ele>
        <time>2023-07-27T09:07:04.378Z</time>
      </trkpt>
      <trkpt lat="44.2574" lon="6.73342">
        <ele>2468.7</ele>
        <time>2023-07-27T09:07:17.729Z</time>
      </trkpt>
      <trkpt lat="44.25747" lon="6.73335">
        <ele>2469.3</ele>
        <time>2023-07-27T09:07:37.182Z</time>
      </trkpt>
      <trkpt lat="44.2575" lon="6.7333">
        <ele>2470.2</ele>
        <time>2023-07-27T09:07:53.661Z</time>
      </trkpt>
      <trkpt lat="44.25754" lon="6.73325">
        <ele>2470.8</ele>
        <time>2023-07-27T09:08:07.685Z</time>
      </trkpt>
      <trkpt lat="44.25757" lon="6.7332">
        <ele>2471.8</ele>
        <time>2023-07-27T09:08:25.609Z</time>
      </trkpt>
      <trkpt lat="44.2576" lon="6.73315">
        <ele>2472.7</ele>
        <time>2023-07-27T09:08:42.089Z</time>
      </trkpt>
      <trkpt lat="44.25764" lon="6.73305">
        <ele>2475.1</ele>
        <time>2023-07-27T09:09:25.480Z</time>
      </trkpt>
      <trkpt lat="44.25767" lon="6.733">
        <ele>2475.6</ele>
        <time>2023-07-27T09:09:37.480Z</time>
      </trkpt>
      <trkpt lat="44.25771" lon="6.73295">
        <ele>2475.7</ele>
        <time>2023-07-27T09:09:47.754Z</time>
      </trkpt>
      <trkpt lat="44.25775" lon="6.73292">
        <ele>2475.3</ele>
        <time>2023-07-27T09:09:54.928Z</time>
      </trkpt>
      <trkpt lat="44.25778" lon="6.73289">
        <ele>2475.1</ele>
        <time>2023-07-27T09:10:00.758Z</time>
      </trkpt>
      <trkpt lat="44.25779" lon="6.73282">
        <ele>2476.5</ele>
        <time>2023-07-27T09:10:25.773Z</time>
      </trkpt>
      <trkpt lat="44.2578" lon="6.73276">
        <ele>2477.5</ele>
        <time>2023-07-27T09:10:43.575Z</time>
      </trkpt>
      <trkpt lat="44.25777" lon="6.7327">
        <ele>2479.3</ele>
        <time>2023-07-27T09:11:17.835Z</time>
      </trkpt>
      <trkpt lat="44.25773" lon="6.73264">
        <ele>2481.3</ele>
        <time>2023-07-27T09:11:55.776Z</time>
      </trkpt>
      <trkpt lat="44.25765" lon="6.73259">
        <ele>2483.9</ele>
        <time>2023-07-27T09:12:42.932Z</time>
      </trkpt>
      <trkpt lat="44.25762" lon="6.73248">
        <ele>2485.8</ele>
        <time>2023-07-27T09:13:16.773Z</time>
      </trkpt>
      <trkpt lat="44.25766" lon="6.73244">
        <ele>2486.1</ele>
        <time>2023-07-27T09:13:27.570Z</time>
      </trkpt>
      <trkpt lat="44.25769" lon="6.73239">
        <ele>2486.6</ele>
        <time>2023-07-27T09:13:39.571Z</time>
      </trkpt>
      <trkpt lat="44.25773" lon="6.73235">
        <ele>2487</ele>
        <time>2023-07-27T09:13:51.132Z</time>
      </trkpt>
      <trkpt lat="44.25777" lon="6.73231">
        <ele>2487.6</ele>
        <time>2023-07-27T09:14:04.459Z</time>
      </trkpt>
      <trkpt lat="44.25784" lon="6.73224">
        <ele>2489.5</ele>
        <time>2023-07-27T09:14:38.377Z</time>
      </trkpt>
      <trkpt lat="44.25781" lon="6.73217">
        <ele>2491.1</ele>
        <time>2023-07-27T09:15:06.966Z</time>
      </trkpt>
      <trkpt lat="44.25777" lon="6.73211">
        <ele>2492.5</ele>
        <time>2023-07-27T09:15:31.811Z</time>
      </trkpt>
      <trkpt lat="44.25773" lon="6.73207">
        <ele>2493.4</ele>
        <time>2023-07-27T09:15:48.526Z</time>
      </trkpt>
      <trkpt lat="44.25769" lon="6.73204">
        <ele>2494.2</ele>
        <time>2023-07-27T09:16:03.559Z</time>
      </trkpt>
      <trkpt lat="44.25765" lon="6.732">
        <ele>2495</ele>
        <time>2023-07-27T09:16:19.030Z</time>
      </trkpt>
      <trkpt lat="44.25761" lon="6.73196">
        <ele>2495.7</ele>
        <time>2023-07-27T09:16:33.377Z</time>
      </trkpt>
      <trkpt lat="44.25753" lon="6.73191">
        <ele>2496.5</ele>
        <time>2023-07-27T09:16:54.690Z</time>
      </trkpt>
      <trkpt lat="44.25748" lon="6.73192">
        <ele>2496.2</ele>
        <time>2023-07-27T09:17:02.670Z</time>
      </trkpt>
      <trkpt lat="44.25743" lon="6.73193">
        <ele>2495.7</ele>
        <time>2023-07-27T09:17:10.651Z</time>
      </trkpt>
      <trkpt lat="44.25738" lon="6.73194">
        <ele>2495.2</ele>
        <time>2023-07-27T09:17:18.631Z</time>
      </trkpt>
      <trkpt lat="44.25733" lon="6.73194">
        <ele>2494.8</ele>
        <time>2023-07-27T09:17:26.531Z</time>
      </trkpt>
      <trkpt lat="44.2573" lon="6.73199">
        <ele>2494.4</ele>
        <time>2023-07-27T09:17:33.912Z</time>
      </trkpt>
      <trkpt lat="44.25726" lon="6.73204">
        <ele>2494.1</ele>
        <time>2023-07-27T09:17:42.395Z</time>
      </trkpt>
      <trkpt lat="44.2572" lon="6.7321">
        <ele>2494.1</ele>
        <time>2023-07-27T09:17:55.721Z</time>
      </trkpt>
      <trkpt lat="44.25719" lon="6.73207">
        <ele>2494.1</ele>
        <time>2023-07-27T09:18:00.001Z</time>
      </trkpt>
      <trkpt lat="44.25723" lon="6.73204">
        <ele>2494</ele>
        <time>2023-07-27T09:18:07.669Z</time>
      </trkpt>
      <trkpt lat="44.25728" lon="6.73201">
        <ele>2494.2</ele>
        <time>2023-07-27T09:18:18.702Z</time>
      </trkpt>
      <trkpt lat="44.25734" lon="6.73193">
        <ele>2495</ele>
        <time>2023-07-27T09:18:39.239Z</time>
      </trkpt>
      <trkpt lat="44.25738" lon="6.73189">
        <ele>2495.7</ele>
        <time>2023-07-27T09:18:53.585Z</time>
      </trkpt>
      <trkpt lat="44.25741" lon="6.73184">
        <ele>2496.5</ele>
        <time>2023-07-27T09:19:08.763Z</time>
      </trkpt>
      <trkpt lat="44.25741" lon="6.73178">
        <ele>2497.1</ele>
        <time>2023-07-27T09:19:21.172Z</time>
      </trkpt>
      <trkpt lat="44.2574" lon="6.73171">
        <ele>2497.7</ele>
        <time>2023-07-27T09:19:34.794Z</time>
      </trkpt>
      <trkpt lat="44.25739" lon="6.73164">
        <ele>2498.3</ele>
        <time>2023-07-27T09:19:48.417Z</time>
      </trkpt>
      <trkpt lat="44.25737" lon="6.73157">
        <ele>2498.7</ele>
        <time>2023-07-27T09:20:00.795Z</time>
      </trkpt>
      <trkpt lat="44.25736" lon="6.7315">
        <ele>2499.3</ele>
        <time>2023-07-27T09:20:14.417Z</time>
      </trkpt>
      <trkpt lat="44.25734" lon="6.73144">
        <ele>2499.7</ele>
        <time>2023-07-27T09:20:25.673Z</time>
      </trkpt>
      <trkpt lat="44.25732" lon="6.73138">
        <ele>2500.2</ele>
        <time>2023-07-27T09:20:37.783Z</time>
      </trkpt>
      <trkpt lat="44.2573" lon="6.73132">
        <ele>2501.3</ele>
        <time>2023-07-27T09:20:57.330Z</time>
      </trkpt>
      <trkpt lat="44.25726" lon="6.73121">
        <ele>2503.2</ele>
        <time>2023-07-27T09:21:31.364Z</time>
      </trkpt>
      <trkpt lat="44.25724" lon="6.73116">
        <ele>2504.1</ele>
        <time>2023-07-27T09:21:47.441Z</time>
      </trkpt>
      <trkpt lat="44.25721" lon="6.73111">
        <ele>2504.7</ele>
        <time>2023-07-27T09:22:00.394Z</time>
      </trkpt>
      <trkpt lat="44.25718" lon="6.73105">
        <ele>2504.9</ele>
        <time>2023-07-27T09:22:11.067Z</time>
      </trkpt>
      <trkpt lat="44.25716" lon="6.73099">
        <ele>2505.5</ele>
        <time>2023-07-27T09:22:24.121Z</time>
      </trkpt>
      <trkpt lat="44.25712" lon="6.7309">
        <ele>2506.3</ele>
        <time>2023-07-27T09:22:43.501Z</time>
      </trkpt>
      <trkpt lat="44.25708" lon="6.73086">
        <ele>2506.4</ele>
        <time>2023-07-27T09:22:52.967Z</time>
      </trkpt>
      <trkpt lat="44.25703" lon="6.73081">
        <ele>2506.6</ele>
        <time>2023-07-27T09:23:05.266Z</time>
      </trkpt>
      <trkpt lat="44.25698" lon="6.73074">
        <ele>2507.2</ele>
        <time>2023-07-27T09:23:22.101Z</time>
      </trkpt>
      <trkpt lat="44.25694" lon="6.73068">
        <ele>2508.2</ele>
        <time>2023-07-27T09:23:41.110Z</time>
      </trkpt>
      <trkpt lat="44.2569" lon="6.73063">
        <ele>2508.6</ele>
        <time>2023-07-27T09:23:53.439Z</time>
      </trkpt>
      <trkpt lat="44.25687" lon="6.73058">
        <ele>2509.3</ele>
        <time>2023-07-27T09:24:07.446Z</time>
      </trkpt>
      <trkpt lat="44.25684" lon="6.73053">
        <ele>2510.1</ele>
        <time>2023-07-27T09:24:22.624Z</time>
      </trkpt>
      <trkpt lat="44.25679" lon="6.73051">
        <ele>2509.9</ele>
        <time>2023-07-27T09:24:30.991Z</time>
      </trkpt>
      <trkpt lat="44.25673" lon="6.73042">
        <ele>2511.5</ele>
        <time>2023-07-27T09:25:00.767Z</time>
      </trkpt>
      <trkpt lat="44.25668" lon="6.73034">
        <ele>2513.3</ele>
        <time>2023-07-27T09:25:32.718Z</time>
      </trkpt>
      <trkpt lat="44.25666" lon="6.73028">
        <ele>2514.7</ele>
        <time>2023-07-27T09:25:58.084Z</time>
      </trkpt>
      <trkpt lat="44.25665" lon="6.73022">
        <ele>2515.9</ele>
        <time>2023-07-27T09:26:19.507Z</time>
      </trkpt>
      <trkpt lat="44.2566" lon="6.73017">
        <ele>2515.5</ele>
        <time>2023-07-27T09:26:29.224Z</time>
      </trkpt>
      <trkpt lat="44.25656" lon="6.73012">
        <ele>2515.6</ele>
        <time>2023-07-27T09:26:39.498Z</time>
      </trkpt>
      <trkpt lat="44.25652" lon="6.73004">
        <ele>2516.6</ele>
        <time>2023-07-27T09:26:59.936Z</time>
      </trkpt>
      <trkpt lat="44.25648" lon="6.72997">
        <ele>2517.2</ele>
        <time>2023-07-27T09:27:15.655Z</time>
      </trkpt>
      <trkpt lat="44.25645" lon="6.7299">
        <ele>2517.7</ele>
        <time>2023-07-27T09:27:29.586Z</time>
      </trkpt>
      <trkpt lat="44.25643" lon="6.72984">
        <ele>2518.4</ele>
        <time>2023-07-27T09:27:43.685Z</time>
      </trkpt>
      <trkpt lat="44.25643" lon="6.72974">
        <ele>2520.4</ele>
        <time>2023-07-27T09:28:19.525Z</time>
      </trkpt>
      <trkpt lat="44.25644" lon="6.72967">
        <ele>2521.5</ele>
        <time>2023-07-27T09:28:39.227Z</time>
      </trkpt>
      <trkpt lat="44.25646" lon="6.72959">
        <ele>2522.7</ele>
        <time>2023-07-27T09:29:01.063Z</time>
      </trkpt>
      <trkpt lat="44.25647" lon="6.72953">
        <ele>2523.4</ele>
        <time>2023-07-27T09:29:14.733Z</time>
      </trkpt>
      <trkpt lat="44.25649" lon="6.72946">
        <ele>2524.2</ele>
        <time>2023-07-27T09:29:30.821Z</time>
      </trkpt>
      <trkpt lat="44.25652" lon="6.7294">
        <ele>2524.9</ele>
        <time>2023-07-27T09:29:45.624Z</time>
      </trkpt>
      <trkpt lat="44.25655" lon="6.72934">
        <ele>2525.5</ele>
        <time>2023-07-27T09:29:59.446Z</time>
      </trkpt>
      <trkpt lat="44.25658" lon="6.72928">
        <ele>2526.1</ele>
        <time>2023-07-27T09:30:13.269Z</time>
      </trkpt>
      <trkpt lat="44.2566" lon="6.72922">
        <ele>2526.6</ele>
        <time>2023-07-27T09:30:25.379Z</time>
      </trkpt>
      <trkpt lat="44.25662" lon="6.72915">
        <ele>2527.3</ele>
        <time>2023-07-27T09:30:40.413Z</time>
      </trkpt>
      <trkpt lat="44.25664" lon="6.72909">
        <ele>2528.2</ele>
        <time>2023-07-27T09:30:56.954Z</time>
      </trkpt>
      <trkpt lat="44.25667" lon="6.72903">
        <ele>2529</ele>
        <time>2023-07-27T09:31:12.832Z</time>
      </trkpt>
      <trkpt lat="44.25669" lon="6.72897">
        <ele>2529.7</ele>
        <time>2023-07-27T09:31:26.931Z</time>
      </trkpt>
      <trkpt lat="44.25673" lon="6.72886">
        <ele>2531.1</ele>
        <time>2023-07-27T09:31:54.287Z</time>
      </trkpt>
      <trkpt lat="44.25675" lon="6.7288">
        <ele>2532</ele>
        <time>2023-07-27T09:32:10.828Z</time>
      </trkpt>
      <trkpt lat="44.25677" lon="6.72874">
        <ele>2532.9</ele>
        <time>2023-07-27T09:32:27.369Z</time>
      </trkpt>
      <trkpt lat="44.25681" lon="6.72869">
        <ele>2533.2</ele>
        <time>2023-07-27T09:32:38.954Z</time>
      </trkpt>
      <trkpt lat="44.25684" lon="6.72864">
        <ele>2533.5</ele>
        <time>2023-07-27T09:32:49.317Z</time>
      </trkpt>
      <trkpt lat="44.2569" lon="6.72856">
        <ele>2533.1</ele>
        <time>2023-07-27T09:33:02.425Z</time>
      </trkpt>
      <trkpt lat="44.25691" lon="6.72849">
        <ele>2533.3</ele>
        <time>2023-07-27T09:33:12.869Z</time>
      </trkpt>
      <trkpt lat="44.25692" lon="6.72842">
        <ele>2533.4</ele>
        <time>2023-07-27T09:33:22.681Z</time>
      </trkpt>
      <trkpt lat="44.25687" lon="6.72835">
        <ele>2535.3</ele>
        <time>2023-07-27T09:33:56.546Z</time>
      </trkpt>
      <trkpt lat="44.25683" lon="6.72828">
        <ele>2537.3</ele>
        <time>2023-07-27T09:34:33.313Z</time>
      </trkpt>
      <trkpt lat="44.25682" lon="6.72822">
        <ele>2538.3</ele>
        <time>2023-07-27T09:34:51.115Z</time>
      </trkpt>
      <trkpt lat="44.2568" lon="6.72816">
        <ele>2539.5</ele>
        <time>2023-07-27T09:35:12.412Z</time>
      </trkpt>
      <trkpt lat="44.2568" lon="6.72809">
        <ele>2540.3</ele>
        <time>2023-07-27T09:35:28.000Z</time>
      </trkpt>
      <trkpt lat="44.2568" lon="6.72802">
        <ele>2541.1</ele>
        <time>2023-07-27T09:35:43.587Z</time>
      </trkpt>
      <trkpt lat="44.25681" lon="6.72796">
        <ele>2541.6</ele>
        <time>2023-07-27T09:35:55.176Z</time>
      </trkpt>
      <trkpt lat="44.25682" lon="6.72789">
        <ele>2542.3</ele>
        <time>2023-07-27T09:36:09.794Z</time>
      </trkpt>
      <trkpt lat="44.25683" lon="6.72781">
        <ele>2543.2</ele>
        <time>2023-07-27T09:36:27.553Z</time>
      </trkpt>
      <trkpt lat="44.25684" lon="6.72773">
        <ele>2543.9</ele>
        <time>2023-07-27T09:36:43.218Z</time>
      </trkpt>
      <trkpt lat="44.25685" lon="6.72761">
        <ele>2544.8</ele>
        <time>2023-07-27T09:37:05.211Z</time>
      </trkpt>
      <trkpt lat="44.25688" lon="6.72751">
        <ele>2545.4</ele>
        <time>2023-07-27T09:37:23.210Z</time>
      </trkpt>
      <trkpt lat="44.25689" lon="6.72743">
        <ele>2546.3</ele>
        <time>2023-07-27T09:37:40.969Z</time>
      </trkpt>
      <trkpt lat="44.25691" lon="6.72736">
        <ele>2547.1</ele>
        <time>2023-07-27T09:37:57.056Z</time>
      </trkpt>
      <trkpt lat="44.2569" lon="6.72729">
        <ele>2548.1</ele>
        <time>2023-07-27T09:38:15.299Z</time>
      </trkpt>
      <trkpt lat="44.25688" lon="6.72721">
        <ele>2549.3</ele>
        <time>2023-07-27T09:38:37.134Z</time>
      </trkpt>
      <trkpt lat="44.25688" lon="6.72711">
        <ele>2551.6</ele>
        <time>2023-07-27T09:39:19.817Z</time>
      </trkpt>
      <trkpt lat="44.25683" lon="6.72706">
        <ele>2552.6</ele>
        <time>2023-07-27T09:39:39.156Z</time>
      </trkpt>
      <trkpt lat="44.25678" lon="6.72702">
        <ele>2553.2</ele>
        <time>2023-07-27T09:39:53.809Z</time>
      </trkpt>
      <trkpt lat="44.25676" lon="6.72695">
        <ele>2554.6</ele>
        <time>2023-07-27T09:40:18.688Z</time>
      </trkpt>
      <trkpt lat="44.25681" lon="6.72693">
        <ele>2555.4</ele>
        <time>2023-07-27T09:40:34.514Z</time>
      </trkpt>
      <trkpt lat="44.25687" lon="6.72691">
        <ele>2556.3</ele>
        <time>2023-07-27T09:40:52.743Z</time>
      </trkpt>
      <trkpt lat="44.25691" lon="6.72687">
        <ele>2557.6</ele>
        <time>2023-07-27T09:41:15.878Z</time>
      </trkpt>
      <trkpt lat="44.25696" lon="6.72683">
        <ele>2559</ele>
        <time>2023-07-27T09:41:40.712Z</time>
      </trkpt>
      <trkpt lat="44.25698" lon="6.72674">
        <ele>2561.5</ele>
        <time>2023-07-27T09:42:29.925Z</time>
      </trkpt>
      <trkpt lat="44.25702" lon="6.72667">
        <ele>2563.7</ele>
        <time>2023-07-27T09:43:11.777Z</time>
      </trkpt>
      <trkpt lat="44.2571" lon="6.72662">
        <ele>2566</ele>
        <time>2023-07-27T09:43:52.684Z</time>
      </trkpt>
      <trkpt lat="44.25706" lon="6.72658">
        <ele>2566.6</ele>
        <time>2023-07-27T09:44:06.011Z</time>
      </trkpt>
      <trkpt lat="44.25702" lon="6.72654">
        <ele>2567.1</ele>
        <time>2023-07-27T09:44:18.412Z</time>
      </trkpt>
      <trkpt lat="44.25698" lon="6.72651">
        <ele>2567.4</ele>
        <time>2023-07-27T09:44:28.547Z</time>
      </trkpt>
      <trkpt lat="44.25694" lon="6.72647">
        <ele>2567.9</ele>
        <time>2023-07-27T09:44:40.949Z</time>
      </trkpt>
      <trkpt lat="44.2569" lon="6.72642">
        <ele>2568.7</ele>
        <time>2023-07-27T09:44:56.997Z</time>
      </trkpt>
      <trkpt lat="44.25687" lon="6.72637">
        <ele>2569.8</ele>
        <time>2023-07-27T09:45:16.528Z</time>
      </trkpt>
      <trkpt lat="44.2568" lon="6.72633">
        <ele>2570.2</ele>
        <time>2023-07-27T09:45:32.688Z</time>
      </trkpt>
      <trkpt lat="44.25676" lon="6.72628">
        <ele>2571.3</ele>
        <time>2023-07-27T09:45:52.555Z</time>
      </trkpt>
      <trkpt lat="44.25672" lon="6.72623">
        <ele>2572.3</ele>
        <time>2023-07-27T09:46:11.031Z</time>
      </trkpt>
      <trkpt lat="44.25668" lon="6.72615">
        <ele>2574.1</ele>
        <time>2023-07-27T09:46:43.004Z</time>
      </trkpt>
      <trkpt lat="44.25665" lon="6.72609">
        <ele>2575.3</ele>
        <time>2023-07-27T09:47:04.347Z</time>
      </trkpt>
      <trkpt lat="44.25663" lon="6.72603">
        <ele>2576.7</ele>
        <time>2023-07-27T09:47:29.713Z</time>
      </trkpt>
      <trkpt lat="44.25659" lon="6.72598">
        <ele>2577.5</ele>
        <time>2023-07-27T09:47:45.762Z</time>
      </trkpt>
      <trkpt lat="44.25655" lon="6.72594">
        <ele>2578.1</ele>
        <time>2023-07-27T09:47:59.088Z</time>
      </trkpt>
      <trkpt lat="44.25651" lon="6.7259">
        <ele>2578.7</ele>
        <time>2023-07-27T09:48:12.415Z</time>
      </trkpt>
      <trkpt lat="44.25647" lon="6.72585">
        <ele>2579.6</ele>
        <time>2023-07-27T09:48:29.621Z</time>
      </trkpt>
      <trkpt lat="44.25642" lon="6.72583">
        <ele>2579.6</ele>
        <time>2023-07-27T09:48:39.013Z</time>
      </trkpt>
      <trkpt lat="44.25636" lon="6.72581">
        <ele>2580.1</ele>
        <time>2023-07-27T09:48:53.497Z</time>
      </trkpt>
      <trkpt lat="44.25632" lon="6.72577">
        <ele>2582</ele>
        <time>2023-07-27T09:49:31.653Z</time>
      </trkpt>
      <trkpt lat="44.25628" lon="6.72574">
        <ele>2583.6</ele>
        <time>2023-07-27T09:50:02.440Z</time>
      </trkpt>
      <trkpt lat="44.25624" lon="6.72573">
        <ele>2584.2</ele>
        <time>2023-07-27T09:50:14.526Z</time>
      </trkpt>
      <trkpt lat="44.25619" lon="6.72572">
        <ele>2584.9</ele>
        <time>2023-07-27T09:50:29.057Z</time>
      </trkpt>
      <trkpt lat="44.25614" lon="6.72571">
        <ele>2585.6</ele>
        <time>2023-07-27T09:50:43.587Z</time>
      </trkpt>
      <trkpt lat="44.2561" lon="6.72571">
        <ele>2586.1</ele>
        <time>2023-07-27T09:50:54.541Z</time>
      </trkpt>
      <trkpt lat="44.25605" lon="6.7257">
        <ele>2588</ele>
        <time>2023-07-27T09:51:32.217Z</time>
      </trkpt>
      <trkpt lat="44.256" lon="6.7257">
        <ele>2589.4</ele>
        <time>2023-07-27T09:51:57.316Z</time>
      </trkpt>
      <trkpt lat="44.25593" lon="6.72571">
        <ele>2591</ele>
        <time>2023-07-27T09:52:25.791Z</time>
      </trkpt>
      <trkpt lat="44.25588" lon="6.72573">
        <ele>2591.5</ele>
        <time>2023-07-27T09:52:38.653Z</time>
      </trkpt>
      <trkpt lat="44.25583" lon="6.72573">
        <ele>2593</ele>
        <time>2023-07-27T09:53:05.934Z</time>
      </trkpt>
      <trkpt lat="44.25579" lon="6.72574">
        <ele>2594.6</ele>
        <time>2023-07-27T09:53:38.369Z</time>
      </trkpt>
      <trkpt lat="44.25571" lon="6.72578">
        <ele>2596.9</ele>
        <time>2023-07-27T09:54:19.404Z</time>
      </trkpt>
      <trkpt lat="44.25566" lon="6.7258">
        <ele>2598.7</ele>
        <time>2023-07-27T09:54:53.773Z</time>
      </trkpt>
      <trkpt lat="44.25564" lon="6.72572">
        <ele>2602.9</ele>
        <time>2023-07-27T09:55:51.306Z</time>
      </trkpt>
      <trkpt lat="44.25559" lon="6.7258">
        <ele>2602.4</ele>
        <time>2023-07-27T09:56:03.321Z</time>
      </trkpt>
      <trkpt lat="44.25556" lon="6.72586">
        <ele>2602.1</ele>
        <time>2023-07-27T09:56:11.601Z</time>
      </trkpt>
      <trkpt lat="44.25554" lon="6.72591">
        <ele>2602.1</ele>
        <time>2023-07-27T09:56:19.008Z</time>
      </trkpt>
      <trkpt lat="44.2555" lon="6.72594">
        <ele>2604.1</ele>
        <time>2023-07-27T09:57:01.583Z</time>
      </trkpt>
      <trkpt lat="44.25546" lon="6.72597">
        <ele>2606.1</ele>
        <time>2023-07-27T09:57:44.158Z</time>
      </trkpt>
      <trkpt lat="44.25545" lon="6.72591">
        <ele>2608.1</ele>
        <time>2023-07-27T09:58:25.986Z</time>
      </trkpt>
      <trkpt lat="44.25545" lon="6.72584">
        <ele>2609.7</ele>
        <time>2023-07-27T09:58:55.615Z</time>
      </trkpt>
      <trkpt lat="44.25545" lon="6.72577">
        <ele>2611.9</ele>
        <time>2023-07-27T09:59:42.386Z</time>
      </trkpt>
      <trkpt lat="44.25545" lon="6.7257">
        <ele>2614.3</ele>
        <time>2023-07-27T10:00:29.915Z</time>
      </trkpt>
      <trkpt lat="44.25548" lon="6.72564">
        <ele>2614.5</ele>
        <time>2023-07-27T10:00:40.588Z</time>
      </trkpt>
      <trkpt lat="44.2555" lon="6.72558">
        <ele>2615.4</ele>
        <time>2023-07-27T10:00:57.129Z</time>
      </trkpt>
      <trkpt lat="44.25552" lon="6.72549">
        <ele>2618.7</ele>
        <time>2023-07-27T10:02:01.112Z</time>
      </trkpt>
      <trkpt lat="44.25547" lon="6.72559">
        <ele>2616.8</ele>
        <time>2023-07-27T10:02:14.913Z</time>
      </trkpt>
      <trkpt lat="44.25543" lon="6.72563">
        <ele>2617.8</ele>
        <time>2023-07-27T10:02:33.002Z</time>
      </trkpt>
      <trkpt lat="44.2554" lon="6.72568">
        <ele>2618</ele>
        <time>2023-07-27T10:02:42.660Z</time>
      </trkpt>
      <trkpt lat="44.25537" lon="6.72573">
        <ele>2618.2</ele>
        <time>2023-07-27T10:02:52.319Z</time>
      </trkpt>
      <trkpt lat="44.25533" lon="6.72578">
        <ele>2619.2</ele>
        <time>2023-07-27T10:03:10.795Z</time>
      </trkpt>
      <trkpt lat="44.25529" lon="6.72581">
        <ele>2620.9</ele>
        <time>2023-07-27T10:03:44.430Z</time>
      </trkpt>
      <trkpt lat="44.25526" lon="6.72585">
        <ele>2622.2</ele>
        <time>2023-07-27T10:04:08.365Z</time>
      </trkpt>
      <trkpt lat="44.25528" lon="6.72583">
        <ele>2621</ele>
        <time>2023-07-27T10:04:12.251Z</time>
      </trkpt>
      <trkpt lat="44.25524" lon="6.72585">
        <ele>2624.4</ele>
        <time>2023-07-27T10:04:52.529Z</time>
      </trkpt>
      <trkpt lat="44.25519" lon="6.72586">
        <ele>2627.9</ele>
        <time>2023-07-27T10:05:40.413Z</time>
      </trkpt>
      <trkpt lat="44.25518" lon="6.72576">
        <ele>2629.9</ele>
        <time>2023-07-27T10:06:16.199Z</time>
      </trkpt>
      <trkpt lat="44.25513" lon="6.72577">
        <ele>2633.4</ele>
        <time>2023-07-27T10:07:04.082Z</time>
      </trkpt>
      <trkpt lat="44.2551" lon="6.72582">
        <ele>2635.7</ele>
        <time>2023-07-27T10:07:48.370Z</time>
      </trkpt>
      <trkpt lat="44.25506" lon="6.72586">
        <ele>2638.9</ele>
        <time>2023-07-27T10:08:35.012Z</time>
      </trkpt>
      <trkpt lat="44.25504" lon="6.72579">
        <ele>2640.1</ele>
        <time>2023-07-27T10:08:56.416Z</time>
      </trkpt>
      <trkpt lat="44.25506" lon="6.72571">
        <ele>2637.7</ele>
        <time>2023-07-27T10:09:06.005Z</time>
      </trkpt>
      <trkpt lat="44.25505" lon="6.72562">
        <ele>2637.2</ele>
        <time>2023-07-27T10:09:16.311Z</time>
      </trkpt>
      <trkpt lat="44.25509" lon="6.72558">
        <ele>2635.2</ele>
        <time>2023-07-27T10:09:24.085Z</time>
      </trkpt>
      <trkpt lat="44.25512" lon="6.72553">
        <ele>2633.9</ele>
        <time>2023-07-27T10:09:31.466Z</time>
      </trkpt>
      <trkpt lat="44.25515" lon="6.72543">
        <ele>2632.7</ele>
        <time>2023-07-27T10:09:43.736Z</time>
      </trkpt>
      <trkpt lat="44.25517" lon="6.72536">
        <ele>2632.6</ele>
        <time>2023-07-27T10:09:52.948Z</time>
      </trkpt>
      <trkpt lat="44.25523" lon="6.72533">
        <ele>2633.3</ele>
        <time>2023-07-27T10:10:09.483Z</time>
      </trkpt>
      <trkpt lat="44.25528" lon="6.7253">
        <ele>2634.5</ele>
        <time>2023-07-27T10:10:30.906Z</time>
      </trkpt>
      <trkpt lat="44.25531" lon="6.72527">
        <ele>2634.4</ele>
        <time>2023-07-27T10:10:37.045Z</time>
      </trkpt>
      <trkpt lat="44.25535" lon="6.72522">
        <ele>2634.4</ele>
        <time>2023-07-27T10:10:46.739Z</time>
      </trkpt>
      <trkpt lat="44.25532" lon="6.72527">
        <ele>2634.3</ele>
        <time>2023-07-27T10:10:54.644Z</time>
      </trkpt>
      <trkpt lat="44.25527" lon="6.7253">
        <ele>2634.4</ele>
        <time>2023-07-27T10:11:05.049Z</time>
      </trkpt>
      <trkpt lat="44.25522" lon="6.72533">
        <ele>2633.2</ele>
        <time>2023-07-27T10:11:13.648Z</time>
      </trkpt>
      <trkpt lat="44.2552" lon="6.72535">
        <ele>2632.9</ele>
        <time>2023-07-27T10:11:17.535Z</time>
      </trkpt>
      <trkpt lat="44.25518" lon="6.72536">
        <ele>2632.7</ele>
        <time>2023-07-27T10:11:20.891Z</time>
      </trkpt>
      <trkpt lat="44.25513" lon="6.72542">
        <ele>2632.8</ele>
        <time>2023-07-27T10:11:33.371Z</time>
      </trkpt>
      <trkpt lat="44.2551" lon="6.72547">
        <ele>2633.7</ele>
        <time>2023-07-27T10:11:49.850Z</time>
      </trkpt>
      <trkpt lat="44.25507" lon="6.72552">
        <ele>2635.1</ele>
        <time>2023-07-27T10:12:15.305Z</time>
      </trkpt>
      <trkpt lat="44.25502" lon="6.72559">
        <ele>2638</ele>
        <time>2023-07-27T10:13:15.206Z</time>
      </trkpt>
      <trkpt lat="44.25499" lon="6.72566">
        <ele>2640.2</ele>
        <time>2023-07-27T10:13:58.852Z</time>
      </trkpt>
      <trkpt lat="44.25495" lon="6.72571">
        <ele>2641.4</ele>
        <time>2023-07-27T10:14:20.243Z</time>
      </trkpt>
      <trkpt lat="44.2549" lon="6.72575">
        <ele>2642.8</ele>
        <time>2023-07-27T10:14:45.077Z</time>
      </trkpt>
      <trkpt lat="44.25485" lon="6.72579">
        <ele>2644.6</ele>
        <time>2023-07-27T10:15:18.185Z</time>
      </trkpt>
      <trkpt lat="44.2548" lon="6.7258">
        <ele>2645.5</ele>
        <time>2023-07-27T10:15:35.035Z</time>
      </trkpt>
      <trkpt lat="44.25474" lon="6.72582">
        <ele>2647.1</ele>
        <time>2023-07-27T10:16:03.468Z</time>
      </trkpt>
      <trkpt lat="44.25469" lon="6.72583">
        <ele>2647.5</ele>
        <time>2023-07-27T10:16:15.252Z</time>
      </trkpt>
      <trkpt lat="44.25464" lon="6.72583">
        <ele>2646.9</ele>
        <time>2023-07-27T10:16:23.152Z</time>
      </trkpt>
      <trkpt lat="44.25459" lon="6.72584">
        <ele>2646.9</ele>
        <time>2023-07-27T10:16:32.273Z</time>
      </trkpt>
      <trkpt lat="44.25455" lon="6.72585">
        <ele>2647</ele>
        <time>2023-07-27T10:16:40.197Z</time>
      </trkpt>
      <trkpt lat="44.2545" lon="6.72586">
        <ele>2647.1</ele>
        <time>2023-07-27T10:16:49.898Z</time>
      </trkpt>
      <trkpt lat="44.25445" lon="6.72587">
        <ele>2647.3</ele>
        <time>2023-07-27T10:17:00.233Z</time>
      </trkpt>
      <trkpt lat="44.25437" lon="6.72591">
        <ele>2649.9</ele>
        <time>2023-07-27T10:17:47.768Z</time>
      </trkpt>
      <trkpt lat="44.25432" lon="6.72591">
        <ele>2650</ele>
        <time>2023-07-27T10:17:57.377Z</time>
      </trkpt>
      <trkpt lat="44.25427" lon="6.72592">
        <ele>2650.7</ele>
        <time>2023-07-27T10:18:11.908Z</time>
      </trkpt>
      <trkpt lat="44.25422" lon="6.72592">
        <ele>2650.9</ele>
        <time>2023-07-27T10:18:22.151Z</time>
      </trkpt>
      <trkpt lat="44.25418" lon="6.72591">
        <ele>2650.4</ele>
        <time>2023-07-27T10:18:28.571Z</time>
      </trkpt>
      <trkpt lat="44.25413" lon="6.72591">
        <ele>2650.8</ele>
        <time>2023-07-27T10:18:40.269Z</time>
      </trkpt>
      <trkpt lat="44.25408" lon="6.72591">
        <ele>2651.4</ele>
        <time>2023-07-27T10:18:53.718Z</time>
      </trkpt>
      <trkpt lat="44.25404" lon="6.72592">
        <ele>2652.4</ele>
        <time>2023-07-27T10:19:11.455Z</time>
      </trkpt>
      <trkpt lat="44.25399" lon="6.72592">
        <ele>2652.9</ele>
        <time>2023-07-27T10:19:23.987Z</time>
      </trkpt>
      <trkpt lat="44.25394" lon="6.72593">
        <ele>2654</ele>
        <time>2023-07-27T10:19:43.657Z</time>
      </trkpt>
      <trkpt lat="44.2539" lon="6.72593">
        <ele>2654.4</ele>
        <time>2023-07-27T10:19:53.682Z</time>
      </trkpt>
      <trkpt lat="44.25385" lon="6.72591">
        <ele>2654.4</ele>
        <time>2023-07-27T10:20:03.074Z</time>
      </trkpt>
      <trkpt lat="44.25381" lon="6.72588">
        <ele>2653.9</ele>
        <time>2023-07-27T10:20:10.248Z</time>
      </trkpt>
      <trkpt lat="44.25377" lon="6.72585">
        <ele>2653.3</ele>
        <time>2023-07-27T10:20:17.422Z</time>
      </trkpt>
      <trkpt lat="44.25373" lon="6.72581">
        <ele>2652.3</ele>
        <time>2023-07-27T10:20:25.196Z</time>
      </trkpt>
      <trkpt lat="44.25366" lon="6.72576">
        <ele>2651.5</ele>
        <time>2023-07-27T10:20:37.619Z</time>
      </trkpt>
      <trkpt lat="44.25361" lon="6.72573">
        <ele>2651.2</ele>
        <time>2023-07-27T10:20:46.218Z</time>
      </trkpt>
      <trkpt lat="44.25355" lon="6.72569">
        <ele>2650.6</ele>
        <time>2023-07-27T10:20:56.723Z</time>
      </trkpt>
      <trkpt lat="44.25348" lon="6.72567">
        <ele>2651.2</ele>
        <time>2023-07-27T10:21:13.667Z</time>
      </trkpt>
      <trkpt lat="44.25342" lon="6.72567">
        <ele>2652.5</ele>
        <time>2023-07-27T10:21:36.928Z</time>
      </trkpt>
      <trkpt lat="44.25337" lon="6.72565">
        <ele>2652.6</ele>
        <time>2023-07-27T10:21:46.900Z</time>
      </trkpt>
      <trkpt lat="44.25332" lon="6.72563">
        <ele>2652.8</ele>
        <time>2023-07-27T10:21:57.502Z</time>
      </trkpt>
      <trkpt lat="44.25326" lon="6.72558">
        <ele>2651.7</ele>
        <time>2023-07-27T10:22:08.542Z</time>
      </trkpt>
      <trkpt lat="44.25322" lon="6.72556">
        <ele>2651.8</ele>
        <time>2023-07-27T10:22:16.800Z</time>
      </trkpt>
      <trkpt lat="44.25317" lon="6.72554">
        <ele>2651.9</ele>
        <time>2023-07-27T10:22:26.771Z</time>
      </trkpt>
      <trkpt lat="44.25313" lon="6.72552">
        <ele>2651.9</ele>
        <time>2023-07-27T10:22:34.443Z</time>
      </trkpt>
      <trkpt lat="44.25308" lon="6.7255">
        <ele>2652.1</ele>
        <time>2023-07-27T10:22:45.046Z</time>
      </trkpt>
      <trkpt lat="44.25304" lon="6.72549">
        <ele>2652.4</ele>
        <time>2023-07-27T10:22:54.356Z</time>
      </trkpt>
      <trkpt lat="44.25298" lon="6.72547">
        <ele>2652.4</ele>
        <time>2023-07-27T10:23:05.494Z</time>
      </trkpt>
      <trkpt lat="44.2529" lon="6.72544">
        <ele>2652.2</ele>
        <time>2023-07-27T10:23:19.396Z</time>
      </trkpt>
      <trkpt lat="44.25285" lon="6.72542">
        <ele>2652.1</ele>
        <time>2023-07-27T10:23:28.254Z</time>
      </trkpt>
      <trkpt lat="44.25281" lon="6.7254">
        <ele>2651.8</ele>
        <time>2023-07-27T10:23:34.967Z</time>
      </trkpt>
      <trkpt lat="44.25274" lon="6.72541">
        <ele>2653.4</ele>
        <time>2023-07-27T10:24:03.442Z</time>
      </trkpt>
      <trkpt lat="44.2527" lon="6.72539">
        <ele>2653.2</ele>
        <time>2023-07-27T10:24:10.155Z</time>
      </trkpt>
      <trkpt lat="44.25265" lon="6.72539">
        <ele>2654.1</ele>
        <time>2023-07-27T10:24:26.952Z</time>
      </trkpt>
      <trkpt lat="44.2526" lon="6.72536">
        <ele>2653.8</ele>
        <time>2023-07-27T10:24:35.550Z</time>
      </trkpt>
      <trkpt lat="44.25256" lon="6.72533">
        <ele>2653.2</ele>
        <time>2023-07-27T10:24:42.724Z</time>
      </trkpt>
      <trkpt lat="44.25251" lon="6.72531">
        <ele>2653.2</ele>
        <time>2023-07-27T10:24:52.116Z</time>
      </trkpt>
      <trkpt lat="44.25247" lon="6.72526">
        <ele>2652.3</ele>
        <time>2023-07-27T10:25:00.599Z</time>
      </trkpt>
      <trkpt lat="44.25242" lon="6.72521">
        <ele>2652</ele>
        <time>2023-07-27T10:25:10.316Z</time>
      </trkpt>
      <trkpt lat="44.25238" lon="6.72518">
        <ele>2652.1</ele>
        <time>2023-07-27T10:25:19.099Z</time>
      </trkpt>
      <trkpt lat="44.25234" lon="6.72514">
        <ele>2651.8</ele>
        <time>2023-07-27T10:25:26.873Z</time>
      </trkpt>
      <trkpt lat="44.25228" lon="6.72506">
        <ele>2650.5</ele>
        <time>2023-07-27T10:25:39.981Z</time>
      </trkpt>
      <trkpt lat="44.25224" lon="6.72502">
        <ele>2650.2</ele>
        <time>2023-07-27T10:25:47.755Z</time>
      </trkpt>
      <trkpt lat="44.2522" lon="6.72497">
        <ele>2649.8</ele>
        <time>2023-07-27T10:25:56.238Z</time>
      </trkpt>
      <trkpt lat="44.25215" lon="6.72493">
        <ele>2650.3</ele>
        <time>2023-07-27T10:26:10.035Z</time>
      </trkpt>
      <trkpt lat="44.2521" lon="6.72489">
        <ele>2650.7</ele>
        <time>2023-07-27T10:26:23.043Z</time>
      </trkpt>
      <trkpt lat="44.25206" lon="6.72485">
        <ele>2650.7</ele>
        <time>2023-07-27T10:26:31.927Z</time>
      </trkpt>
      <trkpt lat="44.25202" lon="6.7248">
        <ele>2650.3</ele>
        <time>2023-07-27T10:26:40.410Z</time>
      </trkpt>
      <trkpt lat="44.25198" lon="6.72476">
        <ele>2650.2</ele>
        <time>2023-07-27T10:26:48.763Z</time>
      </trkpt>
      <trkpt lat="44.25194" lon="6.72472">
        <ele>2650</ele>
        <time>2023-07-27T10:26:56.626Z</time>
      </trkpt>
      <trkpt lat="44.25189" lon="6.7247">
        <ele>2650.7</ele>
        <time>2023-07-27T10:27:11.372Z</time>
      </trkpt>
      <trkpt lat="44.25184" lon="6.72467">
        <ele>2650.9</ele>
        <time>2023-07-27T10:27:22.405Z</time>
      </trkpt>
      <trkpt lat="44.25179" lon="6.72465">
        <ele>2651.4</ele>
        <time>2023-07-27T10:27:35.267Z</time>
      </trkpt>
      <trkpt lat="44.25174" lon="6.72462">
        <ele>2651.4</ele>
        <time>2023-07-27T10:27:45.094Z</time>
      </trkpt>
      <trkpt lat="44.25167" lon="6.72455">
        <ele>2649.9</ele>
        <time>2023-07-27T10:27:58.698Z</time>
      </trkpt>
      <trkpt lat="44.2516" lon="6.72449">
        <ele>2648.3</ele>
        <time>2023-07-27T10:28:11.676Z</time>
      </trkpt>
      <trkpt lat="44.25155" lon="6.72447">
        <ele>2648.3</ele>
        <time>2023-07-27T10:28:21.068Z</time>
      </trkpt>
      <trkpt lat="44.2515" lon="6.72446">
        <ele>2648.7</ele>
        <time>2023-07-27T10:28:32.852Z</time>
      </trkpt>
      <trkpt lat="44.25145" lon="6.72446">
        <ele>2649.6</ele>
        <time>2023-07-27T10:28:49.649Z</time>
      </trkpt>
      <trkpt lat="44.2514" lon="6.72446">
        <ele>2650.5</ele>
        <time>2023-07-27T10:29:06.446Z</time>
      </trkpt>
      <trkpt lat="44.25135" lon="6.72443">
        <ele>2650.3</ele>
        <time>2023-07-27T10:29:15.244Z</time>
      </trkpt>
      <trkpt lat="44.25131" lon="6.7244">
        <ele>2650.4</ele>
        <time>2023-07-27T10:29:24.027Z</time>
      </trkpt>
      <trkpt lat="44.25126" lon="6.72436">
        <ele>2650.5</ele>
        <time>2023-07-27T10:29:35.010Z</time>
      </trkpt>
      <trkpt lat="44.25122" lon="6.72433">
        <ele>2650.6</ele>
        <time>2023-07-27T10:29:43.792Z</time>
      </trkpt>
      <trkpt lat="44.25118" lon="6.7243">
        <ele>2650.8</ele>
        <time>2023-07-27T10:29:53.217Z</time>
      </trkpt>
      <trkpt lat="44.25114" lon="6.72427">
        <ele>2651</ele>
        <time>2023-07-27T10:30:02.643Z</time>
      </trkpt>
      <trkpt lat="44.25112" lon="6.7242">
        <ele>2650.3</ele>
        <time>2023-07-27T10:30:11.172Z</time>
      </trkpt>
      <trkpt lat="44.2511" lon="6.72414">
        <ele>2649.9</ele>
        <time>2023-07-27T10:30:18.661Z</time>
      </trkpt>
      <trkpt lat="44.25112" lon="6.72408">
        <ele>2649.5</ele>
        <time>2023-07-27T10:30:26.151Z</time>
      </trkpt>
      <trkpt lat="44.25114" lon="6.72402">
        <ele>2649</ele>
        <time>2023-07-27T10:30:33.640Z</time>
      </trkpt>
      <trkpt lat="44.25109" lon="6.72399">
        <ele>2649.5</ele>
        <time>2023-07-27T10:30:46.901Z</time>
      </trkpt>
      <trkpt lat="44.25104" lon="6.72396">
        <ele>2649.6</ele>
        <time>2023-07-27T10:30:57.307Z</time>
      </trkpt>
      <trkpt lat="44.25099" lon="6.72391">
        <ele>2649.9</ele>
        <time>2023-07-27T10:31:10.272Z</time>
      </trkpt>
      <trkpt lat="44.25094" lon="6.72386">
        <ele>2650</ele>
        <time>2023-07-27T10:31:21.954Z</time>
      </trkpt>
      <trkpt lat="44.25086" lon="6.72382">
        <ele>2650.3</ele>
        <time>2023-07-27T10:31:39.101Z</time>
      </trkpt>
      <trkpt lat="44.25082" lon="6.72379">
        <ele>2650.4</ele>
        <time>2023-07-27T10:31:47.883Z</time>
      </trkpt>
      <trkpt lat="44.25079" lon="6.72375">
        <ele>2650.3</ele>
        <time>2023-07-27T10:31:54.846Z</time>
      </trkpt>
      <trkpt lat="44.25073" lon="6.72372">
        <ele>2650.4</ele>
        <time>2023-07-27T10:32:06.929Z</time>
      </trkpt>
      <trkpt lat="44.25071" lon="6.72376">
        <ele>2651</ele>
        <time>2023-07-27T10:32:18.302Z</time>
      </trkpt>
      <trkpt lat="44.25067" lon="6.72377">
        <ele>2651.5</ele>
        <time>2023-07-27T10:32:29.352Z</time>
      </trkpt>
      <trkpt lat="44.25062" lon="6.72379">
        <ele>2652.3</ele>
        <time>2023-07-27T10:32:45.179Z</time>
      </trkpt>
      <trkpt lat="44.25058" lon="6.72382">
        <ele>2653.2</ele>
        <time>2023-07-27T10:33:01.547Z</time>
      </trkpt>
      <trkpt lat="44.25053" lon="6.72384">
        <ele>2654.1</ele>
        <time>2023-07-27T10:33:18.561Z</time>
      </trkpt>
      <trkpt lat="44.25046" lon="6.72384">
        <ele>2654.7</ele>
        <time>2023-07-27T10:33:35.260Z</time>
      </trkpt>
      <trkpt lat="44.2504" lon="6.72392">
        <ele>2656.3</ele>
        <time>2023-07-27T10:34:04.549Z</time>
      </trkpt>
      <trkpt lat="44.25034" lon="6.72395">
        <ele>2656.7</ele>
        <time>2023-07-27T10:34:18.619Z</time>
      </trkpt>
      <trkpt lat="44.2503" lon="6.72397">
        <ele>2657</ele>
        <time>2023-07-27T10:34:28.248Z</time>
      </trkpt>
      <trkpt lat="44.25025" lon="6.72398">
        <ele>2656.9</ele>
        <time>2023-07-27T10:34:36.836Z</time>
      </trkpt>
      <trkpt lat="44.2502" lon="6.72399">
        <ele>2656.8</ele>
        <time>2023-07-27T10:34:45.424Z</time>
      </trkpt>
      <trkpt lat="44.25016" lon="6.72401">
        <ele>2656.6</ele>
        <time>2023-07-27T10:34:52.137Z</time>
      </trkpt>
      <trkpt lat="44.2501" lon="6.72401">
        <ele>2656.5</ele>
        <time>2023-07-27T10:35:02.435Z</time>
      </trkpt>
      <trkpt lat="44.25004" lon="6.72402">
        <ele>2656.5</ele>
        <time>2023-07-27T10:35:13.346Z</time>
      </trkpt>
      <trkpt lat="44.24998" lon="6.72403">
        <ele>2656.2</ele>
        <time>2023-07-27T10:35:22.893Z</time>
      </trkpt>
      <trkpt lat="44.24993" lon="6.72408">
        <ele>2656.1</ele>
        <time>2023-07-27T10:35:33.462Z</time>
      </trkpt>
      <trkpt lat="44.24988" lon="6.72413">
        <ele>2656.4</ele>
        <time>2023-07-27T10:35:46.427Z</time>
      </trkpt>
      <trkpt lat="44.2498" lon="6.72417">
        <ele>2656.9</ele>
        <time>2023-07-27T10:36:04.944Z</time>
      </trkpt>
      <trkpt lat="44.24975" lon="6.72419">
        <ele>2656.6</ele>
        <time>2023-07-27T10:36:13.161Z</time>
      </trkpt>
      <trkpt lat="44.2497" lon="6.72421">
        <ele>2655.7</ele>
        <time>2023-07-27T10:36:21.379Z</time>
      </trkpt>
      <trkpt lat="44.24965" lon="6.72426">
        <ele>2653.9</ele>
        <time>2023-07-27T10:36:31.097Z</time>
      </trkpt>
      <trkpt lat="44.2496" lon="6.7243">
        <ele>2652.6</ele>
        <time>2023-07-27T10:36:40.202Z</time>
      </trkpt>
      <trkpt lat="44.24954" lon="6.72431">
        <ele>2651.5</ele>
        <time>2023-07-27T10:36:49.749Z</time>
      </trkpt>
      <trkpt lat="44.24948" lon="6.72432">
        <ele>2650.5</ele>
        <time>2023-07-27T10:36:59.296Z</time>
      </trkpt>
      <trkpt lat="44.24942" lon="6.72432">
        <ele>2649.6</ele>
        <time>2023-07-27T10:37:08.776Z</time>
      </trkpt>
      <trkpt lat="44.24936" lon="6.72432">
        <ele>2648.6</ele>
        <time>2023-07-27T10:37:18.256Z</time>
      </trkpt>
      <trkpt lat="44.24932" lon="6.72433">
        <ele>2648</ele>
        <time>2023-07-27T10:37:24.677Z</time>
      </trkpt>
      <trkpt lat="44.24927" lon="6.72434">
        <ele>2647.3</ele>
        <time>2023-07-27T10:37:32.657Z</time>
      </trkpt>
      <trkpt lat="44.24923" lon="6.72433">
        <ele>2646.5</ele>
        <time>2023-07-27T10:37:39.078Z</time>
      </trkpt>
      <trkpt lat="44.24918" lon="6.72434">
        <ele>2645.9</ele>
        <time>2023-07-27T10:37:47.058Z</time>
      </trkpt>
      <trkpt lat="44.24912" lon="6.72437">
        <ele>2645.3</ele>
        <time>2023-07-27T10:37:57.128Z</time>
      </trkpt>
      <trkpt lat="44.24907" lon="6.7244">
        <ele>2644.9</ele>
        <time>2023-07-27T10:38:05.726Z</time>
      </trkpt>
      <trkpt lat="44.249" lon="6.72444">
        <ele>2644.3</ele>
        <time>2023-07-27T10:38:17.677Z</time>
      </trkpt>
      <trkpt lat="44.24895" lon="6.72445">
        <ele>2643.2</ele>
        <time>2023-07-27T10:38:25.657Z</time>
      </trkpt>
      <trkpt lat="44.2489" lon="6.72444">
        <ele>2642.1</ele>
        <time>2023-07-27T10:38:33.638Z</time>
      </trkpt>
      <trkpt lat="44.24884" lon="6.72443">
        <ele>2641.5</ele>
        <time>2023-07-27T10:38:43.185Z</time>
      </trkpt>
      <trkpt lat="44.2488" lon="6.72445">
        <ele>2641.6</ele>
        <time>2023-07-27T10:38:51.443Z</time>
      </trkpt>
      <trkpt lat="44.24875" lon="6.72447">
        <ele>2641</ele>
        <time>2023-07-27T10:38:59.660Z</time>
      </trkpt>
      <trkpt lat="44.24871" lon="6.72449">
        <ele>2640.5</ele>
        <time>2023-07-27T10:39:06.374Z</time>
      </trkpt>
      <trkpt lat="44.24866" lon="6.7245">
        <ele>2640.1</ele>
        <time>2023-07-27T10:39:14.354Z</time>
      </trkpt>
      <trkpt lat="44.24861" lon="6.72451">
        <ele>2639.8</ele>
        <time>2023-07-27T10:39:22.335Z</time>
      </trkpt>
      <trkpt lat="44.24856" lon="6.72453">
        <ele>2639.8</ele>
        <time>2023-07-27T10:39:31.726Z</time>
      </trkpt>
      <trkpt lat="44.24851" lon="6.72453">
        <ele>2640.2</ele>
        <time>2023-07-27T10:39:43.424Z</time>
      </trkpt>
      <trkpt lat="44.24846" lon="6.72454">
        <ele>2640.4</ele>
        <time>2023-07-27T10:39:53.758Z</time>
      </trkpt>
      <trkpt lat="44.24838" lon="6.72452">
        <ele>2641.3</ele>
        <time>2023-07-27T10:40:14.911Z</time>
      </trkpt>
      <trkpt lat="44.24833" lon="6.72452">
        <ele>2641.6</ele>
        <time>2023-07-27T10:40:25.848Z</time>
      </trkpt>
      <trkpt lat="44.24828" lon="6.72453">
        <ele>2641.4</ele>
        <time>2023-07-27T10:40:33.946Z</time>
      </trkpt>
      <trkpt lat="44.24823" lon="6.72453">
        <ele>2641.4</ele>
        <time>2023-07-27T10:40:42.974Z</time>
      </trkpt>
      <trkpt lat="44.24818" lon="6.72454">
        <ele>2641.3</ele>
        <time>2023-07-27T10:40:51.562Z</time>
      </trkpt>
      <trkpt lat="44.24814" lon="6.72456">
        <ele>2641.1</ele>
        <time>2023-07-27T10:40:58.275Z</time>
      </trkpt>
      <trkpt lat="44.24809" lon="6.72457">
        <ele>2641.1</ele>
        <time>2023-07-27T10:41:07.396Z</time>
      </trkpt>
      <trkpt lat="44.24806" lon="6.72456">
        <ele>2641.2</ele>
        <time>2023-07-27T10:41:13.562Z</time>
      </trkpt>
      <trkpt lat="44.248" lon="6.72459">
        <ele>2641.7</ele>
        <time>2023-07-27T10:41:28.394Z</time>
      </trkpt>
      <trkpt lat="44.24793" lon="6.72459">
        <ele>2642.5</ele>
        <time>2023-07-27T10:41:46.843Z</time>
      </trkpt>
      <trkpt lat="44.24785" lon="6.72463">
        <ele>2643.4</ele>
        <time>2023-07-27T10:42:08.587Z</time>
      </trkpt>
      <trkpt lat="44.24779" lon="6.72463">
        <ele>2644.2</ele>
        <time>2023-07-27T10:42:25.520Z</time>
      </trkpt>
      <trkpt lat="44.24773" lon="6.72462">
        <ele>2646</ele>
        <time>2023-07-27T10:42:58.200Z</time>
      </trkpt>
      <trkpt lat="44.2477" lon="6.72468">
        <ele>2646.8</ele>
        <time>2023-07-27T10:43:14.079Z</time>
      </trkpt>
      <trkpt lat="44.24767" lon="6.72474">
        <ele>2646.9</ele>
        <time>2023-07-27T10:43:24.123Z</time>
      </trkpt>
      <trkpt lat="44.24762" lon="6.72476">
        <ele>2647.8</ele>
        <time>2023-07-27T10:43:41.137Z</time>
      </trkpt>
      <trkpt lat="44.24758" lon="6.72479">
        <ele>2648.1</ele>
        <time>2023-07-27T10:43:51.273Z</time>
      </trkpt>
      <trkpt lat="44.24753" lon="6.7248">
        <ele>2649.5</ele>
        <time>2023-07-27T10:44:16.331Z</time>
      </trkpt>
      <trkpt lat="44.24748" lon="6.72482">
        <ele>2650.4</ele>
        <time>2023-07-27T10:44:33.346Z</time>
      </trkpt>
      <trkpt lat="44.24743" lon="6.72482">
        <ele>2651.9</ele>
        <time>2023-07-27T10:45:00.627Z</time>
      </trkpt>
      <trkpt lat="44.24738" lon="6.72483">
        <ele>2653.1</ele>
        <time>2023-07-27T10:45:21.925Z</time>
      </trkpt>
      <trkpt lat="44.24733" lon="6.72486">
        <ele>2653.7</ele>
        <time>2023-07-27T10:45:36.065Z</time>
      </trkpt>
      <trkpt lat="44.24729" lon="6.72489">
        <ele>2654.1</ele>
        <time>2023-07-27T10:45:46.986Z</time>
      </trkpt>
      <trkpt lat="44.24724" lon="6.72492">
        <ele>2654.7</ele>
        <time>2023-07-27T10:46:01.126Z</time>
      </trkpt>
      <trkpt lat="44.2472" lon="6.72496">
        <ele>2654.8</ele>
        <time>2023-07-27T10:46:10.591Z</time>
      </trkpt>
      <trkpt lat="44.24716" lon="6.72498">
        <ele>2655.6</ele>
        <time>2023-07-27T10:46:25.328Z</time>
      </trkpt>
      <trkpt lat="44.24711" lon="6.72499">
        <ele>2656.5</ele>
        <time>2023-07-27T10:46:42.178Z</time>
      </trkpt>
      <trkpt lat="44.24707" lon="6.72504">
        <ele>2656.2</ele>
        <time>2023-07-27T10:46:50.662Z</time>
      </trkpt>
      <trkpt lat="44.24703" lon="6.7251">
        <ele>2655.5</ele>
        <time>2023-07-27T10:46:59.938Z</time>
      </trkpt>
      <trkpt lat="44.24698" lon="6.72514">
        <ele>2655.9</ele>
        <time>2023-07-27T10:47:12.947Z</time>
      </trkpt>
      <trkpt lat="44.24694" lon="6.72518">
        <ele>2655.9</ele>
        <time>2023-07-27T10:47:21.831Z</time>
      </trkpt>
      <trkpt lat="44.2469" lon="6.72521">
        <ele>2656.2</ele>
        <time>2023-07-27T10:47:31.967Z</time>
      </trkpt>
      <trkpt lat="44.24686" lon="6.72525">
        <ele>2656.2</ele>
        <time>2023-07-27T10:47:40.851Z</time>
      </trkpt>
      <trkpt lat="44.24681" lon="6.72528">
        <ele>2656.8</ele>
        <time>2023-07-27T10:47:54.991Z</time>
      </trkpt>
      <trkpt lat="44.24677" lon="6.72532">
        <ele>2656.8</ele>
        <time>2023-07-27T10:48:03.876Z</time>
      </trkpt>
      <trkpt lat="44.24672" lon="6.72535">
        <ele>2657.4</ele>
        <time>2023-07-27T10:48:18.016Z</time>
      </trkpt>
      <trkpt lat="44.24668" lon="6.72538">
        <ele>2657.7</ele>
        <time>2023-07-27T10:48:28.151Z</time>
      </trkpt>
      <trkpt lat="44.24663" lon="6.72539">
        <ele>2658.6</ele>
        <time>2023-07-27T10:48:45.002Z</time>
      </trkpt>
      <trkpt lat="44.24658" lon="6.72541">
        <ele>2659.2</ele>
        <time>2023-07-27T10:48:58.763Z</time>
      </trkpt>
      <trkpt lat="44.24654" lon="6.72541">
        <ele>2660.2</ele>
        <time>2023-07-27T10:49:16.504Z</time>
      </trkpt>
      <trkpt lat="44.24649" lon="6.72541">
        <ele>2661.3</ele>
        <time>2023-07-27T10:49:36.148Z</time>
      </trkpt>
      <trkpt lat="44.24647" lon="6.72541">
        <ele>2661.8</ele>
        <time>2023-07-27T10:49:45.018Z</time>
      </trkpt>
      <trkpt lat="44.2464" lon="6.72543">
        <ele>2662.8</ele>
        <time>2023-07-27T10:50:05.676Z</time>
      </trkpt>
      <trkpt lat="44.24636" lon="6.72542">
        <ele>2664</ele>
        <time>2023-07-27T10:50:27.417Z</time>
      </trkpt>
      <trkpt lat="44.24631" lon="6.7254">
        <ele>2665.2</ele>
        <time>2023-07-27T10:50:48.749Z</time>
      </trkpt>
      <trkpt lat="44.24627" lon="6.72536">
        <ele>2667.2</ele>
        <time>2023-07-27T10:51:29.914Z</time>
      </trkpt>
      <trkpt lat="44.24623" lon="6.72533">
        <ele>2669</ele>
        <time>2023-07-27T10:52:06.523Z</time>
      </trkpt>
      <trkpt lat="44.24616" lon="6.72536">
        <ele>2669</ele>
        <time>2023-07-27T10:52:19.745Z</time>
      </trkpt>
      <trkpt lat="44.24611" lon="6.72533">
        <ele>2670.9</ele>
        <time>2023-07-27T10:52:56.158Z</time>
      </trkpt>
      <trkpt lat="44.24606" lon="6.7253">
        <ele>2672</ele>
        <time>2023-07-27T10:53:16.079Z</time>
      </trkpt>
      <trkpt lat="44.24603" lon="6.72526">
        <ele>2672.7</ele>
        <time>2023-07-27T10:53:29.430Z</time>
      </trkpt>
      <trkpt lat="44.24599" lon="6.72521">
        <ele>2672.6</ele>
        <time>2023-07-27T10:53:38.591Z</time>
      </trkpt>
      <trkpt lat="44.24592" lon="6.72516">
        <ele>2672.2</ele>
        <time>2023-07-27T10:53:51.015Z</time>
      </trkpt>
      <trkpt lat="44.24585" lon="6.72511">
        <ele>2671.5</ele>
        <time>2023-07-27T10:54:03.438Z</time>
      </trkpt>
      <trkpt lat="44.24586" lon="6.72499">
        <ele>2671</ele>
        <time>2023-07-27T10:54:17.112Z</time>
      </trkpt>
      <trkpt lat="44.24582" lon="6.725">
        <ele>2670.6</ele>
        <time>2023-07-27T10:54:23.532Z</time>
      </trkpt>
      <trkpt lat="44.24577" lon="6.72509">
        <ele>2669.7</ele>
        <time>2023-07-27T10:54:36.423Z</time>
      </trkpt>
      <trkpt lat="44.24572" lon="6.72515">
        <ele>2668.9</ele>
        <time>2023-07-27T10:54:46.841Z</time>
      </trkpt>
      <trkpt lat="44.24567" lon="6.72521">
        <ele>2668.4</ele>
        <time>2023-07-27T10:54:57.258Z</time>
      </trkpt>
      <trkpt lat="44.24563" lon="6.72524">
        <ele>2667.9</ele>
        <time>2023-07-27T10:55:04.432Z</time>
      </trkpt>
      <trkpt lat="44.24559" lon="6.72528">
        <ele>2667.6</ele>
        <time>2023-07-27T10:55:12.207Z</time>
      </trkpt>
      <trkpt lat="44.24554" lon="6.7253">
        <ele>2666.2</ele>
        <time>2023-07-27T10:55:20.425Z</time>
      </trkpt>
      <trkpt lat="44.2455" lon="6.72533">
        <ele>2664.5</ele>
        <time>2023-07-27T10:55:27.599Z</time>
      </trkpt>
      <trkpt lat="44.24542" lon="6.72536">
        <ele>2661.4</ele>
        <time>2023-07-27T10:55:40.687Z</time>
      </trkpt>
      <trkpt lat="44.24538" lon="6.72537">
        <ele>2659.9</ele>
        <time>2023-07-27T10:55:47.107Z</time>
      </trkpt>
      <trkpt lat="44.24533" lon="6.72537">
        <ele>2658.3</ele>
        <time>2023-07-27T10:55:55.007Z</time>
      </trkpt>
      <trkpt lat="44.24525" lon="6.72535">
        <ele>2656.6</ele>
        <time>2023-07-27T10:56:07.848Z</time>
      </trkpt>
      <trkpt lat="44.24517" lon="6.7253">
        <ele>2656.7</ele>
        <time>2023-07-27T10:56:24.245Z</time>
      </trkpt>
      <trkpt lat="44.24512" lon="6.72528">
        <ele>2656.5</ele>
        <time>2023-07-27T10:56:32.612Z</time>
      </trkpt>
      <trkpt lat="44.24505" lon="6.72526">
        <ele>2655</ele>
        <time>2023-07-27T10:56:43.901Z</time>
      </trkpt>
      <trkpt lat="44.24497" lon="6.72524">
        <ele>2653.2</ele>
        <time>2023-07-27T10:56:56.742Z</time>
      </trkpt>
      <trkpt lat="44.24492" lon="6.7252">
        <ele>2652.1</ele>
        <time>2023-07-27T10:57:05.847Z</time>
      </trkpt>
      <trkpt lat="44.24488" lon="6.72516">
        <ele>2651.5</ele>
        <time>2023-07-27T10:57:13.621Z</time>
      </trkpt>
      <trkpt lat="44.24483" lon="6.72514">
        <ele>2650.7</ele>
        <time>2023-07-27T10:57:21.839Z</time>
      </trkpt>
      <trkpt lat="44.24478" lon="6.72513">
        <ele>2650</ele>
        <time>2023-07-27T10:57:29.820Z</time>
      </trkpt>
      <trkpt lat="44.24474" lon="6.72513">
        <ele>2649.4</ele>
        <time>2023-07-27T10:57:36.140Z</time>
      </trkpt>
      <trkpt lat="44.24469" lon="6.72512">
        <ele>2648.9</ele>
        <time>2023-07-27T10:57:44.120Z</time>
      </trkpt>
      <trkpt lat="44.24465" lon="6.72513">
        <ele>2648.4</ele>
        <time>2023-07-27T10:57:50.541Z</time>
      </trkpt>
      <trkpt lat="44.2446" lon="6.72513">
        <ele>2647.8</ele>
        <time>2023-07-27T10:57:58.441Z</time>
      </trkpt>
      <trkpt lat="44.24455" lon="6.72513">
        <ele>2647.3</ele>
        <time>2023-07-27T10:58:06.341Z</time>
      </trkpt>
      <trkpt lat="44.24451" lon="6.72513">
        <ele>2646.8</ele>
        <time>2023-07-27T10:58:12.661Z</time>
      </trkpt>
      <trkpt lat="44.24446" lon="6.72513">
        <ele>2646.3</ele>
        <time>2023-07-27T10:58:20.561Z</time>
      </trkpt>
      <trkpt lat="44.24441" lon="6.72513">
        <ele>2645.6</ele>
        <time>2023-07-27T10:58:28.460Z</time>
      </trkpt>
      <trkpt lat="44.24433" lon="6.72513">
        <ele>2644.5</ele>
        <time>2023-07-27T10:58:41.100Z</time>
      </trkpt>
      <trkpt lat="44.24425" lon="6.72513">
        <ele>2643.3</ele>
        <time>2023-07-27T10:58:53.740Z</time>
      </trkpt>
      <trkpt lat="44.2442" lon="6.72515">
        <ele>2642.3</ele>
        <time>2023-07-27T10:59:01.958Z</time>
      </trkpt>
      <trkpt lat="44.24415" lon="6.72516">
        <ele>2641.6</ele>
        <time>2023-07-27T10:59:09.939Z</time>
      </trkpt>
      <trkpt lat="44.2441" lon="6.72518">
        <ele>2640.9</ele>
        <time>2023-07-27T10:59:18.156Z</time>
      </trkpt>
      <trkpt lat="44.24406" lon="6.72519">
        <ele>2640.5</ele>
        <time>2023-07-27T10:59:24.577Z</time>
      </trkpt>
      <trkpt lat="44.24401" lon="6.72521">
        <ele>2640</ele>
        <time>2023-07-27T10:59:32.795Z</time>
      </trkpt>
      <trkpt lat="44.24397" lon="6.72524">
        <ele>2639.5</ele>
        <time>2023-07-27T10:59:39.969Z</time>
      </trkpt>
      <trkpt lat="44.24389" lon="6.72526">
        <ele>2639.1</ele>
        <time>2023-07-27T10:59:52.810Z</time>
      </trkpt>
      <trkpt lat="44.24381" lon="6.72527">
        <ele>2638.2</ele>
        <time>2023-07-27T11:00:05.501Z</time>
      </trkpt>
      <trkpt lat="44.24377" lon="6.72528">
        <ele>2637.7</ele>
        <time>2023-07-27T11:00:11.921Z</time>
      </trkpt>
      <trkpt lat="44.24372" lon="6.72528">
        <ele>2637.1</ele>
        <time>2023-07-27T11:00:19.821Z</time>
      </trkpt>
      <trkpt lat="44.24368" lon="6.72528">
        <ele>2636.7</ele>
        <time>2023-07-27T11:00:26.141Z</time>
      </trkpt>
      <trkpt lat="44.24363" lon="6.72527">
        <ele>2636.2</ele>
        <time>2023-07-27T11:00:34.121Z</time>
      </trkpt>
      <trkpt lat="44.24355" lon="6.72527">
        <ele>2635.6</ele>
        <time>2023-07-27T11:00:46.761Z</time>
      </trkpt>
      <trkpt lat="44.2435" lon="6.72526">
        <ele>2635.2</ele>
        <time>2023-07-27T11:00:54.742Z</time>
      </trkpt>
      <trkpt lat="44.24345" lon="6.72525">
        <ele>2634.8</ele>
        <time>2023-07-27T11:01:02.723Z</time>
      </trkpt>
      <trkpt lat="44.2434" lon="6.72526">
        <ele>2634.4</ele>
        <time>2023-07-27T11:01:10.703Z</time>
      </trkpt>
      <trkpt lat="44.24336" lon="6.72527">
        <ele>2634.2</ele>
        <time>2023-07-27T11:01:17.124Z</time>
      </trkpt>
      <trkpt lat="44.24331" lon="6.72528">
        <ele>2634</ele>
        <time>2023-07-27T11:01:25.221Z</time>
      </trkpt>
      <trkpt lat="44.24326" lon="6.72529">
        <ele>2633.8</ele>
        <time>2023-07-27T11:01:33.319Z</time>
      </trkpt>
      <trkpt lat="44.24321" lon="6.72528">
        <ele>2634</ele>
        <time>2023-07-27T11:01:43.654Z</time>
      </trkpt>
      <trkpt lat="44.24316" lon="6.72527">
        <ele>2633.9</ele>
        <time>2023-07-27T11:01:52.241Z</time>
      </trkpt>
      <trkpt lat="44.24311" lon="6.72526">
        <ele>2633.8</ele>
        <time>2023-07-27T11:02:00.829Z</time>
      </trkpt>
      <trkpt lat="44.24307" lon="6.72524">
        <ele>2633.5</ele>
        <time>2023-07-27T11:02:07.542Z</time>
      </trkpt>
      <trkpt lat="44.24301" lon="6.72525">
        <ele>2633.4</ele>
        <time>2023-07-27T11:02:17.917Z</time>
      </trkpt>
      <trkpt lat="44.24296" lon="6.72525">
        <ele>2633.2</ele>
        <time>2023-07-27T11:02:25.923Z</time>
      </trkpt>
      <trkpt lat="44.24291" lon="6.72525">
        <ele>2632.9</ele>
        <time>2023-07-27T11:02:33.823Z</time>
      </trkpt>
      <trkpt lat="44.24286" lon="6.72524">
        <ele>2632.5</ele>
        <time>2023-07-27T11:02:41.804Z</time>
      </trkpt>
      <trkpt lat="44.24281" lon="6.72524">
        <ele>2632.2</ele>
        <time>2023-07-27T11:02:49.704Z</time>
      </trkpt>
      <trkpt lat="44.24276" lon="6.72523">
        <ele>2631.7</ele>
        <time>2023-07-27T11:02:57.684Z</time>
      </trkpt>
      <trkpt lat="44.24272" lon="6.72522">
        <ele>2631.1</ele>
        <time>2023-07-27T11:03:04.105Z</time>
      </trkpt>
      <trkpt lat="44.24267" lon="6.72521">
        <ele>2630.4</ele>
        <time>2023-07-27T11:03:12.085Z</time>
      </trkpt>
      <trkpt lat="44.24262" lon="6.72521">
        <ele>2630</ele>
        <time>2023-07-27T11:03:19.985Z</time>
      </trkpt>
      <trkpt lat="44.24257" lon="6.72521">
        <ele>2629.6</ele>
        <time>2023-07-27T11:03:27.885Z</time>
      </trkpt>
      <trkpt lat="44.24252" lon="6.7252">
        <ele>2628.9</ele>
        <time>2023-07-27T11:03:35.866Z</time>
      </trkpt>
      <trkpt lat="44.24248" lon="6.72518">
        <ele>2628.1</ele>
        <time>2023-07-27T11:03:42.579Z</time>
      </trkpt>
      <trkpt lat="44.24243" lon="6.72518">
        <ele>2628</ele>
        <time>2023-07-27T11:03:51.075Z</time>
      </trkpt>
      <trkpt lat="44.24238" lon="6.72517">
        <ele>2627.6</ele>
        <time>2023-07-27T11:03:59.055Z</time>
      </trkpt>
      <trkpt lat="44.24234" lon="6.72517">
        <ele>2627.5</ele>
        <time>2023-07-27T11:04:05.751Z</time>
      </trkpt>
      <trkpt lat="44.24229" lon="6.72516">
        <ele>2627.2</ele>
        <time>2023-07-27T11:04:13.732Z</time>
      </trkpt>
      <trkpt lat="44.24224" lon="6.72515">
        <ele>2626.8</ele>
        <time>2023-07-27T11:04:21.712Z</time>
      </trkpt>
      <trkpt lat="44.24219" lon="6.72514">
        <ele>2626.5</ele>
        <time>2023-07-27T11:04:29.693Z</time>
      </trkpt>
      <trkpt lat="44.24215" lon="6.72513">
        <ele>2626.2</ele>
        <time>2023-07-27T11:04:36.113Z</time>
      </trkpt>
      <trkpt lat="44.2421" lon="6.72511">
        <ele>2625.7</ele>
        <time>2023-07-27T11:04:44.331Z</time>
      </trkpt>
      <trkpt lat="44.24205" lon="6.7251">
        <ele>2625.5</ele>
        <time>2023-07-27T11:04:52.429Z</time>
      </trkpt>
      <trkpt lat="44.24201" lon="6.72509">
        <ele>2625.3</ele>
        <time>2023-07-27T11:04:58.850Z</time>
      </trkpt>
      <trkpt lat="44.24196" lon="6.72506">
        <ele>2624.8</ele>
        <time>2023-07-27T11:05:07.448Z</time>
      </trkpt>
      <trkpt lat="44.24192" lon="6.72503">
        <ele>2624.1</ele>
        <time>2023-07-27T11:05:14.623Z</time>
      </trkpt>
      <trkpt lat="44.24187" lon="6.72502">
        <ele>2623.3</ele>
        <time>2023-07-27T11:05:22.603Z</time>
      </trkpt>
      <trkpt lat="44.24182" lon="6.725">
        <ele>2622.7</ele>
        <time>2023-07-27T11:05:30.821Z</time>
      </trkpt>
      <trkpt lat="44.24178" lon="6.72498">
        <ele>2621.7</ele>
        <time>2023-07-27T11:05:37.534Z</time>
      </trkpt>
      <trkpt lat="44.24174" lon="6.72496">
        <ele>2620.8</ele>
        <time>2023-07-27T11:05:44.247Z</time>
      </trkpt>
      <trkpt lat="44.2417" lon="6.72493">
        <ele>2619.7</ele>
        <time>2023-07-27T11:05:51.422Z</time>
      </trkpt>
      <trkpt lat="44.24166" lon="6.7249">
        <ele>2618.7</ele>
        <time>2023-07-27T11:05:58.596Z</time>
      </trkpt>
      <trkpt lat="44.24161" lon="6.72489">
        <ele>2617.1</ele>
        <time>2023-07-27T11:06:06.577Z</time>
      </trkpt>
      <trkpt lat="44.24156" lon="6.72487">
        <ele>2615.6</ele>
        <time>2023-07-27T11:06:14.795Z</time>
      </trkpt>
      <trkpt lat="44.24148" lon="6.72485">
        <ele>2613.6</ele>
        <time>2023-07-27T11:06:27.636Z</time>
      </trkpt>
      <trkpt lat="44.24144" lon="6.72481">
        <ele>2612.6</ele>
        <time>2023-07-27T11:06:35.410Z</time>
      </trkpt>
      <trkpt lat="44.2414" lon="6.72478">
        <ele>2612</ele>
        <time>2023-07-27T11:06:42.585Z</time>
      </trkpt>
      <trkpt lat="44.24136" lon="6.72475">
        <ele>2611.1</ele>
        <time>2023-07-27T11:06:49.759Z</time>
      </trkpt>
      <trkpt lat="44.24132" lon="6.72472">
        <ele>2610.2</ele>
        <time>2023-07-27T11:06:56.933Z</time>
      </trkpt>
      <trkpt lat="44.24128" lon="6.72465">
        <ele>2609.1</ele>
        <time>2023-07-27T11:07:07.069Z</time>
      </trkpt>
      <trkpt lat="44.24128" lon="6.72457">
        <ele>2609</ele>
        <time>2023-07-27T11:07:16.882Z</time>
      </trkpt>
      <trkpt lat="44.24128" lon="6.7245">
        <ele>2608.9</ele>
        <time>2023-07-27T11:07:25.405Z</time>
      </trkpt>
      <trkpt lat="44.24126" lon="6.72444">
        <ele>2608.8</ele>
        <time>2023-07-27T11:07:33.434Z</time>
      </trkpt>
      <trkpt lat="44.24123" lon="6.72439">
        <ele>2608.2</ele>
        <time>2023-07-27T11:07:40.816Z</time>
      </trkpt>
      <trkpt lat="44.24121" lon="6.72433">
        <ele>2607.3</ele>
        <time>2023-07-27T11:07:48.307Z</time>
      </trkpt>
      <trkpt lat="44.24118" lon="6.72427">
        <ele>2606.7</ele>
        <time>2023-07-27T11:07:56.589Z</time>
      </trkpt>
      <trkpt lat="44.24112" lon="6.72425">
        <ele>2607.1</ele>
        <time>2023-07-27T11:08:10.302Z</time>
      </trkpt>
      <trkpt lat="44.24106" lon="6.72424">
        <ele>2607.1</ele>
        <time>2023-07-27T11:08:21.213Z</time>
      </trkpt>
      <trkpt lat="44.24101" lon="6.72423">
        <ele>2607.1</ele>
        <time>2023-07-27T11:08:30.334Z</time>
      </trkpt>
      <trkpt lat="44.24097" lon="6.72423">
        <ele>2607.2</ele>
        <time>2023-07-27T11:08:38.144Z</time>
      </trkpt>
      <trkpt lat="44.24093" lon="6.7242">
        <ele>2607.3</ele>
        <time>2023-07-27T11:08:46.926Z</time>
      </trkpt>
      <trkpt lat="44.24089" lon="6.72417">
        <ele>2607.6</ele>
        <time>2023-07-27T11:08:57.062Z</time>
      </trkpt>
      <trkpt lat="44.24085" lon="6.72413">
        <ele>2607.6</ele>
        <time>2023-07-27T11:09:05.947Z</time>
      </trkpt>
      <trkpt lat="44.24081" lon="6.72409">
        <ele>2607.3</ele>
        <time>2023-07-27T11:09:13.721Z</time>
      </trkpt>
      <trkpt lat="44.24078" lon="6.72404">
        <ele>2607</ele>
        <time>2023-07-27T11:09:21.104Z</time>
      </trkpt>
      <trkpt lat="44.24074" lon="6.72398">
        <ele>2606.7</ele>
        <time>2023-07-27T11:09:30.381Z</time>
      </trkpt>
      <trkpt lat="44.24071" lon="6.72393">
        <ele>2606.5</ele>
        <time>2023-07-27T11:09:37.802Z</time>
      </trkpt>
      <trkpt lat="44.24064" lon="6.72387">
        <ele>2606.5</ele>
        <time>2023-07-27T11:09:52.634Z</time>
      </trkpt>
      <trkpt lat="44.24064" lon="6.72387">
        <ele>2606.5</ele>
        <time>2023-07-27T11:09:52.634Z</time>
      </trkpt>
      <trkpt lat="44.24059" lon="6.72386">
        <ele>2606.6</ele>
        <time>2023-07-27T11:10:02.335Z</time>
      </trkpt>
      <trkpt lat="44.24054" lon="6.72385">
        <ele>2606.5</ele>
        <time>2023-07-27T11:10:10.923Z</time>
      </trkpt>
      <trkpt lat="44.24049" lon="6.72385">
        <ele>2606.4</ele>
        <time>2023-07-27T11:10:19.419Z</time>
      </trkpt>
      <trkpt lat="44.24044" lon="6.72384">
        <ele>2606.1</ele>
        <time>2023-07-27T11:10:27.400Z</time>
      </trkpt>
      <trkpt lat="44.24039" lon="6.72383">
        <ele>2605.9</ele>
        <time>2023-07-27T11:10:35.497Z</time>
      </trkpt>
      <trkpt lat="44.24034" lon="6.72381">
        <ele>2605.6</ele>
        <time>2023-07-27T11:10:43.715Z</time>
      </trkpt>
      <trkpt lat="44.24029" lon="6.72382">
        <ele>2605.5</ele>
        <time>2023-07-27T11:10:52.303Z</time>
      </trkpt>
      <trkpt lat="44.24024" lon="6.72383">
        <ele>2605.3</ele>
        <time>2023-07-27T11:11:00.401Z</time>
      </trkpt>
      <trkpt lat="44.24019" lon="6.72383">
        <ele>2605</ele>
        <time>2023-07-27T11:11:08.301Z</time>
      </trkpt>
      <trkpt lat="44.24015" lon="6.72383">
        <ele>2604.8</ele>
        <time>2023-07-27T11:11:14.621Z</time>
      </trkpt>
      <trkpt lat="44.2401" lon="6.72383">
        <ele>2604.4</ele>
        <time>2023-07-27T11:11:22.521Z</time>
      </trkpt>
      <trkpt lat="44.24005" lon="6.72382">
        <ele>2604.1</ele>
        <time>2023-07-27T11:11:30.501Z</time>
      </trkpt>
      <trkpt lat="44.24001" lon="6.7238">
        <ele>2603.7</ele>
        <time>2023-07-27T11:11:37.214Z</time>
      </trkpt>
      <trkpt lat="44.23996" lon="6.72378">
        <ele>2603.5</ele>
        <time>2023-07-27T11:11:45.581Z</time>
      </trkpt>
      <trkpt lat="44.23991" lon="6.72378">
        <ele>2603.3</ele>
        <time>2023-07-27T11:11:53.587Z</time>
      </trkpt>
      <trkpt lat="44.23986" lon="6.72377">
        <ele>2603.1</ele>
        <time>2023-07-27T11:12:01.685Z</time>
      </trkpt>
      <trkpt lat="44.23978" lon="6.72374">
        <ele>2602.7</ele>
        <time>2023-07-27T11:12:14.773Z</time>
      </trkpt>
      <trkpt lat="44.23974" lon="6.72374">
        <ele>2602.5</ele>
        <time>2023-07-27T11:12:21.093Z</time>
      </trkpt>
      <trkpt lat="44.23969" lon="6.72373">
        <ele>2602.3</ele>
        <time>2023-07-27T11:12:29.191Z</time>
      </trkpt>
      <trkpt lat="44.23961" lon="6.72372">
        <ele>2602.1</ele>
        <time>2023-07-27T11:12:42.640Z</time>
      </trkpt>
      <trkpt lat="44.23956" lon="6.72371">
        <ele>2601.9</ele>
        <time>2023-07-27T11:12:50.738Z</time>
      </trkpt>
      <trkpt lat="44.23951" lon="6.7237">
        <ele>2601.8</ele>
        <time>2023-07-27T11:12:59.326Z</time>
      </trkpt>
      <trkpt lat="44.23946" lon="6.72368">
        <ele>2601.8</ele>
        <time>2023-07-27T11:13:08.717Z</time>
      </trkpt>
      <trkpt lat="44.23942" lon="6.72366">
        <ele>2601.7</ele>
        <time>2023-07-27T11:13:15.861Z</time>
      </trkpt>
      <trkpt lat="44.23937" lon="6.72365">
        <ele>2601.7</ele>
        <time>2023-07-27T11:13:24.982Z</time>
      </trkpt>
      <trkpt lat="44.23932" lon="6.72364">
        <ele>2601.7</ele>
        <time>2023-07-27T11:13:34.102Z</time>
      </trkpt>
      <trkpt lat="44.23928" lon="6.72363">
        <ele>2601.7</ele>
        <time>2023-07-27T11:13:41.440Z</time>
      </trkpt>
      <trkpt lat="44.23923" lon="6.72362">
        <ele>2601.8</ele>
        <time>2023-07-27T11:13:51.141Z</time>
      </trkpt>
      <trkpt lat="44.23918" lon="6.72362">
        <ele>2601.8</ele>
        <time>2023-07-27T11:14:00.170Z</time>
      </trkpt>
      <trkpt lat="44.23913" lon="6.72363">
        <ele>2601.3</ele>
        <time>2023-07-27T11:14:08.150Z</time>
      </trkpt>
      <trkpt lat="44.23906" lon="6.72356">
        <ele>2600.8</ele>
        <time>2023-07-27T11:14:21.756Z</time>
      </trkpt>
      <trkpt lat="44.23902" lon="6.72353">
        <ele>2600.4</ele>
        <time>2023-07-27T11:14:28.930Z</time>
      </trkpt>
      <trkpt lat="44.23898" lon="6.7235">
        <ele>2600</ele>
        <time>2023-07-27T11:14:36.105Z</time>
      </trkpt>
      <trkpt lat="44.23894" lon="6.72346">
        <ele>2599.6</ele>
        <time>2023-07-27T11:14:43.879Z</time>
      </trkpt>
      <trkpt lat="44.23891" lon="6.72341">
        <ele>2599.3</ele>
        <time>2023-07-27T11:14:51.262Z</time>
      </trkpt>
      <trkpt lat="44.23889" lon="6.72336">
        <ele>2599.1</ele>
        <time>2023-07-27T11:14:57.744Z</time>
      </trkpt>
      <trkpt lat="44.23887" lon="6.7233">
        <ele>2598.7</ele>
        <time>2023-07-27T11:15:05.235Z</time>
      </trkpt>
      <trkpt lat="44.23884" lon="6.72324">
        <ele>2598.2</ele>
        <time>2023-07-27T11:15:13.517Z</time>
      </trkpt>
      <trkpt lat="44.23881" lon="6.72318">
        <ele>2597.6</ele>
        <time>2023-07-27T11:15:21.799Z</time>
      </trkpt>
      <trkpt lat="44.23878" lon="6.72313">
        <ele>2597.2</ele>
        <time>2023-07-27T11:15:29.181Z</time>
      </trkpt>
      <trkpt lat="44.23875" lon="6.72308">
        <ele>2596.8</ele>
        <time>2023-07-27T11:15:36.564Z</time>
      </trkpt>
      <trkpt lat="44.23872" lon="6.72303">
        <ele>2596.1</ele>
        <time>2023-07-27T11:15:43.946Z</time>
      </trkpt>
      <trkpt lat="44.23868" lon="6.72299">
        <ele>2595.5</ele>
        <time>2023-07-27T11:15:51.721Z</time>
      </trkpt>
      <trkpt lat="44.23864" lon="6.72295">
        <ele>2595</ele>
        <time>2023-07-27T11:15:59.495Z</time>
      </trkpt>
      <trkpt lat="44.2386" lon="6.72291">
        <ele>2594.3</ele>
        <time>2023-07-27T11:16:07.270Z</time>
      </trkpt>
      <trkpt lat="44.23855" lon="6.72289">
        <ele>2593.7</ele>
        <time>2023-07-27T11:16:15.488Z</time>
      </trkpt>
      <trkpt lat="44.2385" lon="6.72286">
        <ele>2593</ele>
        <time>2023-07-27T11:16:24.087Z</time>
      </trkpt>
      <trkpt lat="44.23845" lon="6.72284">
        <ele>2592.4</ele>
        <time>2023-07-27T11:16:32.305Z</time>
      </trkpt>
      <trkpt lat="44.23841" lon="6.72281">
        <ele>2591.8</ele>
        <time>2023-07-27T11:16:39.479Z</time>
      </trkpt>
      <trkpt lat="44.23837" lon="6.72278">
        <ele>2591.2</ele>
        <time>2023-07-27T11:16:46.654Z</time>
      </trkpt>
      <trkpt lat="44.23833" lon="6.72276">
        <ele>2590.8</ele>
        <time>2023-07-27T11:16:53.367Z</time>
      </trkpt>
      <trkpt lat="44.23829" lon="6.72272">
        <ele>2590.5</ele>
        <time>2023-07-27T11:17:01.141Z</time>
      </trkpt>
      <trkpt lat="44.23825" lon="6.72268">
        <ele>2590</ele>
        <time>2023-07-27T11:17:08.916Z</time>
      </trkpt>
      <trkpt lat="44.23825" lon="6.72262">
        <ele>2588.7</ele>
        <time>2023-07-27T11:17:15.708Z</time>
      </trkpt>
      <trkpt lat="44.23824" lon="6.72255">
        <ele>2587.4</ele>
        <time>2023-07-27T11:17:23.787Z</time>
      </trkpt>
      <trkpt lat="44.23826" lon="6.72252">
        <ele>2586.9</ele>
        <time>2023-07-27T11:17:28.426Z</time>
      </trkpt>
      <trkpt lat="44.23827" lon="6.72252">
        <ele>2586.9</ele>
        <time>2023-07-27T11:17:30.232Z</time>
      </trkpt>
      <trkpt lat="44.23824" lon="6.72257">
        <ele>2587.8</ele>
        <time>2023-07-27T11:17:46.712Z</time>
      </trkpt>
      <trkpt lat="44.23825" lon="6.72253">
        <ele>2587</ele>
        <time>2023-07-27T11:17:51.508Z</time>
      </trkpt>
      <trkpt lat="44.23826" lon="6.72251">
        <ele>2586.7</ele>
        <time>2023-07-27T11:17:54.268Z</time>
      </trkpt>
      <trkpt lat="44.23821" lon="6.72258">
        <ele>2587.9</ele>
        <time>2023-07-27T11:18:17.121Z</time>
      </trkpt>
      <trkpt lat="44.23823" lon="6.72259">
        <ele>2588.2</ele>
        <time>2023-07-27T11:18:23.292Z</time>
      </trkpt>
      <trkpt lat="44.23827" lon="6.72265">
        <ele>2589.3</ele>
        <time>2023-07-27T11:18:43.582Z</time>
      </trkpt>
      <trkpt lat="44.23831" lon="6.72269">
        <ele>2589.9</ele>
        <time>2023-07-27T11:18:56.910Z</time>
      </trkpt>
      <trkpt lat="44.23834" lon="6.72274">
        <ele>2590.5</ele>
        <time>2023-07-27T11:19:09.863Z</time>
      </trkpt>
      <trkpt lat="44.23838" lon="6.72277">
        <ele>2591</ele>
        <time>2023-07-27T11:19:21.656Z</time>
      </trkpt>
      <trkpt lat="44.23842" lon="6.7228">
        <ele>2591.7</ele>
        <time>2023-07-27T11:19:35.491Z</time>
      </trkpt>
      <trkpt lat="44.23847" lon="6.72282">
        <ele>2592.2</ele>
        <time>2023-07-27T11:19:48.353Z</time>
      </trkpt>
      <trkpt lat="44.23851" lon="6.72285">
        <ele>2592.8</ele>
        <time>2023-07-27T11:20:01.112Z</time>
      </trkpt>
      <trkpt lat="44.23856" lon="6.72287">
        <ele>2593.4</ele>
        <time>2023-07-27T11:20:14.873Z</time>
      </trkpt>
      <trkpt lat="44.2386" lon="6.7229">
        <ele>2594.1</ele>
        <time>2023-07-27T11:20:28.708Z</time>
      </trkpt>
      <trkpt lat="44.23867" lon="6.72297">
        <ele>2595.2</ele>
        <time>2023-07-27T11:20:52.523Z</time>
      </trkpt>
      <trkpt lat="44.23871" lon="6.72301">
        <ele>2595.8</ele>
        <time>2023-07-27T11:21:05.850Z</time>
      </trkpt>
      <trkpt lat="44.23874" lon="6.72305">
        <ele>2596.4</ele>
        <time>2023-07-27T11:21:18.053Z</time>
      </trkpt>
      <trkpt lat="44.23877" lon="6.7231">
        <ele>2596.9</ele>
        <time>2023-07-27T11:21:30.055Z</time>
      </trkpt>
      <trkpt lat="44.2388" lon="6.72315">
        <ele>2597.3</ele>
        <time>2023-07-27T11:21:41.197Z</time>
      </trkpt>
      <trkpt lat="44.23883" lon="6.72321">
        <ele>2597.8</ele>
        <time>2023-07-27T11:21:54.126Z</time>
      </trkpt>
      <trkpt lat="44.23885" lon="6.72326">
        <ele>2598.3</ele>
        <time>2023-07-27T11:22:05.236Z</time>
      </trkpt>
      <trkpt lat="44.23887" lon="6.72332">
        <ele>2598.9</ele>
        <time>2023-07-27T11:22:18.292Z</time>
      </trkpt>
      <trkpt lat="44.2389" lon="6.72338">
        <ele>2599.2</ele>
        <time>2023-07-27T11:22:29.653Z</time>
      </trkpt>
      <trkpt lat="44.23893" lon="6.72343">
        <ele>2599.5</ele>
        <time>2023-07-27T11:22:40.018Z</time>
      </trkpt>
      <trkpt lat="44.23897" lon="6.72348">
        <ele>2599.8</ele>
        <time>2023-07-27T11:22:51.604Z</time>
      </trkpt>
      <trkpt lat="44.239" lon="6.72352">
        <ele>2600.2</ele>
        <time>2023-07-27T11:23:01.874Z</time>
      </trkpt>
      <trkpt lat="44.23904" lon="6.72356">
        <ele>2600.7</ele>
        <time>2023-07-27T11:23:14.276Z</time>
      </trkpt>
      <trkpt lat="44.23909" lon="6.7236">
        <ele>2601.4</ele>
        <time>2023-07-27T11:23:29.859Z</time>
      </trkpt>
      <trkpt lat="44.23913" lon="6.72364">
        <ele>2601.1</ele>
        <time>2023-07-27T11:23:37.633Z</time>
      </trkpt>
      <trkpt lat="44.23914" lon="6.72365">
        <ele>2601</ele>
        <time>2023-07-27T11:23:39.577Z</time>
      </trkpt>
      <trkpt lat="44.23914" lon="6.72371">
        <ele>2599.7</ele>
        <time>2023-07-27T11:23:46.369Z</time>
      </trkpt>
      <trkpt lat="44.2391" lon="6.72374">
        <ele>2598.7</ele>
        <time>2023-07-27T11:23:53.543Z</time>
      </trkpt>
      <trkpt lat="44.23906" lon="6.72377">
        <ele>2597.8</ele>
        <time>2023-07-27T11:24:00.718Z</time>
      </trkpt>
      <trkpt lat="44.23902" lon="6.7238">
        <ele>2596.9</ele>
        <time>2023-07-27T11:24:07.892Z</time>
      </trkpt>
      <trkpt lat="44.23898" lon="6.72382">
        <ele>2596.1</ele>
        <time>2023-07-27T11:24:14.606Z</time>
      </trkpt>
      <trkpt lat="44.23893" lon="6.72383">
        <ele>2595.6</ele>
        <time>2023-07-27T11:24:22.586Z</time>
      </trkpt>
      <trkpt lat="44.23888" lon="6.72384">
        <ele>2595.1</ele>
        <time>2023-07-27T11:24:30.567Z</time>
      </trkpt>
      <trkpt lat="44.23883" lon="6.72386">
        <ele>2594.8</ele>
        <time>2023-07-27T11:24:38.785Z</time>
      </trkpt>
      <trkpt lat="44.23879" lon="6.72389">
        <ele>2594.3</ele>
        <time>2023-07-27T11:24:45.959Z</time>
      </trkpt>
      <trkpt lat="44.23874" lon="6.72391">
        <ele>2593.5</ele>
        <time>2023-07-27T11:24:54.177Z</time>
      </trkpt>
      <trkpt lat="44.2387" lon="6.72394">
        <ele>2592.2</ele>
        <time>2023-07-27T11:25:01.352Z</time>
      </trkpt>
      <trkpt lat="44.23865" lon="6.72395">
        <ele>2591.8</ele>
        <time>2023-07-27T11:25:09.332Z</time>
      </trkpt>
      <trkpt lat="44.23861" lon="6.72397">
        <ele>2590.9</ele>
        <time>2023-07-27T11:25:16.045Z</time>
      </trkpt>
      <trkpt lat="44.23856" lon="6.72398">
        <ele>2589.4</ele>
        <time>2023-07-27T11:25:24.026Z</time>
      </trkpt>
      <trkpt lat="44.23851" lon="6.724">
        <ele>2587.3</ele>
        <time>2023-07-27T11:25:32.244Z</time>
      </trkpt>
      <trkpt lat="44.23847" lon="6.72406">
        <ele>2583.2</ele>
        <time>2023-07-27T11:25:41.521Z</time>
      </trkpt>
      <trkpt lat="44.23854" lon="6.72407">
        <ele>2584.3</ele>
        <time>2023-07-27T11:26:03.135Z</time>
      </trkpt>
      <trkpt lat="44.2386" lon="6.72408">
        <ele>2585.1</ele>
        <time>2023-07-27T11:26:20.130Z</time>
      </trkpt>
      <trkpt lat="44.23865" lon="6.72409">
        <ele>2584.8</ele>
        <time>2023-07-27T11:26:28.110Z</time>
      </trkpt>
      <trkpt lat="44.2387" lon="6.72411">
        <ele>2583.8</ele>
        <time>2023-07-27T11:26:36.328Z</time>
      </trkpt>
      <trkpt lat="44.23875" lon="6.72412">
        <ele>2583.3</ele>
        <time>2023-07-27T11:26:44.309Z</time>
      </trkpt>
      <trkpt lat="44.2388" lon="6.72413">
        <ele>2582.8</ele>
        <time>2023-07-27T11:26:52.290Z</time>
      </trkpt>
      <trkpt lat="44.23885" lon="6.72414">
        <ele>2582.3</ele>
        <time>2023-07-27T11:27:00.270Z</time>
      </trkpt>
      <trkpt lat="44.2389" lon="6.72416">
        <ele>2581.4</ele>
        <time>2023-07-27T11:27:08.488Z</time>
      </trkpt>
      <trkpt lat="44.23894" lon="6.72418">
        <ele>2580.7</ele>
        <time>2023-07-27T11:27:15.201Z</time>
      </trkpt>
      <trkpt lat="44.23899" lon="6.7242">
        <ele>2580</ele>
        <time>2023-07-27T11:27:23.419Z</time>
      </trkpt>
      <trkpt lat="44.23904" lon="6.72423">
        <ele>2578.8</ele>
        <time>2023-07-27T11:27:32.018Z</time>
      </trkpt>
      <trkpt lat="44.23911" lon="6.72428">
        <ele>2576.8</ele>
        <time>2023-07-27T11:27:44.442Z</time>
      </trkpt>
      <trkpt lat="44.23915" lon="6.72433">
        <ele>2574.6</ele>
        <time>2023-07-27T11:27:52.926Z</time>
      </trkpt>
      <trkpt lat="44.2392" lon="6.72437">
        <ele>2573.7</ele>
        <time>2023-07-27T11:28:02.031Z</time>
      </trkpt>
      <trkpt lat="44.23926" lon="6.72443">
        <ele>2572.4</ele>
        <time>2023-07-27T11:28:13.693Z</time>
      </trkpt>
      <trkpt lat="44.23933" lon="6.72448">
        <ele>2572</ele>
        <time>2023-07-27T11:28:26.117Z</time>
      </trkpt>
      <trkpt lat="44.23936" lon="6.72453">
        <ele>2570.5</ele>
        <time>2023-07-27T11:28:33.499Z</time>
      </trkpt>
      <trkpt lat="44.23939" lon="6.72456">
        <ele>2569.9</ele>
        <time>2023-07-27T11:28:39.330Z</time>
      </trkpt>
      <trkpt lat="44.23944" lon="6.7246">
        <ele>2569.6</ele>
        <time>2023-07-27T11:28:48.436Z</time>
      </trkpt>
      <trkpt lat="44.23949" lon="6.72468">
        <ele>2566</ele>
        <time>2023-07-27T11:29:00.453Z</time>
      </trkpt>
      <trkpt lat="44.23953" lon="6.7247">
        <ele>2565.1</ele>
        <time>2023-07-27T11:29:07.166Z</time>
      </trkpt>
      <trkpt lat="44.23958" lon="6.72473">
        <ele>2563.6</ele>
        <time>2023-07-27T11:29:15.765Z</time>
      </trkpt>
      <trkpt lat="44.23959" lon="6.7248">
        <ele>2559.8</ele>
        <time>2023-07-27T11:29:23.844Z</time>
      </trkpt>
      <trkpt lat="44.23954" lon="6.72484">
        <ele>2557.8</ele>
        <time>2023-07-27T11:29:32.950Z</time>
      </trkpt>
      <trkpt lat="44.23949" lon="6.72488">
        <ele>2555.9</ele>
        <time>2023-07-27T11:29:42.055Z</time>
      </trkpt>
      <trkpt lat="44.23944" lon="6.72489">
        <ele>2555.4</ele>
        <time>2023-07-27T11:29:50.036Z</time>
      </trkpt>
      <trkpt lat="44.23939" lon="6.7249">
        <ele>2553</ele>
        <time>2023-07-27T11:29:58.016Z</time>
      </trkpt>
      <trkpt lat="44.23931" lon="6.72485">
        <ele>2552.8</ele>
        <time>2023-07-27T11:30:12.785Z</time>
      </trkpt>
      <trkpt lat="44.23927" lon="6.72482">
        <ele>2553</ele>
        <time>2023-07-27T11:30:22.211Z</time>
      </trkpt>
      <trkpt lat="44.23922" lon="6.72479">
        <ele>2552.9</ele>
        <time>2023-07-27T11:30:31.503Z</time>
      </trkpt>
      <trkpt lat="44.23918" lon="6.72477">
        <ele>2552.7</ele>
        <time>2023-07-27T11:30:38.217Z</time>
      </trkpt>
      <trkpt lat="44.23913" lon="6.72475">
        <ele>2552.7</ele>
        <time>2023-07-27T11:30:47.609Z</time>
      </trkpt>
      <trkpt lat="44.23908" lon="6.72476">
        <ele>2551.1</ele>
        <time>2023-07-27T11:30:55.589Z</time>
      </trkpt>
      <trkpt lat="44.23903" lon="6.72476">
        <ele>2550.2</ele>
        <time>2023-07-27T11:31:03.489Z</time>
      </trkpt>
      <trkpt lat="44.23896" lon="6.72479">
        <ele>2546.8</ele>
        <time>2023-07-27T11:31:15.059Z</time>
      </trkpt>
      <trkpt lat="44.23902" lon="6.72481">
        <ele>2546.8</ele>
        <time>2023-07-27T11:31:26.197Z</time>
      </trkpt>
      <trkpt lat="44.23908" lon="6.72484">
        <ele>2546.3</ele>
        <time>2023-07-27T11:31:36.267Z</time>
      </trkpt>
      <trkpt lat="44.23912" lon="6.72487">
        <ele>2545.4</ele>
        <time>2023-07-27T11:31:43.442Z</time>
      </trkpt>
      <trkpt lat="44.23917" lon="6.7249">
        <ele>2544.9</ele>
        <time>2023-07-27T11:31:52.041Z</time>
      </trkpt>
      <trkpt lat="44.23923" lon="6.72497">
        <ele>2543.2</ele>
        <time>2023-07-27T11:32:04.396Z</time>
      </trkpt>
      <trkpt lat="44.23926" lon="6.72502">
        <ele>2541.7</ele>
        <time>2023-07-27T11:32:11.778Z</time>
      </trkpt>
      <trkpt lat="44.23929" lon="6.72507">
        <ele>2540.4</ele>
        <time>2023-07-27T11:32:19.161Z</time>
      </trkpt>
      <trkpt lat="44.23932" lon="6.72511">
        <ele>2539.5</ele>
        <time>2023-07-27T11:32:25.716Z</time>
      </trkpt>
      <trkpt lat="44.23937" lon="6.72519">
        <ele>2537.5</ele>
        <time>2023-07-27T11:32:37.733Z</time>
      </trkpt>
      <trkpt lat="44.23941" lon="6.72523">
        <ele>2537</ele>
        <time>2023-07-27T11:32:45.507Z</time>
      </trkpt>
      <trkpt lat="44.23945" lon="6.72527">
        <ele>2536.3</ele>
        <time>2023-07-27T11:32:53.282Z</time>
      </trkpt>
      <trkpt lat="44.23953" lon="6.72526">
        <ele>2535.7</ele>
        <time>2023-07-27T11:33:05.972Z</time>
      </trkpt>
      <trkpt lat="44.23958" lon="6.72527">
        <ele>2534.5</ele>
        <time>2023-07-27T11:33:13.953Z</time>
      </trkpt>
      <trkpt lat="44.23964" lon="6.72528">
        <ele>2533</ele>
        <time>2023-07-27T11:33:23.500Z</time>
      </trkpt>
      <trkpt lat="44.23965" lon="6.72526">
        <ele>2534</ele>
        <time>2023-07-27T11:33:40.064Z</time>
      </trkpt>
      <trkpt lat="44.23966" lon="6.72522">
        <ele>2536.1</ele>
        <time>2023-07-27T11:34:08.837Z</time>
      </trkpt>
      <trkpt lat="44.23971" lon="6.72522">
        <ele>2535.5</ele>
        <time>2023-07-27T11:34:16.737Z</time>
      </trkpt>
      <trkpt lat="44.23976" lon="6.72523">
        <ele>2534</ele>
        <time>2023-07-27T11:34:24.718Z</time>
      </trkpt>
      <trkpt lat="44.2398" lon="6.72519">
        <ele>2535.6</ele>
        <time>2023-07-27T11:34:54.538Z</time>
      </trkpt>
      <trkpt lat="44.23984" lon="6.72515">
        <ele>2537.2</ele>
        <time>2023-07-27T11:35:24.359Z</time>
      </trkpt>
      <trkpt lat="44.2399" lon="6.72513">
        <ele>2537.4</ele>
        <time>2023-07-27T11:35:36.692Z</time>
      </trkpt>
      <trkpt lat="44.23997" lon="6.72511">
        <ele>2537.4</ele>
        <time>2023-07-27T11:35:49.594Z</time>
      </trkpt>
      <trkpt lat="44.24002" lon="6.72514">
        <ele>2535.4</ele>
        <time>2023-07-27T11:35:58.192Z</time>
      </trkpt>
      <trkpt lat="44.24007" lon="6.72516">
        <ele>2535.3</ele>
        <time>2023-07-27T11:36:07.051Z</time>
      </trkpt>
      <trkpt lat="44.24011" lon="6.7252">
        <ele>2533.7</ele>
        <time>2023-07-27T11:36:14.825Z</time>
      </trkpt>
      <trkpt lat="44.24015" lon="6.72524">
        <ele>2532.2</ele>
        <time>2023-07-27T11:36:22.600Z</time>
      </trkpt>
      <trkpt lat="44.24019" lon="6.72529">
        <ele>2530.2</ele>
        <time>2023-07-27T11:36:31.083Z</time>
      </trkpt>
      <trkpt lat="44.24025" lon="6.72533">
        <ele>2529.6</ele>
        <time>2023-07-27T11:36:41.589Z</time>
      </trkpt>
      <trkpt lat="44.24029" lon="6.72535">
        <ele>2529.9</ele>
        <time>2023-07-27T11:36:51.218Z</time>
      </trkpt>
      <trkpt lat="44.24031" lon="6.72542">
        <ele>2527.4</ele>
        <time>2023-07-27T11:36:59.749Z</time>
      </trkpt>
      <trkpt lat="44.24034" lon="6.72547">
        <ele>2526.4</ele>
        <time>2023-07-27T11:37:07.131Z</time>
      </trkpt>
      <trkpt lat="44.24036" lon="6.72553">
        <ele>2524.4</ele>
        <time>2023-07-27T11:37:14.622Z</time>
      </trkpt>
      <trkpt lat="44.24039" lon="6.72563">
        <ele>2521.3</ele>
        <time>2023-07-27T11:37:26.893Z</time>
      </trkpt>
      <trkpt lat="44.24041" lon="6.72569">
        <ele>2519.6</ele>
        <time>2023-07-27T11:37:34.384Z</time>
      </trkpt>
      <trkpt lat="44.24044" lon="6.72575">
        <ele>2518.4</ele>
        <time>2023-07-27T11:37:42.666Z</time>
      </trkpt>
      <trkpt lat="44.24048" lon="6.72579">
        <ele>2518.4</ele>
        <time>2023-07-27T11:37:51.551Z</time>
      </trkpt>
      <trkpt lat="44.24051" lon="6.72584">
        <ele>2517.6</ele>
        <time>2023-07-27T11:37:58.934Z</time>
      </trkpt>
      <trkpt lat="44.24054" lon="6.72589">
        <ele>2517</ele>
        <time>2023-07-27T11:38:06.316Z</time>
      </trkpt>
      <trkpt lat="44.24056" lon="6.72594">
        <ele>2516</ele>
        <time>2023-07-27T11:38:12.798Z</time>
      </trkpt>
      <trkpt lat="44.2406" lon="6.72599">
        <ele>2516.3</ele>
        <time>2023-07-27T11:38:24.384Z</time>
      </trkpt>
      <trkpt lat="44.24064" lon="6.72603">
        <ele>2517</ele>
        <time>2023-07-27T11:38:38.731Z</time>
      </trkpt>
      <trkpt lat="44.24067" lon="6.72609">
        <ele>2516.4</ele>
        <time>2023-07-27T11:38:47.013Z</time>
      </trkpt>
      <trkpt lat="44.2407" lon="6.72615">
        <ele>2516.3</ele>
        <time>2023-07-27T11:38:55.945Z</time>
      </trkpt>
      <trkpt lat="44.24074" lon="6.72625">
        <ele>2516</ele>
        <time>2023-07-27T11:39:09.217Z</time>
      </trkpt>
      <trkpt lat="44.24075" lon="6.72632">
        <ele>2514.7</ele>
        <time>2023-07-27T11:39:17.296Z</time>
      </trkpt>
      <trkpt lat="44.24077" lon="6.72639">
        <ele>2514.1</ele>
        <time>2023-07-27T11:39:25.826Z</time>
      </trkpt>
      <trkpt lat="44.24078" lon="6.72646">
        <ele>2513.2</ele>
        <time>2023-07-27T11:39:33.906Z</time>
      </trkpt>
      <trkpt lat="44.2408" lon="6.72652">
        <ele>2513.1</ele>
        <time>2023-07-27T11:39:41.935Z</time>
      </trkpt>
      <trkpt lat="44.24079" lon="6.72658">
        <ele>2511.2</ele>
        <time>2023-07-27T11:39:48.908Z</time>
      </trkpt>
      <trkpt lat="44.24078" lon="6.72665">
        <ele>2509.1</ele>
        <time>2023-07-27T11:39:56.988Z</time>
      </trkpt>
      <trkpt lat="44.24077" lon="6.72672">
        <ele>2507.1</ele>
        <time>2023-07-27T11:40:05.067Z</time>
      </trkpt>
      <trkpt lat="44.24076" lon="6.7268">
        <ele>2505</ele>
        <time>2023-07-27T11:40:14.259Z</time>
      </trkpt>
      <trkpt lat="44.24075" lon="6.72686">
        <ele>2503.4</ele>
        <time>2023-07-27T11:40:21.232Z</time>
      </trkpt>
      <trkpt lat="44.24073" lon="6.72693">
        <ele>2501</ele>
        <time>2023-07-27T11:40:29.762Z</time>
      </trkpt>
      <trkpt lat="44.24074" lon="6.72705">
        <ele>2500.9</ele>
        <time>2023-07-27T11:40:44.848Z</time>
      </trkpt>
      <trkpt lat="44.24074" lon="6.72713">
        <ele>2500.6</ele>
        <time>2023-07-27T11:40:53.904Z</time>
      </trkpt>
      <trkpt lat="44.24074" lon="6.72721">
        <ele>2500.3</ele>
        <time>2023-07-27T11:41:02.959Z</time>
      </trkpt>
      <trkpt lat="44.24074" lon="6.72731">
        <ele>2500.1</ele>
        <time>2023-07-27T11:41:14.848Z</time>
      </trkpt>
      <trkpt lat="44.24073" lon="6.7274">
        <ele>2499.2</ele>
        <time>2023-07-27T11:41:25.157Z</time>
      </trkpt>
      <trkpt lat="44.24072" lon="6.72749">
        <ele>2498.3</ele>
        <time>2023-07-27T11:41:35.466Z</time>
      </trkpt>
      <trkpt lat="44.24071" lon="6.72755">
        <ele>2497.7</ele>
        <time>2023-07-27T11:41:42.439Z</time>
      </trkpt>
      <trkpt lat="44.24069" lon="6.72761">
        <ele>2497.2</ele>
        <time>2023-07-27T11:41:49.929Z</time>
      </trkpt>
      <trkpt lat="44.2407" lon="6.72769">
        <ele>2498.6</ele>
        <time>2023-07-27T11:42:14.767Z</time>
      </trkpt>
      <trkpt lat="44.24071" lon="6.72778">
        <ele>2500.3</ele>
        <time>2023-07-27T11:42:44.987Z</time>
      </trkpt>
      <trkpt lat="44.2407" lon="6.72781">
        <ele>2500.1</ele>
        <time>2023-07-27T11:42:48.732Z</time>
      </trkpt>
      <trkpt lat="44.24066" lon="6.72783">
        <ele>2496.8</ele>
        <time>2023-07-27T11:42:55.445Z</time>
      </trkpt>
      <trkpt lat="44.24061" lon="6.72784">
        <ele>2493.4</ele>
        <time>2023-07-27T11:43:03.426Z</time>
      </trkpt>
      <trkpt lat="44.24058" lon="6.72791">
        <ele>2492</ele>
        <time>2023-07-27T11:43:12.659Z</time>
      </trkpt>
      <trkpt lat="44.24055" lon="6.72799">
        <ele>2490.6</ele>
        <time>2023-07-27T11:43:22.880Z</time>
      </trkpt>
      <trkpt lat="44.24054" lon="6.72805">
        <ele>2490.6</ele>
        <time>2023-07-27T11:43:30.849Z</time>
      </trkpt>
      <trkpt lat="44.24053" lon="6.72811">
        <ele>2489.7</ele>
        <time>2023-07-27T11:43:37.822Z</time>
      </trkpt>
      <trkpt lat="44.24053" lon="6.72819">
        <ele>2489.5</ele>
        <time>2023-07-27T11:43:47.138Z</time>
      </trkpt>
      <trkpt lat="44.24052" lon="6.72827">
        <ele>2488.5</ele>
        <time>2023-07-27T11:43:56.330Z</time>
      </trkpt>
      <trkpt lat="44.24051" lon="6.72836">
        <ele>2487.3</ele>
        <time>2023-07-27T11:44:06.639Z</time>
      </trkpt>
      <trkpt lat="44.24051" lon="6.72845">
        <ele>2486.4</ele>
        <time>2023-07-27T11:44:16.827Z</time>
      </trkpt>
      <trkpt lat="44.2405" lon="6.72852">
        <ele>2485.1</ele>
        <time>2023-07-27T11:44:24.906Z</time>
      </trkpt>
      <trkpt lat="44.2405" lon="6.72858">
        <ele>2484.5</ele>
        <time>2023-07-27T11:44:31.698Z</time>
      </trkpt>
      <trkpt lat="44.2405" lon="6.72865">
        <ele>2483.9</ele>
        <time>2023-07-27T11:44:39.621Z</time>
      </trkpt>
      <trkpt lat="44.24049" lon="6.72872">
        <ele>2482.6</ele>
        <time>2023-07-27T11:44:47.701Z</time>
      </trkpt>
      <trkpt lat="44.2405" lon="6.72878">
        <ele>2482.9</ele>
        <time>2023-07-27T11:44:57.615Z</time>
      </trkpt>
      <trkpt lat="44.2405" lon="6.72884">
        <ele>2482.4</ele>
        <time>2023-07-27T11:45:04.406Z</time>
      </trkpt>
      <trkpt lat="44.2405" lon="6.72891">
        <ele>2482</ele>
        <time>2023-07-27T11:45:12.330Z</time>
      </trkpt>
      <trkpt lat="44.2405" lon="6.72898">
        <ele>2482.1</ele>
        <time>2023-07-27T11:45:21.966Z</time>
      </trkpt>
      <trkpt lat="44.2405" lon="6.72908">
        <ele>2482.1</ele>
        <time>2023-07-27T11:45:34.902Z</time>
      </trkpt>
      <trkpt lat="44.24049" lon="6.72919">
        <ele>2481.2</ele>
        <time>2023-07-27T11:45:47.453Z</time>
      </trkpt>
      <trkpt lat="44.24051" lon="6.72925">
        <ele>2481.9</ele>
        <time>2023-07-27T11:46:01.554Z</time>
      </trkpt>
      <trkpt lat="44.24053" lon="6.72931">
        <ele>2482.7</ele>
        <time>2023-07-27T11:46:16.812Z</time>
      </trkpt>
      <trkpt lat="44.24056" lon="6.72937">
        <ele>2484.1</ele>
        <time>2023-07-27T11:46:41.753Z</time>
      </trkpt>
      <trkpt lat="44.24061" lon="6.72946">
        <ele>2486.7</ele>
        <time>2023-07-27T11:47:29.878Z</time>
      </trkpt>
      <trkpt lat="44.24063" lon="6.72957">
        <ele>2488.2</ele>
        <time>2023-07-27T11:47:57.667Z</time>
      </trkpt>
      <trkpt lat="44.24065" lon="6.72964">
        <ele>2489.4</ele>
        <time>2023-07-27T11:48:19.071Z</time>
      </trkpt>
      <trkpt lat="44.24066" lon="6.7297">
        <ele>2490</ele>
        <time>2023-07-27T11:48:31.645Z</time>
      </trkpt>
      <trkpt lat="44.24066" lon="6.72977">
        <ele>2489.9</ele>
        <time>2023-07-27T11:48:40.168Z</time>
      </trkpt>
      <trkpt lat="44.24066" lon="6.72983">
        <ele>2489.8</ele>
        <time>2023-07-27T11:48:47.401Z</time>
      </trkpt>
      <trkpt lat="44.24065" lon="6.7299">
        <ele>2489.2</ele>
        <time>2023-07-27T11:48:55.480Z</time>
      </trkpt>
      <trkpt lat="44.24064" lon="6.72997">
        <ele>2488.7</ele>
        <time>2023-07-27T11:49:03.560Z</time>
      </trkpt>
      <trkpt lat="44.24068" lon="6.73007">
        <ele>2488.5</ele>
        <time>2023-07-27T11:49:17.320Z</time>
      </trkpt>
      <trkpt lat="44.24073" lon="6.73004">
        <ele>2490.6</ele>
        <time>2023-07-27T11:49:59.477Z</time>
      </trkpt>
      <trkpt lat="44.24077" lon="6.73002">
        <ele>2492.3</ele>
        <time>2023-07-27T11:50:34.206Z</time>
      </trkpt>
      <trkpt lat="44.24082" lon="6.72999">
        <ele>2494.7</ele>
        <time>2023-07-27T11:51:25.316Z</time>
      </trkpt>
      <trkpt lat="44.24086" lon="6.72996">
        <ele>2495.6</ele>
        <time>2023-07-27T11:51:41.684Z</time>
      </trkpt>
      <trkpt lat="44.24091" lon="6.72993">
        <ele>2496.1</ele>
        <time>2023-07-27T11:51:54.946Z</time>
      </trkpt>
      <trkpt lat="44.24096" lon="6.72989">
        <ele>2497.2</ele>
        <time>2023-07-27T11:52:15.135Z</time>
      </trkpt>
      <trkpt lat="44.241" lon="6.72987">
        <ele>2497.8</ele>
        <time>2023-07-27T11:52:27.476Z</time>
      </trkpt>
      <trkpt lat="44.24105" lon="6.72984">
        <ele>2499</ele>
        <time>2023-07-27T11:52:48.900Z</time>
      </trkpt>
      <trkpt lat="44.2411" lon="6.72982">
        <ele>2500.1</ele>
        <time>2023-07-27T11:53:08.654Z</time>
      </trkpt>
      <trkpt lat="44.24114" lon="6.7298">
        <ele>2499.8</ele>
        <time>2023-07-27T11:53:15.368Z</time>
      </trkpt>
      <trkpt lat="44.24122" lon="6.72977">
        <ele>2498.1</ele>
        <time>2023-07-27T11:53:28.456Z</time>
      </trkpt>
      <trkpt lat="44.24126" lon="6.72973">
        <ele>2498.3</ele>
        <time>2023-07-27T11:53:38.557Z</time>
      </trkpt>
      <trkpt lat="44.2413" lon="6.7297">
        <ele>2497.7</ele>
        <time>2023-07-27T11:53:45.732Z</time>
      </trkpt>
      <trkpt lat="44.24132" lon="6.72964">
        <ele>2498.5</ele>
        <time>2023-07-27T11:54:00.990Z</time>
      </trkpt>
      <trkpt lat="44.24135" lon="6.72959">
        <ele>2498.7</ele>
        <time>2023-07-27T11:54:10.649Z</time>
      </trkpt>
      <trkpt lat="44.24138" lon="6.72952">
        <ele>2499.4</ele>
        <time>2023-07-27T11:54:26.356Z</time>
      </trkpt>
      <trkpt lat="44.24141" lon="6.72946">
        <ele>2499.1</ele>
        <time>2023-07-27T11:54:34.638Z</time>
      </trkpt>
      <trkpt lat="44.24147" lon="6.72938">
        <ele>2497.7</ele>
        <time>2023-07-27T11:54:47.748Z</time>
      </trkpt>
      <trkpt lat="44.24152" lon="6.72937">
        <ele>2494.7</ele>
        <time>2023-07-27T11:54:55.728Z</time>
      </trkpt>
      <trkpt lat="44.24157" lon="6.72935">
        <ele>2492.1</ele>
        <time>2023-07-27T11:55:03.946Z</time>
      </trkpt>
      <trkpt lat="44.24161" lon="6.72931">
        <ele>2491</ele>
        <time>2023-07-27T11:55:11.720Z</time>
      </trkpt>
      <trkpt lat="44.24165" lon="6.72927">
        <ele>2490</ele>
        <time>2023-07-27T11:55:19.495Z</time>
      </trkpt>
      <trkpt lat="44.24169" lon="6.72923">
        <ele>2488.9</ele>
        <time>2023-07-27T11:55:27.269Z</time>
      </trkpt>
      <trkpt lat="44.24173" lon="6.72919">
        <ele>2487.7</ele>
        <time>2023-07-27T11:55:35.043Z</time>
      </trkpt>
      <trkpt lat="44.24177" lon="6.72915">
        <ele>2486.4</ele>
        <time>2023-07-27T11:55:42.818Z</time>
      </trkpt>
      <trkpt lat="44.24181" lon="6.72911">
        <ele>2484.9</ele>
        <time>2023-07-27T11:55:50.592Z</time>
      </trkpt>
      <trkpt lat="44.24185" lon="6.72904">
        <ele>2484.3</ele>
        <time>2023-07-27T11:56:00.727Z</time>
      </trkpt>
      <trkpt lat="44.24188" lon="6.72898">
        <ele>2483.9</ele>
        <time>2023-07-27T11:56:09.009Z</time>
      </trkpt>
      <trkpt lat="44.2419" lon="6.72892">
        <ele>2484.3</ele>
        <time>2023-07-27T11:56:20.267Z</time>
      </trkpt>
      <trkpt lat="44.24193" lon="6.72887">
        <ele>2483.5</ele>
        <time>2023-07-27T11:56:27.649Z</time>
      </trkpt>
      <trkpt lat="44.24196" lon="6.72883">
        <ele>2482.8</ele>
        <time>2023-07-27T11:56:34.204Z</time>
      </trkpt>
      <trkpt lat="44.24199" lon="6.72878">
        <ele>2482.7</ele>
        <time>2023-07-27T11:56:42.110Z</time>
      </trkpt>
      <trkpt lat="44.24202" lon="6.72873">
        <ele>2482.8</ele>
        <time>2023-07-27T11:56:51.129Z</time>
      </trkpt>
      <trkpt lat="44.24206" lon="6.72868">
        <ele>2482.5</ele>
        <time>2023-07-27T11:56:59.613Z</time>
      </trkpt>
      <trkpt lat="44.24209" lon="6.72863">
        <ele>2482.7</ele>
        <time>2023-07-27T11:57:09.273Z</time>
      </trkpt>
      <trkpt lat="44.24215" lon="6.72859">
        <ele>2481.5</ele>
        <time>2023-07-27T11:57:19.778Z</time>
      </trkpt>
      <trkpt lat="44.2422" lon="6.72856">
        <ele>2480.5</ele>
        <time>2023-07-27T11:57:28.377Z</time>
      </trkpt>
      <trkpt lat="44.24222" lon="6.72853">
        <ele>2480.7</ele>
        <time>2023-07-27T11:57:34.975Z</time>
      </trkpt>
      <trkpt lat="44.24227" lon="6.72849">
        <ele>2480.9</ele>
        <time>2023-07-27T11:57:46.582Z</time>
      </trkpt>
      <trkpt lat="44.24232" lon="6.72845">
        <ele>2481.2</ele>
        <time>2023-07-27T11:57:58.862Z</time>
      </trkpt>
      <trkpt lat="44.2424" lon="6.72846">
        <ele>2479.1</ele>
        <time>2023-07-27T11:58:11.552Z</time>
      </trkpt>
      <trkpt lat="44.24248" lon="6.72848">
        <ele>2476.6</ele>
        <time>2023-07-27T11:58:24.393Z</time>
      </trkpt>
      <trkpt lat="44.24254" lon="6.72847">
        <ele>2475.9</ele>
        <time>2023-07-27T11:58:33.940Z</time>
      </trkpt>
      <trkpt lat="44.24259" lon="6.72846">
        <ele>2475.5</ele>
        <time>2023-07-27T11:58:41.921Z</time>
      </trkpt>
      <trkpt lat="44.24264" lon="6.72845">
        <ele>2475.4</ele>
        <time>2023-07-27T11:58:50.509Z</time>
      </trkpt>
      <trkpt lat="44.24268" lon="6.72843">
        <ele>2475.4</ele>
        <time>2023-07-27T11:58:58.181Z</time>
      </trkpt>
      <trkpt lat="44.24271" lon="6.72846">
        <ele>2473.6</ele>
        <time>2023-07-27T11:59:04.012Z</time>
      </trkpt>
      <trkpt lat="44.24276" lon="6.72845">
        <ele>2473.2</ele>
        <time>2023-07-27T11:59:11.992Z</time>
      </trkpt>
      <trkpt lat="44.24281" lon="6.72844">
        <ele>2472.8</ele>
        <time>2023-07-27T11:59:19.973Z</time>
      </trkpt>
      <trkpt lat="44.24287" lon="6.72843">
        <ele>2472</ele>
        <time>2023-07-27T11:59:29.520Z</time>
      </trkpt>
      <trkpt lat="44.24293" lon="6.72843">
        <ele>2470.9</ele>
        <time>2023-07-27T11:59:39.000Z</time>
      </trkpt>
      <trkpt lat="44.24297" lon="6.72841">
        <ele>2471</ele>
        <time>2023-07-27T11:59:47.257Z</time>
      </trkpt>
      <trkpt lat="44.24302" lon="6.72839">
        <ele>2471</ele>
        <time>2023-07-27T11:59:56.649Z</time>
      </trkpt>
      <trkpt lat="44.24307" lon="6.72839">
        <ele>2470.2</ele>
        <time>2023-07-27T12:00:04.549Z</time>
      </trkpt>
      <trkpt lat="44.24312" lon="6.7284">
        <ele>2469.3</ele>
        <time>2023-07-27T12:00:12.530Z</time>
      </trkpt>
      <trkpt lat="44.24318" lon="6.7284">
        <ele>2468.8</ele>
        <time>2023-07-27T12:00:22.010Z</time>
      </trkpt>
      <trkpt lat="44.24323" lon="6.7284">
        <ele>2468.3</ele>
        <time>2023-07-27T12:00:29.909Z</time>
      </trkpt>
      <trkpt lat="44.24328" lon="6.72842">
        <ele>2467.3</ele>
        <time>2023-07-27T12:00:38.127Z</time>
      </trkpt>
      <trkpt lat="44.24332" lon="6.72843">
        <ele>2466.3</ele>
        <time>2023-07-27T12:00:44.548Z</time>
      </trkpt>
      <trkpt lat="44.24336" lon="6.72847">
        <ele>2464.7</ele>
        <time>2023-07-27T12:00:52.322Z</time>
      </trkpt>
      <trkpt lat="44.24339" lon="6.72851">
        <ele>2463.3</ele>
        <time>2023-07-27T12:00:58.877Z</time>
      </trkpt>
      <trkpt lat="44.24346" lon="6.72855">
        <ele>2462.2</ele>
        <time>2023-07-27T12:01:10.828Z</time>
      </trkpt>
      <trkpt lat="44.24352" lon="6.7286">
        <ele>2460.8</ele>
        <time>2023-07-27T12:01:21.868Z</time>
      </trkpt>
      <trkpt lat="44.24356" lon="6.72862">
        <ele>2460.4</ele>
        <time>2023-07-27T12:01:28.581Z</time>
      </trkpt>
      <trkpt lat="44.2436" lon="6.72865">
        <ele>2459.9</ele>
        <time>2023-07-27T12:01:35.756Z</time>
      </trkpt>
      <trkpt lat="44.24364" lon="6.72868">
        <ele>2459.5</ele>
        <time>2023-07-27T12:01:42.930Z</time>
      </trkpt>
      <trkpt lat="44.24368" lon="6.72872">
        <ele>2458.8</ele>
        <time>2023-07-27T12:01:50.704Z</time>
      </trkpt>
      <trkpt lat="44.24373" lon="6.72875">
        <ele>2458.4</ele>
        <time>2023-07-27T12:01:59.303Z</time>
      </trkpt>
      <trkpt lat="44.24377" lon="6.72879">
        <ele>2457.6</ele>
        <time>2023-07-27T12:02:07.077Z</time>
      </trkpt>
      <trkpt lat="44.24381" lon="6.72882">
        <ele>2457.2</ele>
        <time>2023-07-27T12:02:14.252Z</time>
      </trkpt>
      <trkpt lat="44.24387" lon="6.7289">
        <ele>2455.7</ele>
        <time>2023-07-27T12:02:27.361Z</time>
      </trkpt>
      <trkpt lat="44.24389" lon="6.72896">
        <ele>2454.7</ele>
        <time>2023-07-27T12:02:34.852Z</time>
      </trkpt>
      <trkpt lat="44.2439" lon="6.72902">
        <ele>2453.8</ele>
        <time>2023-07-27T12:02:41.824Z</time>
      </trkpt>
      <trkpt lat="44.24392" lon="6.72909">
        <ele>2452.7</ele>
        <time>2023-07-27T12:02:50.354Z</time>
      </trkpt>
      <trkpt lat="44.24394" lon="6.72915">
        <ele>2451.9</ele>
        <time>2023-07-27T12:02:57.845Z</time>
      </trkpt>
      <trkpt lat="44.24399" lon="6.72925">
        <ele>2451</ele>
        <time>2023-07-27T12:03:11.647Z</time>
      </trkpt>
      <trkpt lat="44.24401" lon="6.72931">
        <ele>2450.5</ele>
        <time>2023-07-27T12:03:19.138Z</time>
      </trkpt>
      <trkpt lat="44.24403" lon="6.72937">
        <ele>2450</ele>
        <time>2023-07-27T12:03:26.628Z</time>
      </trkpt>
      <trkpt lat="44.24403" lon="6.72943">
        <ele>2449.2</ele>
        <time>2023-07-27T12:03:33.419Z</time>
      </trkpt>
      <trkpt lat="44.24403" lon="6.7295">
        <ele>2448.2</ele>
        <time>2023-07-27T12:03:41.342Z</time>
      </trkpt>
      <trkpt lat="44.24407" lon="6.7296">
        <ele>2447.4</ele>
        <time>2023-07-27T12:03:54.306Z</time>
      </trkpt>
      <trkpt lat="44.24407" lon="6.72972">
        <ele>2445.6</ele>
        <time>2023-07-27T12:04:07.888Z</time>
      </trkpt>
      <trkpt lat="44.24412" lon="6.72982">
        <ele>2444.9</ele>
        <time>2023-07-27T12:04:21.691Z</time>
      </trkpt>
      <trkpt lat="44.24411" lon="6.72993">
        <ele>2443</ele>
        <time>2023-07-27T12:04:34.241Z</time>
      </trkpt>
      <trkpt lat="44.2441" lon="6.72997">
        <ele>2442.3</ele>
        <time>2023-07-27T12:04:39.036Z</time>
      </trkpt>
      <trkpt lat="44.2441" lon="6.73004">
        <ele>2441.2</ele>
        <time>2023-07-27T12:04:46.959Z</time>
      </trkpt>
      <trkpt lat="44.24412" lon="6.73016">
        <ele>2439.8</ele>
        <time>2023-07-27T12:05:00.904Z</time>
      </trkpt>
      <trkpt lat="44.24413" lon="6.73022">
        <ele>2439.1</ele>
        <time>2023-07-27T12:05:07.877Z</time>
      </trkpt>
      <trkpt lat="44.24414" lon="6.73029">
        <ele>2438.3</ele>
        <time>2023-07-27T12:05:15.956Z</time>
      </trkpt>
      <trkpt lat="44.24415" lon="6.73039">
        <ele>2437</ele>
        <time>2023-07-27T12:05:27.384Z</time>
      </trkpt>
      <trkpt lat="44.24415" lon="6.7305">
        <ele>2435.5</ele>
        <time>2023-07-27T12:05:39.835Z</time>
      </trkpt>
      <trkpt lat="44.24417" lon="6.73057">
        <ele>2434.9</ele>
        <time>2023-07-27T12:05:48.365Z</time>
      </trkpt>
      <trkpt lat="44.24418" lon="6.73063">
        <ele>2434.3</ele>
        <time>2023-07-27T12:05:55.337Z</time>
      </trkpt>
      <trkpt lat="44.24419" lon="6.73069">
        <ele>2433.7</ele>
        <time>2023-07-27T12:06:02.310Z</time>
      </trkpt>
      <trkpt lat="44.2442" lon="6.73076">
        <ele>2432.9</ele>
        <time>2023-07-27T12:06:10.389Z</time>
      </trkpt>
      <trkpt lat="44.24421" lon="6.73088">
        <ele>2431.6</ele>
        <time>2023-07-27T12:06:24.063Z</time>
      </trkpt>
      <trkpt lat="44.24422" lon="6.73095">
        <ele>2431.1</ele>
        <time>2023-07-27T12:06:32.142Z</time>
      </trkpt>
      <trkpt lat="44.24424" lon="6.73101">
        <ele>2430.9</ele>
        <time>2023-07-27T12:06:39.684Z</time>
      </trkpt>
      <trkpt lat="44.24425" lon="6.73108">
        <ele>2430.4</ele>
        <time>2023-07-27T12:06:47.763Z</time>
      </trkpt>
      <trkpt lat="44.24426" lon="6.73115">
        <ele>2429.8</ele>
        <time>2023-07-27T12:06:55.842Z</time>
      </trkpt>
      <trkpt lat="44.24428" lon="6.73121">
        <ele>2429.6</ele>
        <time>2023-07-27T12:07:03.385Z</time>
      </trkpt>
      <trkpt lat="44.24431" lon="6.73127">
        <ele>2429.6</ele>
        <time>2023-07-27T12:07:12.850Z</time>
      </trkpt>
      <trkpt lat="44.24432" lon="6.73134">
        <ele>2429</ele>
        <time>2023-07-27T12:07:20.929Z</time>
      </trkpt>
      <trkpt lat="44.24434" lon="6.7314">
        <ele>2428.8</ele>
        <time>2023-07-27T12:07:28.472Z</time>
      </trkpt>
      <trkpt lat="44.24434" lon="6.73147">
        <ele>2427.8</ele>
        <time>2023-07-27T12:07:36.395Z</time>
      </trkpt>
      <trkpt lat="44.24434" lon="6.73153">
        <ele>2427</ele>
        <time>2023-07-27T12:07:43.186Z</time>
      </trkpt>
      <trkpt lat="44.24436" lon="6.7316">
        <ele>2426.5</ele>
        <time>2023-07-27T12:07:51.716Z</time>
      </trkpt>
      <trkpt lat="44.24438" lon="6.73166">
        <ele>2426.2</ele>
        <time>2023-07-27T12:07:59.206Z</time>
      </trkpt>
      <trkpt lat="44.2444" lon="6.73172">
        <ele>2426.4</ele>
        <time>2023-07-27T12:08:08.988Z</time>
      </trkpt>
      <trkpt lat="44.24441" lon="6.73179">
        <ele>2426.4</ele>
        <time>2023-07-27T12:08:18.221Z</time>
      </trkpt>
      <trkpt lat="44.24443" lon="6.73187">
        <ele>2426.7</ele>
        <time>2023-07-27T12:08:31.043Z</time>
      </trkpt>
      <trkpt lat="44.24445" lon="6.73195">
        <ele>2427.4</ele>
        <time>2023-07-27T12:08:47.100Z</time>
      </trkpt>
      <trkpt lat="44.24442" lon="6.73201">
        <ele>2426.4</ele>
        <time>2023-07-27T12:08:55.382Z</time>
      </trkpt>
      <trkpt lat="44.24438" lon="6.73206">
        <ele>2424.8</ele>
        <time>2023-07-27T12:09:03.865Z</time>
      </trkpt>
      <trkpt lat="44.24437" lon="6.73213">
        <ele>2424.5</ele>
        <time>2023-07-27T12:09:11.944Z</time>
      </trkpt>
      <trkpt lat="44.24436" lon="6.73219">
        <ele>2424.1</ele>
        <time>2023-07-27T12:09:18.917Z</time>
      </trkpt>
      <trkpt lat="44.24435" lon="6.73226">
        <ele>2423.8</ele>
        <time>2023-07-27T12:09:26.996Z</time>
      </trkpt>
      <trkpt lat="44.24434" lon="6.73233">
        <ele>2423.8</ele>
        <time>2023-07-27T12:09:36.229Z</time>
      </trkpt>
      <trkpt lat="44.24431" lon="6.73241">
        <ele>2422.6</ele>
        <time>2023-07-27T12:09:46.449Z</time>
      </trkpt>
      <trkpt lat="44.24429" lon="6.73248">
        <ele>2422</ele>
        <time>2023-07-27T12:09:54.979Z</time>
      </trkpt>
      <trkpt lat="44.24426" lon="6.73255">
        <ele>2421</ele>
        <time>2023-07-27T12:10:04.212Z</time>
      </trkpt>
      <trkpt lat="44.24423" lon="6.73261">
        <ele>2419.9</ele>
        <time>2023-07-27T12:10:12.493Z</time>
      </trkpt>
      <trkpt lat="44.24422" lon="6.73268">
        <ele>2420.1</ele>
        <time>2023-07-27T12:10:22.939Z</time>
      </trkpt>
      <trkpt lat="44.2442" lon="6.73275">
        <ele>2419.7</ele>
        <time>2023-07-27T12:10:31.469Z</time>
      </trkpt>
      <trkpt lat="44.24418" lon="6.73281">
        <ele>2419.3</ele>
        <time>2023-07-27T12:10:38.959Z</time>
      </trkpt>
      <trkpt lat="44.24415" lon="6.73288">
        <ele>2418.6</ele>
        <time>2023-07-27T12:10:48.192Z</time>
      </trkpt>
      <trkpt lat="44.24414" lon="6.73294">
        <ele>2418.8</ele>
        <time>2023-07-27T12:10:57.390Z</time>
      </trkpt>
      <trkpt lat="44.24412" lon="6.73301">
        <ele>2418.6</ele>
        <time>2023-07-27T12:11:06.111Z</time>
      </trkpt>
      <trkpt lat="44.24409" lon="6.73306">
        <ele>2417.4</ele>
        <time>2023-07-27T12:11:13.493Z</time>
      </trkpt>
      <trkpt lat="44.24406" lon="6.73311">
        <ele>2416.1</ele>
        <time>2023-07-27T12:11:20.875Z</time>
      </trkpt>
      <trkpt lat="44.24405" lon="6.73317">
        <ele>2415.8</ele>
        <time>2023-07-27T12:11:27.847Z</time>
      </trkpt>
      <trkpt lat="44.24403" lon="6.73323">
        <ele>2415.5</ele>
        <time>2023-07-27T12:11:35.338Z</time>
      </trkpt>
      <trkpt lat="44.24405" lon="6.73331">
        <ele>2417.6</ele>
        <time>2023-07-27T12:12:15.429Z</time>
      </trkpt>
      <trkpt lat="44.24402" lon="6.73338">
        <ele>2416.3</ele>
        <time>2023-07-27T12:12:24.662Z</time>
      </trkpt>
      <trkpt lat="44.244" lon="6.73344">
        <ele>2415.4</ele>
        <time>2023-07-27T12:12:32.152Z</time>
      </trkpt>
      <trkpt lat="44.24397" lon="6.7335">
        <ele>2414</ele>
        <time>2023-07-27T12:12:40.434Z</time>
      </trkpt>
      <trkpt lat="44.24395" lon="6.73355">
        <ele>2413.1</ele>
        <time>2023-07-27T12:12:46.916Z</time>
      </trkpt>
      <trkpt lat="44.24391" lon="6.73362">
        <ele>2411.2</ele>
        <time>2023-07-27T12:12:57.050Z</time>
      </trkpt>
      <trkpt lat="44.24387" lon="6.73368">
        <ele>2409.2</ele>
        <time>2023-07-27T12:13:06.327Z</time>
      </trkpt>
      <trkpt lat="44.24386" lon="6.73374">
        <ele>2408.7</ele>
        <time>2023-07-27T12:13:13.300Z</time>
      </trkpt>
      <trkpt lat="44.24385" lon="6.7338">
        <ele>2408.2</ele>
        <time>2023-07-27T12:13:20.273Z</time>
      </trkpt>
      <trkpt lat="44.24388" lon="6.73388">
        <ele>2409.6</ele>
        <time>2023-07-27T12:13:45.327Z</time>
      </trkpt>
      <trkpt lat="44.24389" lon="6.73395">
        <ele>2410.3</ele>
        <time>2023-07-27T12:13:59.947Z</time>
      </trkpt>
      <trkpt lat="44.2439" lon="6.73402">
        <ele>2411.2</ele>
        <time>2023-07-27T12:14:16.864Z</time>
      </trkpt>
      <trkpt lat="44.24392" lon="6.73414">
        <ele>2412.9</ele>
        <time>2023-07-27T12:14:47.993Z</time>
      </trkpt>
      <trkpt lat="44.24391" lon="6.73426">
        <ele>2413.4</ele>
        <time>2023-07-27T12:15:06.785Z</time>
      </trkpt>
      <trkpt lat="44.24389" lon="6.73432">
        <ele>2412.7</ele>
        <time>2023-07-27T12:15:14.276Z</time>
      </trkpt>
      <trkpt lat="44.24387" lon="6.73438">
        <ele>2412.2</ele>
        <time>2023-07-27T12:15:21.766Z</time>
      </trkpt>
      <trkpt lat="44.24384" lon="6.73444">
        <ele>2411.1</ele>
        <time>2023-07-27T12:15:30.048Z</time>
      </trkpt>
      <trkpt lat="44.24381" lon="6.7345">
        <ele>2409.7</ele>
        <time>2023-07-27T12:15:38.330Z</time>
      </trkpt>
      <trkpt lat="44.24379" lon="6.73456">
        <ele>2408.7</ele>
        <time>2023-07-27T12:15:45.820Z</time>
      </trkpt>
      <trkpt lat="44.24377" lon="6.73463">
        <ele>2407.8</ele>
        <time>2023-07-27T12:15:54.350Z</time>
      </trkpt>
      <trkpt lat="44.24377" lon="6.7347">
        <ele>2408.1</ele>
        <time>2023-07-27T12:16:05.313Z</time>
      </trkpt>
      <trkpt lat="44.24378" lon="6.73477">
        <ele>2408.4</ele>
        <time>2023-07-27T12:16:16.449Z</time>
      </trkpt>
      <trkpt lat="44.24379" lon="6.73483">
        <ele>2408.6</ele>
        <time>2023-07-27T12:16:25.647Z</time>
      </trkpt>
      <trkpt lat="44.24381" lon="6.7349">
        <ele>2409.5</ele>
        <time>2023-07-27T12:16:42.889Z</time>
      </trkpt>
      <trkpt lat="44.24383" lon="6.73496">
        <ele>2410.4</ele>
        <time>2023-07-27T12:16:59.431Z</time>
      </trkpt>
      <trkpt lat="44.24385" lon="6.73502">
        <ele>2411.4</ele>
        <time>2023-07-27T12:17:17.397Z</time>
      </trkpt>
      <trkpt lat="44.24384" lon="6.7351">
        <ele>2410.5</ele>
        <time>2023-07-27T12:17:26.589Z</time>
      </trkpt>
      <trkpt lat="44.24384" lon="6.73518">
        <ele>2410.3</ele>
        <time>2023-07-27T12:17:35.905Z</time>
      </trkpt>
      <trkpt lat="44.24385" lon="6.73525">
        <ele>2410.9</ele>
        <time>2023-07-27T12:17:49.529Z</time>
      </trkpt>
      <trkpt lat="44.24386" lon="6.73533">
        <ele>2411.4</ele>
        <time>2023-07-27T12:18:03.418Z</time>
      </trkpt>
      <trkpt lat="44.24387" lon="6.7354">
        <ele>2412</ele>
        <time>2023-07-27T12:18:17.042Z</time>
      </trkpt>
      <trkpt lat="44.24388" lon="6.73547">
        <ele>2412.6</ele>
        <time>2023-07-27T12:18:30.666Z</time>
      </trkpt>
      <trkpt lat="44.24388" lon="6.73554">
        <ele>2412.3</ele>
        <time>2023-07-27T12:18:38.589Z</time>
      </trkpt>
      <trkpt lat="44.24389" lon="6.73561">
        <ele>2413.3</ele>
        <time>2023-07-27T12:18:56.832Z</time>
      </trkpt>
      <trkpt lat="44.24388" lon="6.73567">
        <ele>2412.7</ele>
        <time>2023-07-27T12:19:03.805Z</time>
      </trkpt>
      <trkpt lat="44.24386" lon="6.73573">
        <ele>2411.4</ele>
        <time>2023-07-27T12:19:11.295Z</time>
      </trkpt>
      <trkpt lat="44.24385" lon="6.73581">
        <ele>2411</ele>
        <time>2023-07-27T12:19:20.487Z</time>
      </trkpt>
      <trkpt lat="44.24388" lon="6.73586">
        <ele>2413.8</ele>
        <time>2023-07-27T12:20:04.779Z</time>
      </trkpt>
      <trkpt lat="44.24382" lon="6.73593">
        <ele>2410.6</ele>
        <time>2023-07-27T12:20:17.134Z</time>
      </trkpt>
      <trkpt lat="44.24381" lon="6.73599">
        <ele>2411</ele>
        <time>2023-07-27T12:20:27.841Z</time>
      </trkpt>
      <trkpt lat="44.2438" lon="6.73605">
        <ele>2411.4</ele>
        <time>2023-07-27T12:20:38.549Z</time>
      </trkpt>
      <trkpt lat="44.24375" lon="6.7361">
        <ele>2408.8</ele>
        <time>2023-07-27T12:20:48.267Z</time>
      </trkpt>
      <trkpt lat="44.24371" lon="6.73614">
        <ele>2406.7</ele>
        <time>2023-07-27T12:20:56.041Z</time>
      </trkpt>
      <trkpt lat="44.24368" lon="6.73621">
        <ele>2406.1</ele>
        <time>2023-07-27T12:21:05.274Z</time>
      </trkpt>
      <trkpt lat="44.24365" lon="6.73628">
        <ele>2405.4</ele>
        <time>2023-07-27T12:21:14.506Z</time>
      </trkpt>
      <trkpt lat="44.24363" lon="6.7364">
        <ele>2406.6</ele>
        <time>2023-07-27T12:21:39.655Z</time>
      </trkpt>
      <trkpt lat="44.24362" lon="6.73648">
        <ele>2407.3</ele>
        <time>2023-07-27T12:21:55.321Z</time>
      </trkpt>
      <trkpt lat="44.2436" lon="6.73655">
        <ele>2407</ele>
        <time>2023-07-27T12:22:03.851Z</time>
      </trkpt>
      <trkpt lat="44.24361" lon="6.73662">
        <ele>2409.1</ele>
        <time>2023-07-27T12:22:47.282Z</time>
      </trkpt>
      <trkpt lat="44.24363" lon="6.73669">
        <ele>2411.8</ele>
        <time>2023-07-27T12:23:38.462Z</time>
      </trkpt>
      <trkpt lat="44.24356" lon="6.73672">
        <ele>2407.1</ele>
        <time>2023-07-27T12:23:50.031Z</time>
      </trkpt>
      <trkpt lat="44.24352" lon="6.73677">
        <ele>2404.9</ele>
        <time>2023-07-27T12:23:58.514Z</time>
      </trkpt>
      <trkpt lat="44.24348" lon="6.73681">
        <ele>2402.5</ele>
        <time>2023-07-27T12:24:06.289Z</time>
      </trkpt>
      <trkpt lat="44.24343" lon="6.73687">
        <ele>2399.7</ele>
        <time>2023-07-27T12:24:16.707Z</time>
      </trkpt>
      <trkpt lat="44.24339" lon="6.73692">
        <ele>2397.4</ele>
        <time>2023-07-27T12:24:25.190Z</time>
      </trkpt>
      <trkpt lat="44.24346" lon="6.73698">
        <ele>2403.7</ele>
        <time>2023-07-27T12:25:43.061Z</time>
      </trkpt>
      <trkpt lat="44.24346" lon="6.73706">
        <ele>2403.3</ele>
        <time>2023-07-27T12:25:52.116Z</time>
      </trkpt>
      <trkpt lat="44.24346" lon="6.73713">
        <ele>2402.9</ele>
        <time>2023-07-27T12:26:00.039Z</time>
      </trkpt>
      <trkpt lat="44.24346" lon="6.73723">
        <ele>2402.3</ele>
        <time>2023-07-27T12:26:11.358Z</time>
      </trkpt>
      <trkpt lat="44.24345" lon="6.7373">
        <ele>2400.3</ele>
        <time>2023-07-27T12:26:19.437Z</time>
      </trkpt>
      <trkpt lat="44.24343" lon="6.73738">
        <ele>2397.4</ele>
        <time>2023-07-27T12:26:29.027Z</time>
      </trkpt>
      <trkpt lat="44.24339" lon="6.73741">
        <ele>2393.7</ele>
        <time>2023-07-27T12:26:36.202Z</time>
      </trkpt>
      <trkpt lat="44.24337" lon="6.73747">
        <ele>2391.3</ele>
        <time>2023-07-27T12:26:43.692Z</time>
      </trkpt>
      <trkpt lat="44.24336" lon="6.73753">
        <ele>2389.8</ele>
        <time>2023-07-27T12:26:50.665Z</time>
      </trkpt>
      <trkpt lat="44.24339" lon="6.73757">
        <ele>2391.7</ele>
        <time>2023-07-27T12:27:29.994Z</time>
      </trkpt>
      <trkpt lat="44.24338" lon="6.73764">
        <ele>2390.3</ele>
        <time>2023-07-27T12:27:38.073Z</time>
      </trkpt>
      <trkpt lat="44.24336" lon="6.7377">
        <ele>2388.3</ele>
        <time>2023-07-27T12:27:45.563Z</time>
      </trkpt>
      <trkpt lat="44.24334" lon="6.73777">
        <ele>2386.5</ele>
        <time>2023-07-27T12:27:54.093Z</time>
      </trkpt>
      <trkpt lat="44.24334" lon="6.73783">
        <ele>2386.6</ele>
        <time>2023-07-27T12:28:02.439Z</time>
      </trkpt>
      <trkpt lat="44.24335" lon="6.7379">
        <ele>2387.3</ele>
        <time>2023-07-27T12:28:17.059Z</time>
      </trkpt>
      <trkpt lat="44.24335" lon="6.738">
        <ele>2387.5</ele>
        <time>2023-07-27T12:28:31.177Z</time>
      </trkpt>
      <trkpt lat="44.24336" lon="6.73808">
        <ele>2388.2</ele>
        <time>2023-07-27T12:28:46.843Z</time>
      </trkpt>
      <trkpt lat="44.24336" lon="6.73815">
        <ele>2388.6</ele>
        <time>2023-07-27T12:28:58.565Z</time>
      </trkpt>
      <trkpt lat="44.24333" lon="6.73821">
        <ele>2387.9</ele>
        <time>2023-07-27T12:29:06.847Z</time>
      </trkpt>
      <trkpt lat="44.2433" lon="6.73828">
        <ele>2387</ele>
        <time>2023-07-27T12:29:16.080Z</time>
      </trkpt>
      <trkpt lat="44.24328" lon="6.73834">
        <ele>2386.5</ele>
        <time>2023-07-27T12:29:23.570Z</time>
      </trkpt>
      <trkpt lat="44.24327" lon="6.7384">
        <ele>2386.3</ele>
        <time>2023-07-27T12:29:30.543Z</time>
      </trkpt>
      <trkpt lat="44.24326" lon="6.73847">
        <ele>2386.1</ele>
        <time>2023-07-27T12:29:38.752Z</time>
      </trkpt>
      <trkpt lat="44.24325" lon="6.73854">
        <ele>2385.8</ele>
        <time>2023-07-27T12:29:46.831Z</time>
      </trkpt>
      <trkpt lat="44.24323" lon="6.7386">
        <ele>2385.1</ele>
        <time>2023-07-27T12:29:54.322Z</time>
      </trkpt>
      <trkpt lat="44.24321" lon="6.73866">
        <ele>2384.3</ele>
        <time>2023-07-27T12:30:01.812Z</time>
      </trkpt>
      <trkpt lat="44.24318" lon="6.73875">
        <ele>2383.2</ele>
        <time>2023-07-27T12:30:13.048Z</time>
      </trkpt>
      <trkpt lat="44.2432" lon="6.73887">
        <ele>2384.2</ele>
        <time>2023-07-27T12:30:36.229Z</time>
      </trkpt>
      <trkpt lat="44.24322" lon="6.73898">
        <ele>2383.8</ele>
        <time>2023-07-27T12:30:49.074Z</time>
      </trkpt>
      <trkpt lat="44.24326" lon="6.73902">
        <ele>2384.5</ele>
        <time>2023-07-27T12:31:03.421Z</time>
      </trkpt>
      <trkpt lat="44.2433" lon="6.73906">
        <ele>2385</ele>
        <time>2023-07-27T12:31:15.823Z</time>
      </trkpt>
      <trkpt lat="44.24332" lon="6.73914">
        <ele>2384.2</ele>
        <time>2023-07-27T12:31:25.414Z</time>
      </trkpt>
      <trkpt lat="44.24336" lon="6.73915">
        <ele>2384.4</ele>
        <time>2023-07-27T12:31:33.992Z</time>
      </trkpt>
      <trkpt lat="44.2434" lon="6.73917">
        <ele>2384.2</ele>
        <time>2023-07-27T12:31:40.706Z</time>
      </trkpt>
      <trkpt lat="44.24345" lon="6.73917">
        <ele>2384.3</ele>
        <time>2023-07-27T12:31:50.315Z</time>
      </trkpt>
      <trkpt lat="44.24348" lon="6.73919">
        <ele>2383.9</ele>
        <time>2023-07-27T12:31:55.568Z</time>
      </trkpt>
      <trkpt lat="44.2435" lon="6.73918">
        <ele>2384.3</ele>
        <time>2023-07-27T12:32:02.936Z</time>
      </trkpt>
      <trkpt lat="44.24355" lon="6.7392">
        <ele>2383.9</ele>
        <time>2023-07-27T12:32:11.154Z</time>
      </trkpt>
      <trkpt lat="44.24357" lon="6.73921">
        <ele>2383.7</ele>
        <time>2023-07-27T12:32:14.510Z</time>
      </trkpt>
      <trkpt lat="44.24361" lon="6.73925">
        <ele>2382.6</ele>
        <time>2023-07-27T12:32:22.284Z</time>
      </trkpt>
      <trkpt lat="44.24365" lon="6.73928">
        <ele>2381.7</ele>
        <time>2023-07-27T12:32:29.459Z</time>
      </trkpt>
      <trkpt lat="44.24369" lon="6.73931">
        <ele>2380.7</ele>
        <time>2023-07-27T12:32:36.633Z</time>
      </trkpt>
      <trkpt lat="44.24374" lon="6.73935">
        <ele>2379.6</ele>
        <time>2023-07-27T12:32:45.739Z</time>
      </trkpt>
      <trkpt lat="44.24379" lon="6.73937">
        <ele>2379</ele>
        <time>2023-07-27T12:32:53.956Z</time>
      </trkpt>
      <trkpt lat="44.24384" lon="6.73938">
        <ele>2378.7</ele>
        <time>2023-07-27T12:33:01.937Z</time>
      </trkpt>
      <trkpt lat="44.24389" lon="6.7394">
        <ele>2378.1</ele>
        <time>2023-07-27T12:33:10.155Z</time>
      </trkpt>
      <trkpt lat="44.24393" lon="6.73943">
        <ele>2376.9</ele>
        <time>2023-07-27T12:33:17.329Z</time>
      </trkpt>
      <trkpt lat="44.24399" lon="6.7394">
        <ele>2377</ele>
        <time>2023-07-27T12:33:29.413Z</time>
      </trkpt>
      <trkpt lat="44.24403" lon="6.73937">
        <ele>2377.4</ele>
        <time>2023-07-27T12:33:40.334Z</time>
      </trkpt>
      <trkpt lat="44.24407" lon="6.73934">
        <ele>2377.7</ele>
        <time>2023-07-27T12:33:50.469Z</time>
      </trkpt>
      <trkpt lat="44.24415" lon="6.73939">
        <ele>2375.6</ele>
        <time>2023-07-27T12:34:04.318Z</time>
      </trkpt>
      <trkpt lat="44.2442" lon="6.7394">
        <ele>2375</ele>
        <time>2023-07-27T12:34:12.299Z</time>
      </trkpt>
      <trkpt lat="44.24425" lon="6.73941">
        <ele>2374.6</ele>
        <time>2023-07-27T12:34:20.279Z</time>
      </trkpt>
      <trkpt lat="44.2443" lon="6.73942">
        <ele>2374.1</ele>
        <time>2023-07-27T12:34:28.260Z</time>
      </trkpt>
      <trkpt lat="44.24434" lon="6.73943">
        <ele>2373.7</ele>
        <time>2023-07-27T12:34:34.680Z</time>
      </trkpt>
      <trkpt lat="44.24438" lon="6.73947">
        <ele>2372.7</ele>
        <time>2023-07-27T12:34:42.455Z</time>
      </trkpt>
      <trkpt lat="44.24442" lon="6.7395">
        <ele>2371.7</ele>
        <time>2023-07-27T12:34:49.629Z</time>
      </trkpt>
      <trkpt lat="44.24446" lon="6.7395">
        <ele>2371.5</ele>
        <time>2023-07-27T12:34:55.949Z</time>
      </trkpt>
      <trkpt lat="44.24451" lon="6.7395">
        <ele>2371.1</ele>
        <time>2023-07-27T12:35:03.849Z</time>
      </trkpt>
      <trkpt lat="44.24456" lon="6.73949">
        <ele>2371</ele>
        <time>2023-07-27T12:35:12.437Z</time>
      </trkpt>
      <trkpt lat="44.24462" lon="6.73949">
        <ele>2370.6</ele>
        <time>2023-07-27T12:35:21.917Z</time>
      </trkpt>
      <trkpt lat="44.24467" lon="6.7395">
        <ele>2370</ele>
        <time>2023-07-27T12:35:29.897Z</time>
      </trkpt>
      <trkpt lat="44.24472" lon="6.73951">
        <ele>2369.4</ele>
        <time>2023-07-27T12:35:37.878Z</time>
      </trkpt>
      <trkpt lat="44.2448" lon="6.73955">
        <ele>2368.1</ele>
        <time>2023-07-27T12:35:51.304Z</time>
      </trkpt>
      <trkpt lat="44.24488" lon="6.73954">
        <ele>2368</ele>
        <time>2023-07-27T12:36:05.266Z</time>
      </trkpt>
      <trkpt lat="44.24496" lon="6.73957">
        <ele>2367</ele>
        <time>2023-07-27T12:36:18.354Z</time>
      </trkpt>
      <trkpt lat="44.24503" lon="6.73963">
        <ele>2365.2</ele>
        <time>2023-07-27T12:36:31.332Z</time>
      </trkpt>
      <trkpt lat="44.24508" lon="6.73965">
        <ele>2364.5</ele>
        <time>2023-07-27T12:36:39.550Z</time>
      </trkpt>
      <trkpt lat="44.24512" lon="6.73968">
        <ele>2363.4</ele>
        <time>2023-07-27T12:36:46.725Z</time>
      </trkpt>
      <trkpt lat="44.24517" lon="6.73968">
        <ele>2363.1</ele>
        <time>2023-07-27T12:36:54.625Z</time>
      </trkpt>
      <trkpt lat="44.24522" lon="6.73969">
        <ele>2362.5</ele>
        <time>2023-07-27T12:37:02.605Z</time>
      </trkpt>
      <trkpt lat="44.24526" lon="6.7397">
        <ele>2361.9</ele>
        <time>2023-07-27T12:37:09.026Z</time>
      </trkpt>
      <trkpt lat="44.24531" lon="6.7397">
        <ele>2361.8</ele>
        <time>2023-07-27T12:37:17.521Z</time>
      </trkpt>
      <trkpt lat="44.24536" lon="6.7397">
        <ele>2361.8</ele>
        <time>2023-07-27T12:37:26.550Z</time>
      </trkpt>
      <trkpt lat="44.24541" lon="6.73969">
        <ele>2362.2</ele>
        <time>2023-07-27T12:37:38.334Z</time>
      </trkpt>
      <trkpt lat="44.24546" lon="6.7397">
        <ele>2361.8</ele>
        <time>2023-07-27T12:37:46.315Z</time>
      </trkpt>
      <trkpt lat="44.2455" lon="6.73971">
        <ele>2361.4</ele>
        <time>2023-07-27T12:37:52.735Z</time>
      </trkpt>
      <trkpt lat="44.24555" lon="6.73972">
        <ele>2361.1</ele>
        <time>2023-07-27T12:38:00.716Z</time>
      </trkpt>
      <trkpt lat="44.2456" lon="6.73973">
        <ele>2360.6</ele>
        <time>2023-07-27T12:38:08.697Z</time>
      </trkpt>
      <trkpt lat="44.24566" lon="6.73977">
        <ele>2359.5</ele>
        <time>2023-07-27T12:38:19.202Z</time>
      </trkpt>
      <trkpt lat="44.24566" lon="6.73984">
        <ele>2357.8</ele>
        <time>2023-07-27T12:38:27.125Z</time>
      </trkpt>
      <trkpt lat="44.24567" lon="6.73991">
        <ele>2356.1</ele>
        <time>2023-07-27T12:38:35.204Z</time>
      </trkpt>
      <trkpt lat="44.2457" lon="6.73991">
        <ele>2356.1</ele>
        <time>2023-07-27T12:38:40.621Z</time>
      </trkpt>
      <trkpt lat="44.24575" lon="6.73992">
        <ele>2355.8</ele>
        <time>2023-07-27T12:38:48.601Z</time>
      </trkpt>
      <trkpt lat="44.2458" lon="6.73992">
        <ele>2355.8</ele>
        <time>2023-07-27T12:38:57.630Z</time>
      </trkpt>
      <trkpt lat="44.24588" lon="6.73989">
        <ele>2355.8</ele>
        <time>2023-07-27T12:39:12.587Z</time>
      </trkpt>
      <trkpt lat="44.2459" lon="6.73988">
        <ele>2355.8</ele>
        <time>2023-07-27T12:39:16.424Z</time>
      </trkpt>
      <trkpt lat="44.24595" lon="6.73989">
        <ele>2355.1</ele>
        <time>2023-07-27T12:39:24.404Z</time>
      </trkpt>
      <trkpt lat="44.24599" lon="6.7399">
        <ele>2354.3</ele>
        <time>2023-07-27T12:39:30.825Z</time>
      </trkpt>
      <trkpt lat="44.24604" lon="6.7399">
        <ele>2353.7</ele>
        <time>2023-07-27T12:39:38.725Z</time>
      </trkpt>
      <trkpt lat="44.24609" lon="6.7399">
        <ele>2353.1</ele>
        <time>2023-07-27T12:39:46.624Z</time>
      </trkpt>
      <trkpt lat="44.24614" lon="6.73989">
        <ele>2352.8</ele>
        <time>2023-07-27T12:39:54.605Z</time>
      </trkpt>
      <trkpt lat="44.24618" lon="6.73987">
        <ele>2353</ele>
        <time>2023-07-27T12:40:03.512Z</time>
      </trkpt>
      <trkpt lat="44.24621" lon="6.73986">
        <ele>2353</ele>
        <time>2023-07-27T12:40:09.081Z</time>
      </trkpt>
      <trkpt lat="44.24627" lon="6.73987">
        <ele>2352</ele>
        <time>2023-07-27T12:40:18.629Z</time>
      </trkpt>
      <trkpt lat="44.24632" lon="6.73988">
        <ele>2351.1</ele>
        <time>2023-07-27T12:40:26.609Z</time>
      </trkpt>
      <trkpt lat="44.24637" lon="6.73988">
        <ele>2350.5</ele>
        <time>2023-07-27T12:40:34.509Z</time>
      </trkpt>
      <trkpt lat="44.24645" lon="6.73989">
        <ele>2348.6</ele>
        <time>2023-07-27T12:40:47.199Z</time>
      </trkpt>
      <trkpt lat="44.2465" lon="6.7399">
        <ele>2347.2</ele>
        <time>2023-07-27T12:40:55.180Z</time>
      </trkpt>
      <trkpt lat="44.24655" lon="6.73992">
        <ele>2345.5</ele>
        <time>2023-07-27T12:41:03.398Z</time>
      </trkpt>
      <trkpt lat="44.2466" lon="6.73993">
        <ele>2344.2</ele>
        <time>2023-07-27T12:41:11.378Z</time>
      </trkpt>
      <trkpt lat="44.24664" lon="6.73994">
        <ele>2343.1</ele>
        <time>2023-07-27T12:41:17.799Z</time>
      </trkpt>
      <trkpt lat="44.24668" lon="6.73995">
        <ele>2341.9</ele>
        <time>2023-07-27T12:41:24.219Z</time>
      </trkpt>
      <trkpt lat="44.24673" lon="6.73997">
        <ele>2340.1</ele>
        <time>2023-07-27T12:41:32.437Z</time>
      </trkpt>
      <trkpt lat="44.24678" lon="6.73996">
        <ele>2339.2</ele>
        <time>2023-07-27T12:41:40.418Z</time>
      </trkpt>
      <trkpt lat="44.24682" lon="6.73994">
        <ele>2338.3</ele>
        <time>2023-07-27T12:41:47.131Z</time>
      </trkpt>
      <trkpt lat="44.24685" lon="6.73987">
        <ele>2338.7</ele>
        <time>2023-07-27T12:42:00.278Z</time>
      </trkpt>
      <trkpt lat="44.24688" lon="6.73981">
        <ele>2338.8</ele>
        <time>2023-07-27T12:42:10.322Z</time>
      </trkpt>
      <trkpt lat="44.24691" lon="6.73975">
        <ele>2338.8</ele>
        <time>2023-07-27T12:42:19.787Z</time>
      </trkpt>
      <trkpt lat="44.24694" lon="6.7397">
        <ele>2338.8</ele>
        <time>2023-07-27T12:42:28.223Z</time>
      </trkpt>
      <trkpt lat="44.24698" lon="6.73966">
        <ele>2339.7</ele>
        <time>2023-07-27T12:42:44.939Z</time>
      </trkpt>
      <trkpt lat="44.24701" lon="6.73961">
        <ele>2340.9</ele>
        <time>2023-07-27T12:43:06.250Z</time>
      </trkpt>
      <trkpt lat="44.24707" lon="6.73961">
        <ele>2340.5</ele>
        <time>2023-07-27T12:43:15.730Z</time>
      </trkpt>
      <trkpt lat="44.24714" lon="6.7396">
        <ele>2340.4</ele>
        <time>2023-07-27T12:43:27.897Z</time>
      </trkpt>
      <trkpt lat="44.24719" lon="6.73958">
        <ele>2340.8</ele>
        <time>2023-07-27T12:43:39.938Z</time>
      </trkpt>
      <trkpt lat="44.24724" lon="6.73956">
        <ele>2341</ele>
        <time>2023-07-27T12:43:50.540Z</time>
      </trkpt>
      <trkpt lat="44.24728" lon="6.73952">
        <ele>2341.5</ele>
        <time>2023-07-27T12:44:02.943Z</time>
      </trkpt>
      <trkpt lat="44.24732" lon="6.73948">
        <ele>2341.9</ele>
        <time>2023-07-27T12:44:14.505Z</time>
      </trkpt>
      <trkpt lat="44.24736" lon="6.73945">
        <ele>2342</ele>
        <time>2023-07-27T12:44:23.287Z</time>
      </trkpt>
      <trkpt lat="44.2474" lon="6.73941">
        <ele>2342.1</ele>
        <time>2023-07-27T12:44:32.753Z</time>
      </trkpt>
      <trkpt lat="44.24747" lon="6.73946">
        <ele>2339.3</ele>
        <time>2023-07-27T12:44:45.177Z</time>
      </trkpt>
      <trkpt lat="44.24748" lon="6.73953">
        <ele>2337.5</ele>
        <time>2023-07-27T12:44:53.255Z</time>
      </trkpt>
      <trkpt lat="44.24749" lon="6.7396">
        <ele>2335.8</ele>
        <time>2023-07-27T12:45:01.334Z</time>
      </trkpt>
      <trkpt lat="44.24752" lon="6.73965">
        <ele>2334.6</ele>
        <time>2023-07-27T12:45:08.715Z</time>
      </trkpt>
      <trkpt lat="44.24756" lon="6.7397">
        <ele>2333.5</ele>
        <time>2023-07-27T12:45:17.199Z</time>
      </trkpt>
      <trkpt lat="44.24761" lon="6.7397">
        <ele>2333.5</ele>
        <time>2023-07-27T12:45:26.227Z</time>
      </trkpt>
      <trkpt lat="44.24765" lon="6.7397">
        <ele>2333.5</ele>
        <time>2023-07-27T12:45:33.450Z</time>
      </trkpt>
      <trkpt lat="44.24769" lon="6.73971">
        <ele>2333.3</ele>
        <time>2023-07-27T12:45:39.870Z</time>
      </trkpt>
      <trkpt lat="44.24774" lon="6.73973">
        <ele>2332.8</ele>
        <time>2023-07-27T12:45:48.088Z</time>
      </trkpt>
      <trkpt lat="44.24778" lon="6.73973">
        <ele>2332.8</ele>
        <time>2023-07-27T12:45:55.311Z</time>
      </trkpt>
      <trkpt lat="44.24783" lon="6.73974">
        <ele>2332.8</ele>
        <time>2023-07-27T12:46:04.432Z</time>
      </trkpt>
      <trkpt lat="44.24788" lon="6.73978">
        <ele>2332.1</ele>
        <time>2023-07-27T12:46:13.537Z</time>
      </trkpt>
      <trkpt lat="44.24794" lon="6.73983">
        <ele>2331.3</ele>
        <time>2023-07-27T12:46:24.577Z</time>
      </trkpt>
      <trkpt lat="44.24799" lon="6.73991">
        <ele>2330.1</ele>
        <time>2023-07-27T12:46:36.593Z</time>
      </trkpt>
      <trkpt lat="44.24805" lon="6.74">
        <ele>2328.9</ele>
        <time>2023-07-27T12:46:50.508Z</time>
      </trkpt>
      <trkpt lat="44.24807" lon="6.7401">
        <ele>2327</ele>
        <time>2023-07-27T12:47:02.259Z</time>
      </trkpt>
      <trkpt lat="44.24813" lon="6.74018">
        <ele>2325.9</ele>
        <time>2023-07-27T12:47:15.368Z</time>
      </trkpt>
      <trkpt lat="44.24817" lon="6.74022">
        <ele>2325.5</ele>
        <time>2023-07-27T12:47:23.142Z</time>
      </trkpt>
      <trkpt lat="44.24821" lon="6.74026">
        <ele>2325.1</ele>
        <time>2023-07-27T12:47:30.916Z</time>
      </trkpt>
      <trkpt lat="44.24824" lon="6.7403">
        <ele>2324.5</ele>
        <time>2023-07-27T12:47:37.471Z</time>
      </trkpt>
      <trkpt lat="44.24828" lon="6.74034">
        <ele>2324.1</ele>
        <time>2023-07-27T12:47:45.245Z</time>
      </trkpt>
      <trkpt lat="44.24832" lon="6.74037">
        <ele>2323.9</ele>
        <time>2023-07-27T12:47:52.430Z</time>
      </trkpt>
      <trkpt lat="44.24836" lon="6.7404">
        <ele>2323.5</ele>
        <time>2023-07-27T12:47:59.605Z</time>
      </trkpt>
      <trkpt lat="44.2484" lon="6.74043">
        <ele>2323</ele>
        <time>2023-07-27T12:48:06.779Z</time>
      </trkpt>
      <trkpt lat="44.24845" lon="6.74045">
        <ele>2322.7</ele>
        <time>2023-07-27T12:48:14.997Z</time>
      </trkpt>
      <trkpt lat="44.24849" lon="6.74048">
        <ele>2322.2</ele>
        <time>2023-07-27T12:48:22.171Z</time>
      </trkpt>
      <trkpt lat="44.24853" lon="6.74051">
        <ele>2321.7</ele>
        <time>2023-07-27T12:48:29.345Z</time>
      </trkpt>
      <trkpt lat="44.2486" lon="6.74058">
        <ele>2320.4</ele>
        <time>2023-07-27T12:48:42.950Z</time>
      </trkpt>
      <trkpt lat="44.24865" lon="6.74061">
        <ele>2320</ele>
        <time>2023-07-27T12:48:51.548Z</time>
      </trkpt>
      <trkpt lat="44.2487" lon="6.74064">
        <ele>2319.5</ele>
        <time>2023-07-27T12:49:00.147Z</time>
      </trkpt>
      <trkpt lat="44.24874" lon="6.74066">
        <ele>2319.2</ele>
        <time>2023-07-27T12:49:06.860Z</time>
      </trkpt>
      <trkpt lat="44.24878" lon="6.74069">
        <ele>2318.7</ele>
        <time>2023-07-27T12:49:14.034Z</time>
      </trkpt>
      <trkpt lat="44.24882" lon="6.74072">
        <ele>2318.2</ele>
        <time>2023-07-27T12:49:21.209Z</time>
      </trkpt>
      <trkpt lat="44.24887" lon="6.74074">
        <ele>2317.9</ele>
        <time>2023-07-27T12:49:29.426Z</time>
      </trkpt>
      <trkpt lat="44.24892" lon="6.74074">
        <ele>2318.1</ele>
        <time>2023-07-27T12:49:39.670Z</time>
      </trkpt>
      <trkpt lat="44.24897" lon="6.74074">
        <ele>2318.3</ele>
        <time>2023-07-27T12:49:49.913Z</time>
      </trkpt>
      <trkpt lat="44.24898" lon="6.74084">
        <ele>2316.2</ele>
        <time>2023-07-27T12:50:01.341Z</time>
      </trkpt>
      <trkpt lat="44.24902" lon="6.74089">
        <ele>2315.3</ele>
        <time>2023-07-27T12:50:09.824Z</time>
      </trkpt>
      <trkpt lat="44.24905" lon="6.74093">
        <ele>2314.5</ele>
        <time>2023-07-27T12:50:16.378Z</time>
      </trkpt>
      <trkpt lat="44.2491" lon="6.74092">
        <ele>2314.9</ele>
        <time>2023-07-27T12:50:28.163Z</time>
      </trkpt>
      <trkpt lat="44.24915" lon="6.74092">
        <ele>2315.1</ele>
        <time>2023-07-27T12:50:38.406Z</time>
      </trkpt>
      <trkpt lat="44.24919" lon="6.74095">
        <ele>2314.3</ele>
        <time>2023-07-27T12:50:45.580Z</time>
      </trkpt>
      <trkpt lat="44.24923" lon="6.74098">
        <ele>2313.4</ele>
        <time>2023-07-27T12:50:52.755Z</time>
      </trkpt>
      <trkpt lat="44.24931" lon="6.74103">
        <ele>2311.7</ele>
        <time>2023-07-27T12:51:06.603Z</time>
      </trkpt>
      <trkpt lat="44.24936" lon="6.74103">
        <ele>2311.4</ele>
        <time>2023-07-27T12:51:14.503Z</time>
      </trkpt>
      <trkpt lat="44.2494" lon="6.74102">
        <ele>2311.3</ele>
        <time>2023-07-27T12:51:21.313Z</time>
      </trkpt>
      <trkpt lat="44.24944" lon="6.74099">
        <ele>2311.6</ele>
        <time>2023-07-27T12:51:31.449Z</time>
      </trkpt>
      <trkpt lat="44.24948" lon="6.74095">
        <ele>2312.4</ele>
        <time>2023-07-27T12:51:46.921Z</time>
      </trkpt>
      <trkpt lat="44.24956" lon="6.74095">
        <ele>2312.1</ele>
        <time>2023-07-27T12:51:59.825Z</time>
      </trkpt>
      <trkpt lat="44.24962" lon="6.74093">
        <ele>2312.5</ele>
        <time>2023-07-27T12:52:13.538Z</time>
      </trkpt>
      <trkpt lat="44.24968" lon="6.74092">
        <ele>2312.6</ele>
        <time>2023-07-27T12:52:25.026Z</time>
      </trkpt>
      <trkpt lat="44.24973" lon="6.74093">
        <ele>2312.6</ele>
        <time>2023-07-27T12:52:34.146Z</time>
      </trkpt>
      <trkpt lat="44.24979" lon="6.74094">
        <ele>2315.4</ele>
        <time>2023-07-27T12:53:31.430Z</time>
      </trkpt>
      <trkpt lat="44.24985" lon="6.74097">
        <ele>2317.5</ele>
        <time>2023-07-27T12:54:10.756Z</time>
      </trkpt>
      <trkpt lat="44.24991" lon="6.74099">
        <ele>2319.9</ele>
        <time>2023-07-27T12:54:59.129Z</time>
      </trkpt>
      <trkpt lat="44.24996" lon="6.74104">
        <ele>2320.6</ele>
        <time>2023-07-27T12:55:15.311Z</time>
      </trkpt>
      <trkpt lat="44.25" lon="6.74109">
        <ele>2320.8</ele>
        <time>2023-07-27T12:55:26.214Z</time>
      </trkpt>
      <trkpt lat="44.24998" lon="6.74118">
        <ele>2316.9</ele>
        <time>2023-07-27T12:55:36.878Z</time>
      </trkpt>
      <trkpt lat="44.24996" lon="6.74128">
        <ele>2313</ele>
        <time>2023-07-27T12:55:48.629Z</time>
      </trkpt>
      <trkpt lat="44.24995" lon="6.74135">
        <ele>2310.5</ele>
        <time>2023-07-27T12:55:56.707Z</time>
      </trkpt>
      <trkpt lat="44.24994" lon="6.74142">
        <ele>2308.8</ele>
        <time>2023-07-27T12:56:04.785Z</time>
      </trkpt>
      <trkpt lat="44.24994" lon="6.74148">
        <ele>2308.3</ele>
        <time>2023-07-27T12:56:11.576Z</time>
      </trkpt>
      <trkpt lat="44.24994" lon="6.74155">
        <ele>2307.6</ele>
        <time>2023-07-27T12:56:19.498Z</time>
      </trkpt>
      <trkpt lat="44.24994" lon="6.74162">
        <ele>2307</ele>
        <time>2023-07-27T12:56:27.420Z</time>
      </trkpt>
      <trkpt lat="44.24993" lon="6.74169">
        <ele>2306</ele>
        <time>2023-07-27T12:56:35.498Z</time>
      </trkpt>
      <trkpt lat="44.24992" lon="6.74176">
        <ele>2304.7</ele>
        <time>2023-07-27T12:56:43.576Z</time>
      </trkpt>
      <trkpt lat="44.24991" lon="6.74184">
        <ele>2303.4</ele>
        <time>2023-07-27T12:56:52.767Z</time>
      </trkpt>
      <trkpt lat="44.24993" lon="6.74191">
        <ele>2303.4</ele>
        <time>2023-07-27T12:57:02.515Z</time>
      </trkpt>
      <trkpt lat="44.24993" lon="6.74199">
        <ele>2302.6</ele>
        <time>2023-07-27T12:57:11.569Z</time>
      </trkpt>
      <trkpt lat="44.24993" lon="6.74207">
        <ele>2302.1</ele>
        <time>2023-07-27T12:57:20.623Z</time>
      </trkpt>
      <trkpt lat="44.24993" lon="6.74215">
        <ele>2301.5</ele>
        <time>2023-07-27T12:57:29.677Z</time>
      </trkpt>
      <trkpt lat="44.24992" lon="6.74222">
        <ele>2300.6</ele>
        <time>2023-07-27T12:57:37.755Z</time>
      </trkpt>
      <trkpt lat="44.24991" lon="6.74229">
        <ele>2299.1</ele>
        <time>2023-07-27T12:57:45.833Z</time>
      </trkpt>
      <trkpt lat="44.2499" lon="6.74236">
        <ele>2297.7</ele>
        <time>2023-07-27T12:57:53.912Z</time>
      </trkpt>
      <trkpt lat="44.24991" lon="6.74242">
        <ele>2297.3</ele>
        <time>2023-07-27T12:58:00.883Z</time>
      </trkpt>
      <trkpt lat="44.24992" lon="6.74249">
        <ele>2296.7</ele>
        <time>2023-07-27T12:58:08.962Z</time>
      </trkpt>
      <trkpt lat="44.24996" lon="6.7426">
        <ele>2296.6</ele>
        <time>2023-07-27T12:58:24.375Z</time>
      </trkpt>
      <trkpt lat="44.24998" lon="6.74266">
        <ele>2296.4</ele>
        <time>2023-07-27T12:58:31.917Z</time>
      </trkpt>
      <trkpt lat="44.25" lon="6.74273">
        <ele>2295.9</ele>
        <time>2023-07-27T12:58:40.447Z</time>
      </trkpt>
      <trkpt lat="44.25002" lon="6.74278">
        <ele>2295.8</ele>
        <time>2023-07-27T12:58:47.326Z</time>
      </trkpt>
      <trkpt lat="44.25004" lon="6.74284">
        <ele>2295.4</ele>
        <time>2023-07-27T12:58:54.816Z</time>
      </trkpt>
      <trkpt lat="44.25008" lon="6.74288">
        <ele>2296.2</ele>
        <time>2023-07-27T12:59:10.288Z</time>
      </trkpt>
      <trkpt lat="44.25011" lon="6.74292">
        <ele>2297.1</ele>
        <time>2023-07-27T12:59:26.389Z</time>
      </trkpt>
      <trkpt lat="44.25016" lon="6.74302">
        <ele>2297.7</ele>
        <time>2023-07-27T12:59:46.059Z</time>
      </trkpt>
      <trkpt lat="44.25016" lon="6.74308">
        <ele>2296.6</ele>
        <time>2023-07-27T12:59:52.850Z</time>
      </trkpt>
      <trkpt lat="44.25015" lon="6.74315">
        <ele>2294.7</ele>
        <time>2023-07-27T13:00:00.928Z</time>
      </trkpt>
      <trkpt lat="44.25013" lon="6.74321">
        <ele>2292.5</ele>
        <time>2023-07-27T13:00:08.417Z</time>
      </trkpt>
      <trkpt lat="44.25011" lon="6.74328">
        <ele>2290.2</ele>
        <time>2023-07-27T13:00:16.947Z</time>
      </trkpt>
      <trkpt lat="44.2501" lon="6.74334">
        <ele>2288.5</ele>
        <time>2023-07-27T13:00:23.918Z</time>
      </trkpt>
      <trkpt lat="44.25009" lon="6.74341">
        <ele>2286.3</ele>
        <time>2023-07-27T13:00:31.997Z</time>
      </trkpt>
      <trkpt lat="44.25009" lon="6.74349">
        <ele>2284.3</ele>
        <time>2023-07-27T13:00:41.051Z</time>
      </trkpt>
      <trkpt lat="44.25009" lon="6.74357">
        <ele>2282.2</ele>
        <time>2023-07-27T13:00:50.105Z</time>
      </trkpt>
      <trkpt lat="44.25013" lon="6.74362">
        <ele>2282.8</ele>
        <time>2023-07-27T13:01:04.129Z</time>
      </trkpt>
      <trkpt lat="44.25016" lon="6.74367">
        <ele>2282.9</ele>
        <time>2023-07-27T13:01:13.147Z</time>
      </trkpt>
      <trkpt lat="44.25021" lon="6.74372">
        <ele>2283.8</ele>
        <time>2023-07-27T13:01:31.351Z</time>
      </trkpt>
      <trkpt lat="44.25025" lon="6.74376">
        <ele>2284.5</ele>
        <time>2023-07-27T13:01:45.697Z</time>
      </trkpt>
      <trkpt lat="44.25029" lon="6.74382">
        <ele>2284.5</ele>
        <time>2023-07-27T13:01:56.299Z</time>
      </trkpt>
      <trkpt lat="44.25032" lon="6.74388">
        <ele>2284.1</ele>
        <time>2023-07-27T13:02:04.580Z</time>
      </trkpt>
      <trkpt lat="44.25035" lon="6.74394">
        <ele>2283.1</ele>
        <time>2023-07-27T13:02:12.861Z</time>
      </trkpt>
      <trkpt lat="44.25038" lon="6.74399">
        <ele>2282.4</ele>
        <time>2023-07-27T13:02:20.243Z</time>
      </trkpt>
      <trkpt lat="44.25043" lon="6.74409">
        <ele>2280.6</ele>
        <time>2023-07-27T13:02:34.045Z</time>
      </trkpt>
      <trkpt lat="44.25046" lon="6.74415">
        <ele>2279.5</ele>
        <time>2023-07-27T13:02:42.326Z</time>
      </trkpt>
      <trkpt lat="44.25049" lon="6.74421">
        <ele>2278.5</ele>
        <time>2023-07-27T13:02:50.607Z</time>
      </trkpt>
      <trkpt lat="44.25053" lon="6.74427">
        <ele>2277.9</ele>
        <time>2023-07-27T13:02:59.883Z</time>
      </trkpt>
      <trkpt lat="44.25057" lon="6.74432">
        <ele>2277.3</ele>
        <time>2023-07-27T13:03:08.366Z</time>
      </trkpt>
      <trkpt lat="44.2506" lon="6.74436">
        <ele>2276.5</ele>
        <time>2023-07-27T13:03:14.921Z</time>
      </trkpt>
      <trkpt lat="44.25064" lon="6.7444">
        <ele>2275.9</ele>
        <time>2023-07-27T13:03:22.695Z</time>
      </trkpt>
      <trkpt lat="44.25068" lon="6.74445">
        <ele>2274.9</ele>
        <time>2023-07-27T13:03:31.178Z</time>
      </trkpt>
      <trkpt lat="44.25071" lon="6.74449">
        <ele>2273.8</ele>
        <time>2023-07-27T13:03:37.732Z</time>
      </trkpt>
      <trkpt lat="44.25076" lon="6.74453">
        <ele>2273.2</ele>
        <time>2023-07-27T13:03:46.837Z</time>
      </trkpt>
      <trkpt lat="44.25081" lon="6.74456">
        <ele>2273</ele>
        <time>2023-07-27T13:03:55.635Z</time>
      </trkpt>
      <trkpt lat="44.25086" lon="6.7446">
        <ele>2271.9</ele>
        <time>2023-07-27T13:04:04.740Z</time>
      </trkpt>
      <trkpt lat="44.25092" lon="6.74463">
        <ele>2270.7</ele>
        <time>2023-07-27T13:04:14.810Z</time>
      </trkpt>
      <trkpt lat="44.25098" lon="6.74465">
        <ele>2270</ele>
        <time>2023-07-27T13:04:24.556Z</time>
      </trkpt>
      <trkpt lat="44.25104" lon="6.74466">
        <ele>2269.8</ele>
        <time>2023-07-27T13:04:34.431Z</time>
      </trkpt>
      <trkpt lat="44.25112" lon="6.74467">
        <ele>2269.5</ele>
        <time>2023-07-27T13:04:47.393Z</time>
      </trkpt>
      <trkpt lat="44.2512" lon="6.74467">
        <ele>2268.7</ele>
        <time>2023-07-27T13:05:00.033Z</time>
      </trkpt>
      <trkpt lat="44.25126" lon="6.74467">
        <ele>2268.1</ele>
        <time>2023-07-27T13:05:09.512Z</time>
      </trkpt>
      <trkpt lat="44.25131" lon="6.74468">
        <ele>2267.1</ele>
        <time>2023-07-27T13:05:17.493Z</time>
      </trkpt>
      <trkpt lat="44.25136" lon="6.74467">
        <ele>2267.1</ele>
        <time>2023-07-27T13:05:26.614Z</time>
      </trkpt>
      <trkpt lat="44.25141" lon="6.74467">
        <ele>2266.4</ele>
        <time>2023-07-27T13:05:34.514Z</time>
      </trkpt>
      <trkpt lat="44.25145" lon="6.74463">
        <ele>2267.7</ele>
        <time>2023-07-27T13:05:57.649Z</time>
      </trkpt>
      <trkpt lat="44.25152" lon="6.7446">
        <ele>2268</ele>
        <time>2023-07-27T13:06:12.697Z</time>
      </trkpt>
      <trkpt lat="44.25159" lon="6.74457">
        <ele>2268.3</ele>
        <time>2023-07-27T13:06:27.746Z</time>
      </trkpt>
      <trkpt lat="44.25164" lon="6.74454">
        <ele>2269</ele>
        <time>2023-07-27T13:06:42.845Z</time>
      </trkpt>
      <trkpt lat="44.25168" lon="6.74451">
        <ele>2270.6</ele>
        <time>2023-07-27T13:07:13.632Z</time>
      </trkpt>
      <trkpt lat="44.25171" lon="6.74456">
        <ele>2268.7</ele>
        <time>2023-07-27T13:07:21.013Z</time>
      </trkpt>
      <trkpt lat="44.25174" lon="6.74461">
        <ele>2266.7</ele>
        <time>2023-07-27T13:07:28.395Z</time>
      </trkpt>
      <trkpt lat="44.25178" lon="6.74465">
        <ele>2265.7</ele>
        <time>2023-07-27T13:07:36.169Z</time>
      </trkpt>
      <trkpt lat="44.25182" lon="6.74469">
        <ele>2264.8</ele>
        <time>2023-07-27T13:07:43.943Z</time>
      </trkpt>
      <trkpt lat="44.25188" lon="6.7447">
        <ele>2266.1</ele>
        <time>2023-07-27T13:08:07.228Z</time>
      </trkpt>
      <trkpt lat="44.25194" lon="6.74471">
        <ele>2267.5</ele>
        <time>2023-07-27T13:08:32.108Z</time>
      </trkpt>
      <trkpt lat="44.25198" lon="6.74478">
        <ele>2266.4</ele>
        <time>2023-07-27T13:08:42.242Z</time>
      </trkpt>
      <trkpt lat="44.252" lon="6.74486">
        <ele>2263.8</ele>
        <time>2023-07-27T13:08:51.831Z</time>
      </trkpt>
      <trkpt lat="44.25202" lon="6.74493">
        <ele>2261.5</ele>
        <time>2023-07-27T13:09:00.360Z</time>
      </trkpt>
      <trkpt lat="44.25205" lon="6.74499">
        <ele>2260.2</ele>
        <time>2023-07-27T13:09:08.641Z</time>
      </trkpt>
      <trkpt lat="44.25208" lon="6.74505">
        <ele>2258.8</ele>
        <time>2023-07-27T13:09:16.922Z</time>
      </trkpt>
      <trkpt lat="44.25213" lon="6.74515">
        <ele>2256.1</ele>
        <time>2023-07-27T13:09:30.723Z</time>
      </trkpt>
      <trkpt lat="44.25218" lon="6.74515">
        <ele>2258.4</ele>
        <time>2023-07-27T13:10:18.123Z</time>
      </trkpt>
      <trkpt lat="44.25224" lon="6.74514">
        <ele>2261.3</ele>
        <time>2023-07-27T13:11:15.406Z</time>
      </trkpt>
      <trkpt lat="44.25229" lon="6.74514">
        <ele>2262.1</ele>
        <time>2023-07-27T13:11:30.977Z</time>
      </trkpt>
      <trkpt lat="44.25233" lon="6.74514">
        <ele>2262.9</ele>
        <time>2023-07-27T13:11:45.497Z</time>
      </trkpt>
      <trkpt lat="44.25238" lon="6.74513">
        <ele>2264.4</ele>
        <time>2023-07-27T13:12:12.710Z</time>
      </trkpt>
      <trkpt lat="44.25243" lon="6.74513">
        <ele>2265.3</ele>
        <time>2023-07-27T13:12:29.507Z</time>
      </trkpt>
      <trkpt lat="44.25248" lon="6.74512">
        <ele>2266.9</ele>
        <time>2023-07-27T13:12:59.065Z</time>
      </trkpt>
      <trkpt lat="44.25253" lon="6.7451">
        <ele>2268.6</ele>
        <time>2023-07-27T13:13:30.807Z</time>
      </trkpt>
      <trkpt lat="44.25261" lon="6.74513">
        <ele>2266.9</ele>
        <time>2023-07-27T13:13:43.895Z</time>
      </trkpt>
      <trkpt lat="44.25265" lon="6.74509">
        <ele>2269.5</ele>
        <time>2023-07-27T13:14:30.538Z</time>
      </trkpt>
      <trkpt lat="44.25269" lon="6.74506">
        <ele>2271.4</ele>
        <time>2023-07-27T13:15:10.167Z</time>
      </trkpt>
      <trkpt lat="44.25274" lon="6.74506">
        <ele>2271.5</ele>
        <time>2023-07-27T13:15:19.776Z</time>
      </trkpt>
      <trkpt lat="44.25278" lon="6.74506">
        <ele>2271.6</ele>
        <time>2023-07-27T13:15:27.586Z</time>
      </trkpt>
      <trkpt lat="44.25284" lon="6.74507">
        <ele>2273.3</ele>
        <time>2023-07-27T13:15:58.087Z</time>
      </trkpt>
      <trkpt lat="44.25289" lon="6.74509">
        <ele>2274.1</ele>
        <time>2023-07-27T13:16:13.914Z</time>
      </trkpt>
      <trkpt lat="44.25294" lon="6.74513">
        <ele>2273.9</ele>
        <time>2023-07-27T13:16:23.286Z</time>
      </trkpt>
      <trkpt lat="44.25298" lon="6.74516">
        <ele>2273.9</ele>
        <time>2023-07-27T13:16:31.485Z</time>
      </trkpt>
      <trkpt lat="44.25302" lon="6.74522">
        <ele>2272.4</ele>
        <time>2023-07-27T13:16:40.762Z</time>
      </trkpt>
      <trkpt lat="44.25305" lon="6.74527">
        <ele>2271.2</ele>
        <time>2023-07-27T13:16:48.143Z</time>
      </trkpt>
      <trkpt lat="44.25311" lon="6.74531">
        <ele>2270.8</ele>
        <time>2023-07-27T13:16:58.648Z</time>
      </trkpt>
      <trkpt lat="44.25316" lon="6.74534">
        <ele>2270.7</ele>
        <time>2023-07-27T13:17:07.941Z</time>
      </trkpt>
      <trkpt lat="44.25321" lon="6.74533">
        <ele>2272</ele>
        <time>2023-07-27T13:17:31.031Z</time>
      </trkpt>
      <trkpt lat="44.25326" lon="6.74533">
        <ele>2272.9</ele>
        <time>2023-07-27T13:17:47.828Z</time>
      </trkpt>
      <trkpt lat="44.25332" lon="6.74533">
        <ele>2274.1</ele>
        <time>2023-07-27T13:18:09.608Z</time>
      </trkpt>
      <trkpt lat="44.25337" lon="6.74532">
        <ele>2275.2</ele>
        <time>2023-07-27T13:18:29.278Z</time>
      </trkpt>
      <trkpt lat="44.25342" lon="6.74532">
        <ele>2276</ele>
        <time>2023-07-27T13:18:44.848Z</time>
      </trkpt>
      <trkpt lat="44.25348" lon="6.74531">
        <ele>2277.3</ele>
        <time>2023-07-27T13:19:08.133Z</time>
      </trkpt>
      <trkpt lat="44.25353" lon="6.7453">
        <ele>2278.3</ele>
        <time>2023-07-27T13:19:26.324Z</time>
      </trkpt>
      <trkpt lat="44.25359" lon="6.74529">
        <ele>2279.4</ele>
        <time>2023-07-27T13:19:46.784Z</time>
      </trkpt>
      <trkpt lat="44.25364" lon="6.74527">
        <ele>2280.3</ele>
        <time>2023-07-27T13:20:03.798Z</time>
      </trkpt>
      <trkpt lat="44.25369" lon="6.74525">
        <ele>2281</ele>
        <time>2023-07-27T13:20:18.544Z</time>
      </trkpt>
      <trkpt lat="44.25374" lon="6.74523">
        <ele>2281.7</ele>
        <time>2023-07-27T13:20:33.289Z</time>
      </trkpt>
      <trkpt lat="44.2538" lon="6.74521">
        <ele>2282.4</ele>
        <time>2023-07-27T13:20:49.500Z</time>
      </trkpt>
      <trkpt lat="44.25385" lon="6.74519">
        <ele>2282.9</ele>
        <time>2023-07-27T13:21:02.362Z</time>
      </trkpt>
      <trkpt lat="44.2539" lon="6.74517">
        <ele>2283.4</ele>
        <time>2023-07-27T13:21:15.224Z</time>
      </trkpt>
      <trkpt lat="44.25398" lon="6.74512">
        <ele>2284.5</ele>
        <time>2023-07-27T13:21:39.270Z</time>
      </trkpt>
      <trkpt lat="44.25403" lon="6.7451">
        <ele>2284.7</ele>
        <time>2023-07-27T13:21:49.872Z</time>
      </trkpt>
      <trkpt lat="44.25408" lon="6.74507">
        <ele>2285.4</ele>
        <time>2023-07-27T13:22:04.971Z</time>
      </trkpt>
      <trkpt lat="44.25413" lon="6.74507">
        <ele>2285</ele>
        <time>2023-07-27T13:22:12.871Z</time>
      </trkpt>
      <trkpt lat="44.25419" lon="6.74507">
        <ele>2284.8</ele>
        <time>2023-07-27T13:22:22.669Z</time>
      </trkpt>
      <trkpt lat="44.25424" lon="6.74507">
        <ele>2284.8</ele>
        <time>2023-07-27T13:22:31.697Z</time>
      </trkpt>
      <trkpt lat="44.25428" lon="6.74507">
        <ele>2284.8</ele>
        <time>2023-07-27T13:22:38.920Z</time>
      </trkpt>
      <trkpt lat="44.25432" lon="6.74503">
        <ele>2286.1</ele>
        <time>2023-07-27T13:23:02.055Z</time>
      </trkpt>
      <trkpt lat="44.25436" lon="6.745">
        <ele>2287</ele>
        <time>2023-07-27T13:23:18.423Z</time>
      </trkpt>
      <trkpt lat="44.2544" lon="6.74498">
        <ele>2287.8</ele>
        <time>2023-07-27T13:23:33.159Z</time>
      </trkpt>
      <trkpt lat="44.25445" lon="6.74496">
        <ele>2288.6</ele>
        <time>2023-07-27T13:23:48.986Z</time>
      </trkpt>
      <trkpt lat="44.25449" lon="6.74493">
        <ele>2289.8</ele>
        <time>2023-07-27T13:24:10.342Z</time>
      </trkpt>
      <trkpt lat="44.25453" lon="6.7449">
        <ele>2290.8</ele>
        <time>2023-07-27T13:24:28.198Z</time>
      </trkpt>
      <trkpt lat="44.25457" lon="6.74486">
        <ele>2292.1</ele>
        <time>2023-07-27T13:24:51.333Z</time>
      </trkpt>
      <trkpt lat="44.25461" lon="6.74483">
        <ele>2292.9</ele>
        <time>2023-07-27T13:25:06.366Z</time>
      </trkpt>
      <trkpt lat="44.25466" lon="6.74479">
        <ele>2293.7</ele>
        <time>2023-07-27T13:25:22.958Z</time>
      </trkpt>
      <trkpt lat="44.2547" lon="6.74476">
        <ele>2294.2</ele>
        <time>2023-07-27T13:25:34.750Z</time>
      </trkpt>
      <trkpt lat="44.25475" lon="6.74474">
        <ele>2294.5</ele>
        <time>2023-07-27T13:25:46.040Z</time>
      </trkpt>
      <trkpt lat="44.2548" lon="6.74473">
        <ele>2294.5</ele>
        <time>2023-07-27T13:25:55.161Z</time>
      </trkpt>
      <trkpt lat="44.25485" lon="6.74471">
        <ele>2295.1</ele>
        <time>2023-07-27T13:26:08.921Z</time>
      </trkpt>
      <trkpt lat="44.2549" lon="6.74469">
        <ele>2295.8</ele>
        <time>2023-07-27T13:26:23.667Z</time>
      </trkpt>
      <trkpt lat="44.25495" lon="6.74468">
        <ele>2296.1</ele>
        <time>2023-07-27T13:26:34.693Z</time>
      </trkpt>
      <trkpt lat="44.25499" lon="6.74466">
        <ele>2296.7</ele>
        <time>2023-07-27T13:26:47.034Z</time>
      </trkpt>
      <trkpt lat="44.25504" lon="6.74465">
        <ele>2297.4</ele>
        <time>2023-07-27T13:27:01.565Z</time>
      </trkpt>
      <trkpt lat="44.25509" lon="6.74464">
        <ele>2298.1</ele>
        <time>2023-07-27T13:27:16.095Z</time>
      </trkpt>
      <trkpt lat="44.25514" lon="6.74466">
        <ele>2297.7</ele>
        <time>2023-07-27T13:27:24.313Z</time>
      </trkpt>
      <trkpt lat="44.25518" lon="6.74467">
        <ele>2297.7</ele>
        <time>2023-07-27T13:27:31.650Z</time>
      </trkpt>
      <trkpt lat="44.25523" lon="6.74467">
        <ele>2298.1</ele>
        <time>2023-07-27T13:27:43.348Z</time>
      </trkpt>
      <trkpt lat="44.25528" lon="6.74466">
        <ele>2298.8</ele>
        <time>2023-07-27T13:27:57.878Z</time>
      </trkpt>
      <trkpt lat="44.25533" lon="6.74467">
        <ele>2298.8</ele>
        <time>2023-07-27T13:28:06.999Z</time>
      </trkpt>
      <trkpt lat="44.25538" lon="6.74467">
        <ele>2299</ele>
        <time>2023-07-27T13:28:17.242Z</time>
      </trkpt>
      <trkpt lat="44.25543" lon="6.7447">
        <ele>2298.6</ele>
        <time>2023-07-27T13:28:25.841Z</time>
      </trkpt>
      <trkpt lat="44.25548" lon="6.74473">
        <ele>2298.5</ele>
        <time>2023-07-27T13:28:35.133Z</time>
      </trkpt>
      <trkpt lat="44.25553" lon="6.74473">
        <ele>2298.9</ele>
        <time>2023-07-27T13:28:46.831Z</time>
      </trkpt>
      <trkpt lat="44.25557" lon="6.74474">
        <ele>2299</ele>
        <time>2023-07-27T13:28:54.755Z</time>
      </trkpt>
      <trkpt lat="44.25562" lon="6.74472">
        <ele>2298.6</ele>
        <time>2023-07-27T13:29:02.973Z</time>
      </trkpt>
      <trkpt lat="44.25566" lon="6.7447">
        <ele>2298.6</ele>
        <time>2023-07-27T13:29:10.645Z</time>
      </trkpt>
      <trkpt lat="44.2557" lon="6.74467">
        <ele>2298.7</ele>
        <time>2023-07-27T13:29:19.427Z</time>
      </trkpt>
      <trkpt lat="44.25574" lon="6.74465">
        <ele>2298.6</ele>
        <time>2023-07-27T13:29:26.570Z</time>
      </trkpt>
      <trkpt lat="44.25579" lon="6.7446">
        <ele>2298.8</ele>
        <time>2023-07-27T13:29:38.870Z</time>
      </trkpt>
      <trkpt lat="44.25583" lon="6.74455">
        <ele>2298.9</ele>
        <time>2023-07-27T13:29:49.143Z</time>
      </trkpt>
      <trkpt lat="44.25588" lon="6.74454">
        <ele>2299</ele>
        <time>2023-07-27T13:29:58.845Z</time>
      </trkpt>
      <trkpt lat="44.25593" lon="6.74453">
        <ele>2299</ele>
        <time>2023-07-27T13:30:07.965Z</time>
      </trkpt>
      <trkpt lat="44.25599" lon="6.74452">
        <ele>2299.1</ele>
        <time>2023-07-27T13:30:19.453Z</time>
      </trkpt>
      <trkpt lat="44.25604" lon="6.74451">
        <ele>2299.1</ele>
        <time>2023-07-27T13:30:28.573Z</time>
      </trkpt>
      <trkpt lat="44.25609" lon="6.74449">
        <ele>2299</ele>
        <time>2023-07-27T13:30:37.431Z</time>
      </trkpt>
      <trkpt lat="44.25613" lon="6.74448">
        <ele>2299.1</ele>
        <time>2023-07-27T13:30:45.356Z</time>
      </trkpt>
      <trkpt lat="44.25618" lon="6.74447">
        <ele>2299.3</ele>
        <time>2023-07-27T13:30:55.690Z</time>
      </trkpt>
      <trkpt lat="44.25624" lon="6.74446">
        <ele>2299.5</ele>
        <time>2023-07-27T13:31:07.797Z</time>
      </trkpt>
      <trkpt lat="44.25628" lon="6.74443">
        <ele>2299.9</ele>
        <time>2023-07-27T13:31:18.718Z</time>
      </trkpt>
      <trkpt lat="44.25632" lon="6.7444">
        <ele>2300.5</ele>
        <time>2023-07-27T13:31:31.477Z</time>
      </trkpt>
      <trkpt lat="44.25637" lon="6.74438">
        <ele>2300.9</ele>
        <time>2023-07-27T13:31:43.518Z</time>
      </trkpt>
      <trkpt lat="44.25641" lon="6.74437">
        <ele>2301.3</ele>
        <time>2023-07-27T13:31:53.647Z</time>
      </trkpt>
      <trkpt lat="44.25646" lon="6.74435">
        <ele>2302</ele>
        <time>2023-07-27T13:32:08.393Z</time>
      </trkpt>
      <trkpt lat="44.25651" lon="6.74433">
        <ele>2302.8</ele>
        <time>2023-07-27T13:32:24.220Z</time>
      </trkpt>
      <trkpt lat="44.25656" lon="6.74433">
        <ele>2303.3</ele>
        <time>2023-07-27T13:32:36.752Z</time>
      </trkpt>
      <trkpt lat="44.2566" lon="6.74432">
        <ele>2303.7</ele>
        <time>2023-07-27T13:32:46.881Z</time>
      </trkpt>
      <trkpt lat="44.25666" lon="6.74432">
        <ele>2304.3</ele>
        <time>2023-07-27T13:33:01.919Z</time>
      </trkpt>
      <trkpt lat="44.25672" lon="6.74435">
        <ele>2304.4</ele>
        <time>2023-07-27T13:33:14.002Z</time>
      </trkpt>
      <trkpt lat="44.25678" lon="6.74437">
        <ele>2304.6</ele>
        <time>2023-07-27T13:33:26.335Z</time>
      </trkpt>
      <trkpt lat="44.25682" lon="6.74437">
        <ele>2304.9</ele>
        <time>2023-07-27T13:33:35.536Z</time>
      </trkpt>
      <trkpt lat="44.25688" lon="6.74435">
        <ele>2305.6</ele>
        <time>2023-07-27T13:33:51.747Z</time>
      </trkpt>
      <trkpt lat="44.25693" lon="6.74433">
        <ele>2306.1</ele>
        <time>2023-07-27T13:34:04.609Z</time>
      </trkpt>
      <trkpt lat="44.25697" lon="6.74431">
        <ele>2306.5</ele>
        <time>2023-07-27T13:34:15.043Z</time>
      </trkpt>
      <trkpt lat="44.25702" lon="6.74428">
        <ele>2307</ele>
        <time>2023-07-27T13:34:28.304Z</time>
      </trkpt>
      <trkpt lat="44.25707" lon="6.74426">
        <ele>2307.3</ele>
        <time>2023-07-27T13:34:39.594Z</time>
      </trkpt>
      <trkpt lat="44.25712" lon="6.74423">
        <ele>2307.6</ele>
        <time>2023-07-27T13:34:51.308Z</time>
      </trkpt>
      <trkpt lat="44.25716" lon="6.7442">
        <ele>2307.8</ele>
        <time>2023-07-27T13:35:00.733Z</time>
      </trkpt>
      <trkpt lat="44.25721" lon="6.74417">
        <ele>2308</ele>
        <time>2023-07-27T13:35:11.766Z</time>
      </trkpt>
      <trkpt lat="44.25725" lon="6.74414">
        <ele>2308.4</ele>
        <time>2023-07-27T13:35:22.687Z</time>
      </trkpt>
      <trkpt lat="44.25729" lon="6.74412">
        <ele>2308.7</ele>
        <time>2023-07-27T13:35:32.316Z</time>
      </trkpt>
      <trkpt lat="44.25734" lon="6.74409">
        <ele>2309.3</ele>
        <time>2023-07-27T13:35:46.456Z</time>
      </trkpt>
      <trkpt lat="44.25738" lon="6.74407">
        <ele>2309.6</ele>
        <time>2023-07-27T13:35:56.085Z</time>
      </trkpt>
      <trkpt lat="44.25743" lon="6.74404">
        <ele>2310.1</ele>
        <time>2023-07-27T13:36:09.345Z</time>
      </trkpt>
      <trkpt lat="44.25748" lon="6.74402">
        <ele>2310.5</ele>
        <time>2023-07-27T13:36:21.386Z</time>
      </trkpt>
      <trkpt lat="44.25754" lon="6.74401">
        <ele>2311.1</ele>
        <time>2023-07-27T13:36:36.494Z</time>
      </trkpt>
      <trkpt lat="44.2576" lon="6.74401">
        <ele>2311.7</ele>
        <time>2023-07-27T13:36:51.532Z</time>
      </trkpt>
      <trkpt lat="44.25765" lon="6.74402">
        <ele>2312.2</ele>
        <time>2023-07-27T13:37:04.147Z</time>
      </trkpt>
      <trkpt lat="44.2577" lon="6.74402">
        <ele>2312.7</ele>
        <time>2023-07-27T13:37:16.679Z</time>
      </trkpt>
      <trkpt lat="44.25774" lon="6.74401">
        <ele>2313.2</ele>
        <time>2023-07-27T13:37:27.729Z</time>
      </trkpt>
      <trkpt lat="44.25779" lon="6.74399">
        <ele>2313.7</ele>
        <time>2023-07-27T13:37:40.591Z</time>
      </trkpt>
      <trkpt lat="44.25784" lon="6.74399">
        <ele>2314.1</ele>
        <time>2023-07-27T13:37:52.288Z</time>
      </trkpt>
      <trkpt lat="44.25789" lon="6.74398">
        <ele>2314.5</ele>
        <time>2023-07-27T13:38:04.073Z</time>
      </trkpt>
      <trkpt lat="44.25795" lon="6.74403">
        <ele>2314.4</ele>
        <time>2023-07-27T13:38:16.151Z</time>
      </trkpt>
      <trkpt lat="44.258" lon="6.74401">
        <ele>2314.9</ele>
        <time>2023-07-27T13:38:29.013Z</time>
      </trkpt>
      <trkpt lat="44.25805" lon="6.74399">
        <ele>2315.5</ele>
        <time>2023-07-27T13:38:42.773Z</time>
      </trkpt>
      <trkpt lat="44.2581" lon="6.74395">
        <ele>2316.2</ele>
        <time>2023-07-27T13:38:58.355Z</time>
      </trkpt>
      <trkpt lat="44.25814" lon="6.74391">
        <ele>2316.7</ele>
        <time>2023-07-27T13:39:10.757Z</time>
      </trkpt>
      <trkpt lat="44.25818" lon="6.74387">
        <ele>2317.5</ele>
        <time>2023-07-27T13:39:26.228Z</time>
      </trkpt>
      <trkpt lat="44.25822" lon="6.74382">
        <ele>2318.9</ele>
        <time>2023-07-27T13:39:51.116Z</time>
      </trkpt>
      <trkpt lat="44.25829" lon="6.74375">
        <ele>2320.9</ele>
        <time>2023-07-27T13:40:26.653Z</time>
      </trkpt>
      <trkpt lat="44.25833" lon="6.74371">
        <ele>2322.1</ele>
        <time>2023-07-27T13:40:47.939Z</time>
      </trkpt>
      <trkpt lat="44.25836" lon="6.74367">
        <ele>2323.6</ele>
        <time>2023-07-27T13:41:17.138Z</time>
      </trkpt>
      <trkpt lat="44.2584" lon="6.74366">
        <ele>2324.2</ele>
        <time>2023-07-27T13:41:29.224Z</time>
      </trkpt>
      <trkpt lat="44.25845" lon="6.74364">
        <ele>2325.2</ele>
        <time>2023-07-27T13:41:47.543Z</time>
      </trkpt>
      <trkpt lat="44.2585" lon="6.74363">
        <ele>2325.8</ele>
        <time>2023-07-27T13:42:01.071Z</time>
      </trkpt>
      <trkpt lat="44.25855" lon="6.74363">
        <ele>2326.2</ele>
        <time>2023-07-27T13:42:12.768Z</time>
      </trkpt>
      <trkpt lat="44.2586" lon="6.74362">
        <ele>2326.8</ele>
        <time>2023-07-27T13:42:26.296Z</time>
      </trkpt>
      <trkpt lat="44.25865" lon="6.74361">
        <ele>2327.6</ele>
        <time>2023-07-27T13:42:41.930Z</time>
      </trkpt>
      <trkpt lat="44.25873" lon="6.74366">
        <ele>2328</ele>
        <time>2023-07-27T13:43:00.218Z</time>
      </trkpt>
      <trkpt lat="44.25877" lon="6.7437">
        <ele>2328</ele>
        <time>2023-07-27T13:43:09.102Z</time>
      </trkpt>
      <trkpt lat="44.25881" lon="6.74374">
        <ele>2328</ele>
        <time>2023-07-27T13:43:17.986Z</time>
      </trkpt>
      <trkpt lat="44.25886" lon="6.74383">
        <ele>2327.4</ele>
        <time>2023-07-27T13:43:30.875Z</time>
      </trkpt>
      <trkpt lat="44.25892" lon="6.74384">
        <ele>2327.7</ele>
        <time>2023-07-27T13:43:43.650Z</time>
      </trkpt>
      <trkpt lat="44.25898" lon="6.74386">
        <ele>2327.4</ele>
        <time>2023-07-27T13:43:53.396Z</time>
      </trkpt>
      <trkpt lat="44.25905" lon="6.7439">
        <ele>2327</ele>
        <time>2023-07-27T13:44:05.346Z</time>
      </trkpt>
      <trkpt lat="44.2591" lon="6.74393">
        <ele>2327.1</ele>
        <time>2023-07-27T13:44:15.752Z</time>
      </trkpt>
      <trkpt lat="44.25914" lon="6.74395">
        <ele>2327.2</ele>
        <time>2023-07-27T13:44:24.009Z</time>
      </trkpt>
      <trkpt lat="44.25919" lon="6.74398">
        <ele>2327.1</ele>
        <time>2023-07-27T13:44:33.301Z</time>
      </trkpt>
      <trkpt lat="44.25925" lon="6.744">
        <ele>2326.6</ele>
        <time>2023-07-27T13:44:43.048Z</time>
      </trkpt>
      <trkpt lat="44.25929" lon="6.74403">
        <ele>2326.4</ele>
        <time>2023-07-27T13:44:50.233Z</time>
      </trkpt>
      <trkpt lat="44.25933" lon="6.74405">
        <ele>2326.2</ele>
        <time>2023-07-27T13:44:56.946Z</time>
      </trkpt>
      <trkpt lat="44.25938" lon="6.74406">
        <ele>2325.8</ele>
        <time>2023-07-27T13:45:04.926Z</time>
      </trkpt>
      <trkpt lat="44.25943" lon="6.74406">
        <ele>2325.4</ele>
        <time>2023-07-27T13:45:12.826Z</time>
      </trkpt>
      <trkpt lat="44.25947" lon="6.74403">
        <ele>2324.8</ele>
        <time>2023-07-27T13:45:20.000Z</time>
      </trkpt>
    </trkseg>
  </trk>
</gpx>